[[{"header":{"parameterUnit":"m.s-1","parameterCategory":1,"la1":30.6,"la2":29.2853,"lo1":-89.7004,"lo2":-87.6739,"dy":0.0162,"dx":0.0183,"nx":112,"ny":82,"refTime":"2023-07-25T12:00:00:Z","depth":0,"parameterNumber":2,"parameterNumberName":"U-component_of_WINDS"},"data":[0.0,0.0,0.0,0.0,0.0,0.0,0.0,0.0,0.0,0.0,0.0,0.0,0.0,0.0,0.0,0.0,0.0,0.0,0.0,0.0,0.0,0.0,0.0,0.0,0.0,0.0,0.0,0.0,0.0,0.0,0.0,0.0,0.0,0.0,0.0,0.0,0.0,0.0,0.0,0.0,0.0,0.0,0.0,0.0,0.0,0.0,0.0,0.0,0.0,0.0,0.0,0.0,0.0,0.0,0.0,0.0,0.0,0.0,0.0,0.0,0.0,0.0,0.0,0.0,0.0,0.0,0.0,0.0,0.0,0.0,0.0,0.0,0.0,0.0,0.0,0.0,0.0,0.0,0.0,0.0,0.0,0.0,0.0,0.0,0.0,0.0,0.0,0.0,0.0,0.0,1.2774,1.3266,1.4327,1.4791,1.4336,1.4367,1.387,1.253,0.0,0.0,0.0,0.0,0.0,0.0,0.0,0.0,0.0,0.0,0.0,0.0,0.0,0.0,0.0,0.0,0.0,0.0,0.0,0.0,0.0,0.0,0.0,0.0,0.0,0.0,0.0,0.0,0.0,0.0,0.0,0.0,0.0,0.0,0.0,0.0,0.0,0.0,0.0,0.0,0.0,0.0,0.0,0.0,0.0,0.0,0.0,0.0,0.0,0.0,0.0,0.0,0.0,0.0,0.0,0.0,0.0,0.0,0.0,0.0,0.0,0.0,0.0,0.0,0.0,0.0,0.0,0.0,0.0,0.0,0.0,0.0,0.0,0.0,0.0,0.0,0.0,0.0,0.0,0.0,0.0,0.0,0.0,0.0,0.0,0.0,0.0,0.0,0.0,0.0,0.0,0.0,0.0,0.0,0.0,0.0,0.0,0.0,0.0,0.0,0.0,0.0,0.0,0.0,1.3099,1.4615,1.5692,1.6114,1.5646,1.5234,1.4448,1.3227,0.0,0.0,0.0,0.0,0.0,0.0,0.0,0.0,0.0,0.0,0.0,0.0,0.0,0.0,0.0,0.0,0.0,0.0,0.0,0.0,0.0,0.0,0.0,0.0,0.0,0.0,0.0,0.0,0.0,0.0,0.0,0.0,0.0,0.0,0.0,0.0,0.0,0.0,0.0,0.0,0.0,0.0,0.0,0.0,0.0,0.0,0.0,0.0,0.0,0.0,0.0,0.0,0.0,0.0,0.0,0.0,0.0,0.0,0.0,0.0,0.0,0.0,0.0,0.0,0.0,0.0,0.0,0.0,0.0,0.0,0.0,0.0,0.0,0.0,0.0,0.0,0.0,0.0,0.0,0.0,0.0,0.0,0.0,0.0,0.0,0.0,0.0,0.0,0.0,0.0,0.0,0.0,0.0,0.0,0.0,0.0,0.0,0.0,0.0,0.0,0.0,0.0,0.0,1.2621,1.3726,1.5403,1.6115,1.6328,1.5879,1.5387,1.4574,1.3327,1.2052,0.0,0.0,0.0,0.0,0.0,0.0,0.0,0.0,0.0,0.0,0.0,0.0,0.0,0.0,0.0,0.0,0.0,0.0,0.0,0.0,0.0,0.0,0.0,0.0,0.0,0.0,0.0,0.0,0.0,0.0,0.0,0.0,0.0,0.0,0.0,0.0,0.0,0.0,0.0,0.0,0.0,0.0,0.0,0.0,0.0,0.0,0.0,0.0,0.0,0.0,0.0,0.0,0.0,0.0,0.0,0.0,0.0,0.0,0.0,0.0,0.0,0.0,0.0,0.0,0.0,0.0,0.0,0.0,0.0,0.0,0.0,0.0,0.0,0.0,0.0,0.0,0.0,0.0,0.0,0.0,0.0,0.0,0.0,0.0,0.0,0.0,0.0,0.0,0.0,0.0,0.0,0.0,0.0,0.0,0.0,0.0,0.0,0.0,0.0,0.0,0.0,0.0,1.3608,1.4393,1.5818,1.6199,1.6268,1.6021,1.54,1.4513,1.3275,1.1993,0.0,0.0,0.0,0.0,0.0,0.0,0.0,0.0,0.0,0.0,0.0,0.0,0.0,0.0,0.0,0.0,0.0,0.0,0.0,0.0,0.0,0.0,0.0,0.0,0.0,0.0,0.0,0.0,0.0,0.0,0.0,0.0,0.0,0.0,0.0,0.0,0.0,0.0,0.0,0.0,0.0,0.0,0.0,0.0,0.0,0.0,0.0,0.0,0.0,0.0,0.0,0.0,0.0,0.0,0.0,0.0,0.0,0.0,0.0,0.0,0.0,0.0,0.0,0.0,0.0,0.0,0.0,0.0,0.0,0.0,0.0,0.0,0.0,0.0,0.0,0.0,0.0,0.0,0.0,0.0,0.0,0.0,0.0,0.0,0.0,0.0,0.0,0.0,0.0,0.0,0.0,0.0,0.0,0.0,0.0,0.0,0.0,0.0,0.0,0.0,0.0,0.0,1.3992,1.4894,1.5817,1.6083,1.632,1.6606,1.5519,1.436,1.3265,1.2001,0.0,0.0,0.0,0.0,0.0,0.0,0.0,0.0,0.0,0.0,0.0,0.0,0.0,0.0,0.0,0.0,0.0,0.0,0.0,0.0,0.0,0.0,0.0,0.0,0.0,0.0,0.0,0.0,0.0,0.0,0.0,0.0,0.0,0.0,0.0,0.0,0.0,0.0,0.0,0.0,0.0,0.0,0.0,0.0,0.0,0.0,0.0,0.0,0.0,0.0,0.0,0.0,0.0,0.0,0.0,0.0,0.0,0.0,0.0,0.0,0.0,0.0,0.0,0.0,0.0,0.0,0.0,0.0,0.0,0.0,0.0,0.0,0.0,0.0,0.0,0.0,0.0,0.0,0.0,0.0,0.0,0.0,0.0,0.0,0.0,0.0,0.0,0.0,0.0,0.0,0.0,0.0,0.0,0.0,0.0,0.0,0.0,0.0,0.0,0.0,0.0,0.0,1.3914,1.4821,1.5739,1.6019,1.6254,1.6546,1.5471,1.4468,1.376,0.0,0.0,0.0,0.0,0.0,0.0,0.0,0.0,0.0,0.0,0.0,0.0,0.0,0.0,0.0,0.0,0.0,0.0,0.0,0.0,0.0,0.0,0.0,0.0,0.0,0.0,0.0,0.0,0.0,0.0,0.0,0.0,0.0,0.0,0.0,0.0,0.0,0.0,0.0,0.0,0.0,0.0,0.0,0.0,0.0,0.0,0.0,0.0,0.0,0.0,0.0,0.0,0.0,0.0,0.0,0.0,0.0,0.0,0.0,0.0,0.0,0.0,0.0,0.0,0.0,0.0,0.0,0.0,0.0,0.0,0.0,0.0,0.0,0.0,0.0,0.0,0.0,0.0,0.0,0.0,0.0,0.0,0.0,0.0,0.0,0.0,0.0,0.0,0.0,0.0,0.0,0.0,0.0,0.0,0.0,0.0,0.0,0.0,0.0,0.0,0.0,0.0,1.2809,1.3955,1.4892,1.5652,1.5906,1.6171,1.6466,1.563,1.478,1.4041,0.0,0.0,0.0,0.0,0.0,0.0,0.0,0.0,0.0,0.0,0.0,0.0,0.0,0.0,0.0,0.0,0.0,0.0,0.0,0.0,0.0,0.0,0.0,0.0,0.0,0.0,0.0,0.0,0.0,0.0,0.0,0.0,0.0,0.0,0.0,0.0,0.0,0.0,0.0,0.0,0.0,0.0,0.0,0.0,0.0,0.0,0.0,0.0,0.0,0.0,0.0,0.0,0.0,0.0,0.0,0.0,0.0,0.0,0.0,0.0,0.0,0.0,0.0,0.0,0.0,0.0,0.0,0.0,0.0,0.0,0.0,0.0,0.0,0.0,0.0,0.0,0.0,0.0,0.0,0.0,0.0,0.0,0.0,0.0,0.0,0.0,0.0,0.0,0.0,0.0,0.0,0.0,0.0,0.0,0.0,0.0,0.0,0.0,0.0,0.0,0.0,0.0,1.2725,1.4132,1.5165,1.5544,1.577,1.6075,1.6466,1.601,1.5212,0.0,0.0,0.0,0.0,0.0,0.0,0.0,0.0,0.0,0.0,0.0,0.0,0.0,0.0,0.0,0.0,0.0,0.0,0.0,0.0,0.0,0.0,0.0,0.0,0.0,0.0,0.0,0.0,0.0,0.0,0.0,0.0,0.0,0.0,0.0,0.0,0.0,0.0,0.0,0.0,0.0,0.0,0.0,0.0,0.0,0.0,0.0,0.0,0.0,0.0,0.0,0.0,0.0,0.0,0.0,0.0,0.0,0.0,0.0,0.0,0.0,0.0,0.0,0.0,0.0,0.0,0.0,0.0,0.0,0.0,0.0,0.0,0.0,0.0,0.0,0.0,0.0,0.0,0.0,0.0,0.0,0.0,0.0,0.0,0.0,0.0,0.0,0.0,0.0,0.0,0.0,0.0,0.0,0.0,0.0,0.0,0.0,0.0,0.0,0.0,0.0,0.0,0.0,1.2588,1.4073,1.5134,1.5418,1.5704,1.6019,1.632,1.5959,1.5638,1.549,0.0,0.0,0.0,0.0,0.0,0.0,0.0,0.0,0.0,0.0,0.0,0.0,0.0,0.0,0.0,0.0,0.0,0.0,0.0,0.0,0.0,0.0,0.0,0.0,0.0,0.0,0.0,0.0,0.0,0.0,0.0,0.0,0.0,0.0,0.0,0.0,0.0,0.0,0.0,0.0,0.0,0.0,0.0,0.0,0.0,0.0,0.0,0.0,0.0,0.0,0.0,0.0,0.0,0.0,0.0,0.0,0.0,0.0,0.0,0.0,0.0,0.0,0.0,0.0,0.0,0.0,0.0,0.0,0.0,0.0,0.0,0.0,0.0,0.0,0.0,0.0,0.0,0.0,0.0,0.0,0.0,0.0,0.0,0.0,0.0,0.0,0.0,0.0,0.0,0.0,0.0,0.0,0.0,0.0,0.0,0.0,0.0,0.0,0.0,0.0,0.0,0.0,1.2485,1.3962,1.4996,1.5284,1.558,1.5877,1.6226,1.6168,1.6096,1.6097,0.0,0.0,0.0,0.0,0.0,0.0,0.0,0.0,0.0,0.0,0.0,0.0,0.0,0.0,0.0,0.0,0.0,0.0,0.0,0.0,0.0,0.0,0.0,0.0,0.0,0.0,0.0,0.0,0.0,0.0,0.0,0.0,0.0,0.0,0.0,0.0,0.0,0.0,0.0,0.0,0.0,0.0,0.0,0.0,0.0,0.0,0.0,0.0,0.0,0.0,0.0,0.0,0.0,0.0,0.0,0.0,0.0,0.0,0.0,0.0,0.0,0.0,0.0,0.0,0.0,0.0,0.0,0.0,0.0,0.0,0.0,0.0,0.0,0.0,0.0,0.0,0.0,0.0,0.0,0.0,0.0,0.0,0.0,0.0,0.0,0.0,0.0,0.0,0.0,0.0,0.0,0.0,0.0,0.0,0.0,0.0,0.0,0.0,0.0,0.0,0.0,0.0,1.2416,1.3813,1.4832,1.5154,1.5374,1.5689,1.6131,1.6474,1.6544,1.6211,0.0,0.0,0.0,0.0,0.0,0.0,0.0,0.0,0.0,0.0,0.0,0.0,0.0,0.0,0.0,0.0,0.0,0.0,0.0,0.0,0.0,0.0,0.0,0.0,0.0,0.0,0.0,0.0,0.0,0.0,0.0,0.0,0.0,0.0,0.0,0.0,0.0,0.0,0.0,0.0,0.0,0.0,0.0,0.0,0.0,0.0,0.0,0.0,0.0,0.0,0.0,0.0,0.0,0.0,0.0,0.0,0.0,0.0,0.0,0.0,1.07,1.0776,0.0,0.0,0.0,0.0,0.0,0.0,0.0,0.0,0.0,0.0,0.0,0.0,0.0,0.0,0.0,0.0,0.0,0.0,0.0,0.0,0.0,0.0,0.0,0.0,0.0,0.0,0.0,0.0,0.0,0.0,0.0,0.0,0.0,0.0,0.0,0.0,0.0,0.0,0.0,0.0,1.2415,1.3783,1.477,1.4963,1.5284,1.566,1.6004,1.6409,1.6725,1.6938,1.6595,0.0,0.0,0.0,0.0,0.0,0.0,0.0,0.0,0.0,0.0,0.0,0.0,0.0,0.0,0.0,0.0,0.0,0.0,0.0,0.0,0.0,0.0,0.0,0.0,0.0,0.0,0.0,0.0,0.0,0.0,0.0,0.0,0.0,0.0,0.0,0.0,0.0,0.0,0.0,0.0,0.0,0.0,0.0,0.0,0.0,0.0,0.0,0.0,0.0,0.0,0.0,0.0,0.0,0.0,0.0,0.0,0.0,0.0,0.0,1.1409,1.1199,0.0,0.0,0.0,0.0,0.0,0.0,0.0,0.0,0.0,0.0,0.0,0.0,0.0,0.0,0.0,0.0,0.0,0.0,0.0,0.0,0.0,0.0,0.0,0.0,0.0,0.0,0.0,0.0,0.0,0.0,0.0,0.0,0.0,0.0,0.0,0.0,0.0,0.0,0.0,0.0,1.2463,1.3813,1.4739,1.4902,1.5201,1.558,1.5975,1.6348,1.6738,1.7159,1.713,0.0,0.0,0.0,0.0,0.0,0.0,0.0,0.0,0.0,0.0,0.0,0.0,0.0,0.0,0.0,0.0,0.0,0.0,0.0,0.0,0.0,0.0,0.0,0.0,0.0,0.0,0.0,0.0,0.0,0.0,0.0,0.0,0.0,0.0,0.0,0.0,0.0,0.0,0.0,0.0,0.0,0.0,0.0,0.0,0.0,0.0,0.0,0.0,0.0,0.0,0.0,0.0,0.0,1.2835,1.2867,1.287,1.2744,1.2668,1.2601,1.2045,1.1544,1.1172,1.1877,0.0,0.0,0.0,0.0,0.0,0.0,0.0,0.0,0.0,0.0,0.0,0.0,0.0,0.0,0.0,0.0,0.0,0.0,0.0,0.0,0.0,0.0,1.1113,1.1084,1.1365,1.1696,1.1837,0.0,0.0,0.0,0.0,0.0,0.0,0.0,0.0,0.0,0.0,0.0,1.2705,1.3912,1.477,1.4902,1.5147,1.55,1.5911,1.6285,1.6678,1.7142,1.7432,1.7426,0.0,0.0,0.0,0.0,0.0,0.0,0.0,0.0,0.0,0.0,0.0,0.0,0.0,0.0,0.0,0.0,0.0,0.0,0.0,0.0,0.0,0.0,0.0,0.0,0.0,0.0,0.0,0.0,0.0,0.0,0.0,0.0,1.1322,1.1238,0.0,0.0,0.0,0.0,0.0,0.0,0.0,0.0,0.0,0.0,0.0,0.0,0.0,1.297,1.3064,1.3634,1.3946,1.3977,1.393,1.3898,1.3891,1.3297,1.3057,1.3062,1.2471,0.0,1.2383,1.2669,0.0,0.0,0.0,0.0,0.0,0.0,0.0,0.0,0.0,0.0,0.0,0.0,0.0,0.0,0.0,0.0,0.0,0.0,0.0,0.0,0.0,0.0,1.0879,1.1336,1.1453,1.1566,1.2043,1.2231,1.2453,1.2954,1.2971,1.2862,0.0,0.0,0.0,0.0,0.0,0.0,1.3438,1.4282,1.4832,1.4902,1.5193,1.547,1.5717,1.6156,1.6588,1.6993,1.732,1.7599,1.7769,1.6633,0.0,0.0,0.0,0.0,0.0,0.0,0.0,0.0,0.0,0.0,0.0,0.0,0.0,0.0,0.0,0.0,0.0,0.0,0.0,0.0,0.0,0.0,0.0,0.0,0.0,0.0,0.0,0.0,0.0,1.2566,1.2392,1.2324,1.2269,1.2095,0.0,0.0,0.0,0.0,0.0,0.0,0.0,0.0,0.0,1.3395,1.3544,1.3803,1.4128,1.4399,1.4518,1.4485,1.4534,1.4336,1.3917,1.37,1.3626,1.3642,1.3383,1.3305,1.3339,1.2867,1.2512,1.2306,0.0,0.0,0.0,0.0,1.1612,1.1635,1.1542,1.1736,1.2025,1.1974,0.0,0.0,0.0,0.0,0.0,0.0,0.0,1.0565,1.0703,1.0909,1.1125,1.1281,1.1549,1.1897,1.247,1.2974,1.3397,1.3697,1.3726,1.3671,1.3573,1.2947,0.0,0.0,0.0,1.3363,1.3765,1.4422,1.4902,1.5056,1.5284,1.5507,1.5776,1.6136,1.6535,1.696,1.7248,1.7541,1.7892,1.6998,1.6607,0.0,0.0,0.0,0.0,0.0,0.0,0.0,0.0,0.0,0.0,0.0,0.0,0.0,0.0,0.0,0.0,0.0,0.0,0.0,0.0,0.0,0.0,0.0,0.0,0.0,0.0,0.0,0.0,1.3379,1.3184,1.3105,1.3173,1.3046,0.0,0.0,0.0,0.0,0.0,0.0,1.4735,1.4795,1.4723,1.4562,1.4411,1.4539,1.4999,1.4944,1.4902,1.4909,1.5002,1.4775,1.4266,1.4201,1.4192,1.4177,1.4046,1.3987,1.3888,1.3044,1.2736,1.2776,1.2764,1.2478,1.2111,1.2121,1.2139,1.2164,1.2095,1.2366,1.2741,1.2668,1.2638,1.2519,1.192,0.0,0.0,0.0,0.0,1.0929,1.0797,1.1031,1.1297,1.1329,1.1651,1.2165,1.2948,1.3551,1.4025,1.4276,1.4268,1.4231,1.4179,1.3614,0.0,1.3268,1.3575,1.3885,1.4099,1.4605,1.4987,1.5185,1.5344,1.5544,1.5799,1.6116,1.6474,1.6866,1.7126,1.7447,1.7816,1.7211,1.6898,1.6964,0.0,0.0,0.0,0.0,0.0,0.0,0.0,0.0,0.0,0.0,0.0,0.0,0.0,0.0,0.0,0.0,0.0,0.0,0.0,0.0,0.0,0.0,0.0,0.0,0.0,0.0,0.0,0.0,0.0,1.284,1.3279,0.0,0.0,0.0,0.0,1.4621,1.5058,1.5271,1.5191,1.5656,1.5884,1.5823,1.5607,1.5521,1.5558,1.5492,1.5463,1.5463,1.5463,1.5477,1.5484,1.4922,1.4658,1.4655,1.42,1.3928,1.3787,1.342,1.326,1.3212,1.2776,1.2633,1.2673,1.2727,1.2727,1.2662,1.2596,1.2467,1.2315,1.2259,1.219,1.2141,1.2082,1.1955,0.0,0.0,1.149,1.1333,1.1205,1.1094,1.1145,1.1647,1.178,1.2185,1.3457,1.3772,1.4034,1.4732,1.4923,1.4946,1.4845,0.0,1.4013,1.4533,1.4156,1.4039,1.4682,1.4883,1.505,1.5185,1.5374,1.5544,1.561,1.6052,1.6375,1.6623,1.6993,1.7337,1.7604,1.7088,1.6572,1.6072,1.5518,0.0,0.0,0.0,0.0,0.0,0.0,0.0,0.0,0.0,0.0,0.0,0.0,0.0,0.0,0.0,0.0,0.0,0.0,0.0,0.0,0.0,0.0,0.0,0.0,0.0,0.0,0.0,0.0,1.321,1.3302,0.0,1.4134,1.4218,1.4466,1.4983,1.4929,1.5037,1.5448,1.5512,1.5544,1.5514,1.5448,1.5425,1.5425,1.5388,1.5358,1.5358,1.5433,1.5448,1.5477,1.5293,1.521,1.5203,1.5045,1.4969,1.4909,1.4423,1.3785,1.3158,1.2997,1.2793,1.2562,1.2589,1.2616,1.2616,1.2507,1.2343,1.2156,1.1989,1.1926,1.1897,1.1804,1.1732,1.1667,1.1497,1.1339,1.1277,1.1528,1.1527,1.1591,1.2129,1.2573,1.3027,1.3496,1.3942,1.4322,1.4599,1.4718,1.4787,1.477,1.4512,1.4366,1.455,1.4398,1.4373,1.4742,1.4825,1.4949,1.5185,1.5298,1.544,1.558,1.5947,1.6301,1.657,1.6934,1.728,1.7589,1.7571,1.7322,1.6769,1.6275,1.5737,0.0,0.0,0.0,0.0,0.0,0.0,0.0,0.0,0.0,0.0,0.0,0.0,0.0,0.0,0.0,0.0,0.0,0.0,0.0,0.0,0.0,0.0,0.0,0.0,0.0,1.3215,1.3336,1.3596,1.3659,1.3893,1.4443,1.4496,1.4728,1.5254,1.4991,1.4985,1.5441,1.5262,1.5193,1.5275,1.5283,1.5283,1.5313,1.5313,1.5313,1.5313,1.5358,1.5366,1.5389,1.5426,1.5433,1.5433,1.5455,1.5485,1.5463,1.5128,1.4322,1.3328,1.3153,1.294,1.2712,1.2505,1.2439,1.2439,1.2262,1.2073,1.1911,1.1768,1.1711,1.1652,1.1601,1.1549,1.1474,1.1353,1.1208,1.1202,1.1718,1.1775,1.1877,1.2603,1.3127,1.3533,1.37,1.4096,1.442,1.442,1.4522,1.4624,1.4624,1.4547,1.4501,1.4501,1.4501,1.4571,1.477,1.4801,1.4902,1.511,1.5238,1.5358,1.5522,1.5862,1.6199,1.6482,1.6799,1.7101,1.7432,1.7681,1.7471,1.6738,1.6054,1.5652,1.5554,0.0,0.0,0.0,0.0,0.0,0.0,0.0,0.0,0.0,0.0,0.0,0.0,0.0,0.0,0.0,0.0,0.0,0.0,0.0,0.0,0.0,0.0,0.0,1.3648,1.4006,1.4199,1.3945,1.4325,1.4631,1.4706,1.5188,1.5485,1.5485,1.5291,1.5185,1.5185,1.4994,1.4994,1.5185,1.5185,1.5215,1.5283,1.5275,1.5313,1.5313,1.5313,1.5321,1.5389,1.5328,1.5275,1.5275,1.5374,1.5344,1.5306,1.5411,1.4811,1.3772,1.3305,1.3144,1.3102,1.2515,1.2246,1.2156,1.1883,1.1703,1.1593,1.1586,1.1512,1.1421,1.1541,1.1444,1.1307,1.1376,1.1254,1.1209,1.1771,1.1829,1.2013,1.3058,1.3378,1.3564,1.4075,1.4229,1.4293,1.4293,1.4401,1.4501,1.4501,1.4501,1.4501,1.4501,1.4501,0.0,1.477,1.4801,1.4849,1.4982,1.5163,1.5336,1.5389,1.5769,1.608,1.6274,1.6538,1.6817,1.7068,1.7344,1.6975,1.585,1.4861,1.4727,1.5504,0.0,0.0,0.0,0.0,0.0,0.0,0.0,0.0,0.0,0.0,0.0,0.0,0.0,0.0,0.0,0.0,0.0,0.0,0.0,0.0,0.0,1.4294,1.4389,1.4208,1.4108,1.4173,1.4461,1.4416,1.4613,1.5154,1.5153,1.5179,1.5268,1.5056,1.4932,1.4994,1.4832,1.4832,1.4994,1.4994,1.5011,1.5088,1.5178,1.5215,1.5215,1.5283,1.5275,1.5261,1.5245,1.517,1.5088,1.5193,1.5268,1.5277,1.4928,1.463,1.4332,1.3805,1.3145,1.2442,1.2285,1.2138,1.2026,1.1747,1.1601,1.1504,1.1407,1.1369,1.133,1.1307,1.1277,1.1208,1.1139,1.1069,1.1242,1.2162,1.2348,1.257,1.3677,1.3876,1.3878,1.4031,1.4072,1.4072,1.4072,1.4123,1.4188,1.4337,1.4312,1.4312,1.4344,1.4344,1.4401,1.4547,1.4578,1.4679,1.4918,1.4987,1.5093,1.5298,1.5558,1.5811,1.608,1.6394,1.6617,1.6791,1.7167,1.7082,1.6547,1.5828,1.5543,0.0,0.0,0.0,0.0,0.0,0.0,0.0,0.0,0.0,0.0,0.0,0.0,0.0,0.0,0.0,0.0,0.0,0.0,0.0,0.0,0.0,0.0,1.4742,1.505,1.511,1.4937,1.4864,1.5028,1.4761,1.4761,1.5189,1.505,1.4942,1.5025,1.4871,1.4801,1.4839,1.477,1.477,1.4902,1.4902,1.4918,1.5006,1.5088,1.514,1.5185,1.5245,1.5245,1.5185,1.514,1.5065,1.4966,1.5065,1.4989,1.4789,1.4528,1.4138,1.3709,0.0,0.0,0.0,0.0,1.1977,1.1798,1.163,1.1482,1.1376,1.133,1.1254,1.1208,1.1231,1.1208,1.1185,1.1139,1.1092,1.1284,1.2368,1.2586,1.277,1.3824,1.4052,1.3993,1.3914,1.3947,1.3947,1.3921,1.3947,0.0,1.415,1.4189,1.4235,1.4293,1.4326,1.4383,1.4508,1.4547,1.4655,1.4832,1.4871,1.4994,1.5245,1.5426,0.0,0.0,0.0,1.632,1.652,1.6578,0.0,0.0,0.0,1.5756,1.6041,1.6128,0.0,0.0,1.623,1.5965,0.0,0.0,0.0,0.0,0.0,0.0,0.0,0.0,0.0,0.0,0.0,0.0,0.0,0.0,0.0,0.0,1.5161,1.5619,1.6031,1.597,1.577,1.5514,1.5195,1.5013,1.4982,1.488,1.4801,1.4801,1.477,1.4739,1.4832,1.477,0.0,0.0,0.0,1.4918,1.4982,1.4982,1.5058,1.5178,1.5178,1.5178,1.5178,1.505,1.4959,1.4894,1.4918,1.4606,1.4106,1.4082,1.3423,1.2412,1.2603,1.2719,1.2697,1.2117,1.1776,1.1593,1.1519,0.0,0.0,1.1254,1.1208,1.1139,1.1231,1.1231,1.1208,1.1254,1.1185,1.1318,1.2313,1.2532,1.2671,1.3504,1.3808,1.3821,1.3631,1.3651,1.3684,1.3618,1.3657,1.3742,1.3813,1.403,1.4235,1.4293,1.4358,1.444,1.4508,1.4631,1.4739,1.4801,1.4871,0.0,1.5147,1.5314,1.547,1.5652,1.5784,1.5998,1.6274,1.5871,1.5758,1.5935,1.5558,1.5717,1.6428,1.6489,1.6762,1.7223,1.6235,1.5976,0.0,0.0,0.0,0.0,0.0,0.0,0.0,0.0,0.0,0.0,0.0,0.0,0.0,0.0,0.0,1.4533,1.4983,1.5445,1.594,1.5812,1.561,1.5448,1.5165,1.4982,1.4918,1.4839,1.4832,1.4871,1.4871,1.4887,1.4951,1.4918,1.4871,1.4902,1.4839,1.4832,1.4825,1.4887,1.4973,1.505,1.505,0.0,1.505,1.5006,1.4959,1.4866,1.4521,1.4278,1.4098,1.3156,1.2362,1.1792,1.1933,1.1962,1.1925,1.185,1.1733,1.1593,1.1474,1.133,1.1185,1.1162,1.1162,1.1185,1.1162,1.1162,0.0,1.1092,1.0998,1.1062,1.1665,1.2019,1.2299,1.2499,1.2828,1.2988,1.2468,1.2346,1.2376,1.243,1.243,1.2525,1.2745,1.3625,1.4293,1.4358,1.4433,1.4515,1.4637,1.4669,1.4739,1.4801,1.4871,1.4949,1.502,1.5193,1.5351,1.5441,1.5573,1.5784,1.606,1.6072,1.6164,1.6286,1.6327,1.6438,1.6633,1.6659,1.6763,1.6983,1.6873,1.6702,0.0,0.0,0.0,0.0,0.0,0.0,0.0,0.0,0.0,0.0,0.0,1.3176,0.0,0.0,1.4373,1.4908,1.5405,1.5756,1.5881,1.5726,1.5551,1.5381,1.5142,1.4982,1.4902,1.4832,1.4832,1.4902,1.4902,1.4918,1.5013,1.4949,1.4902,1.4902,1.4832,1.4801,1.4801,1.4832,1.4887,1.4935,1.4935,1.4959,1.5006,1.5006,1.4982,1.493,1.4414,1.4026,1.3651,1.2468,1.1841,1.1608,1.1711,1.1718,1.1652,1.1689,1.1586,1.1444,1.1376,1.1277,1.1185,1.1162,1.1208,1.1231,1.1208,1.1208,1.1185,1.1092,1.0975,1.0993,1.1444,1.1676,1.1874,1.2093,1.2325,1.2443,1.2154,1.2088,1.2117,1.2146,1.221,1.2317,1.2466,1.307,1.3607,1.396,1.4342,1.4624,1.47,1.4739,1.477,1.4832,1.4871,1.4956,1.5133,1.5284,1.5403,1.5448,1.5514,1.5595,1.5711,1.5818,1.5968,1.6095,1.6254,1.6409,1.6554,1.6607,1.6693,1.6743,1.689,1.6797,0.0,0.0,0.0,0.0,0.0,0.0,0.0,0.0,1.3113,1.3058,1.2995,1.3108,1.3674,1.4241,1.4798,1.53,1.581,1.6083,1.5799,1.5675,1.55,1.5306,1.5118,1.4959,1.4902,1.4832,1.4839,1.4918,1.4925,1.4987,1.505,1.4973,1.4918,1.4918,1.4832,1.4801,1.4801,1.4801,1.4832,1.4902,1.4902,1.4949,1.5006,1.502,1.505,1.5007,1.4342,1.372,1.3051,1.2023,1.1608,1.1608,1.1681,1.1652,1.1601,1.1593,1.149,1.133,1.133,1.1277,1.1231,1.1231,1.1277,1.1353,1.133,1.1277,1.1231,1.1139,1.0998,1.0966,1.1276,1.1381,1.1482,1.173,1.1867,1.1948,1.1892,1.1866,1.1866,1.1894,1.1997,1.2094,1.2177,1.241,1.2768,1.3369,1.4075,1.4564,1.4595,1.4724,1.4856,1.4918,1.4956,1.5086,1.5336,1.5433,1.5514,1.5514,1.5514,1.5485,1.5418,1.5544,1.5675,1.5835,1.5983,1.6179,1.639,1.649,1.6543,1.657,1.6665,1.6639,1.2583,1.2668,1.2759,1.284,1.2852,1.2873,0.0,0.0,1.2904,1.2848,1.2776,1.2928,1.3588,1.4117,1.4632,1.5224,1.5714,1.5919,1.5668,1.5544,1.5433,1.5245,1.5088,1.4959,1.4832,1.4871,1.4918,1.4982,1.5102,1.5185,1.5275,1.5088,1.4982,1.4982,1.488,1.4801,1.4801,1.4801,1.4832,1.4902,1.4902,1.4949,1.5006,1.5133,1.5178,1.5113,1.4034,1.3198,1.2531,1.1872,1.1593,1.1608,1.1681,1.1659,1.1593,1.1608,1.1512,1.1399,1.1399,1.1376,1.1376,1.1376,1.1474,1.1541,1.1421,1.1421,1.1421,1.1162,1.0998,1.0893,1.0817,1.1098,1.1276,1.0797,1.1083,1.1342,1.0797,1.0691,1.0709,1.0766,1.0841,1.0933,1.1062,1.1621,1.2288,1.2885,1.3607,1.4111,1.4169,1.4654,1.4982,1.4982,1.514,1.5336,1.5455,1.5485,1.5514,1.5514,1.5514,1.5514,1.5485,1.5544,1.5704,1.5892,1.5983,1.6108,1.6301,1.6328,1.6348,1.6417,1.6452,1.6417,1.2141,1.2243,1.2372,0.0,1.2499,1.2585,1.2647,1.2683,1.2655,1.2628,1.26,1.2875,1.3876,1.4194,1.4595,0.0,1.5836,1.5848,1.558,1.5514,1.5433,1.5215,1.514,1.5065,1.4935,1.4935,1.4996,1.5102,1.5178,1.5215,1.5313,1.5118,1.5006,1.5006,1.488,1.4801,1.4801,1.4801,1.4832,1.4902,1.4902,1.4987,1.5133,1.5178,1.505,1.4761,1.4306,1.3745,1.3159,1.2557,1.2298,1.2283,1.1998,1.1797,1.1659,1.1659,1.1608,1.1519,1.1519,1.1519,1.1519,1.1519,1.1541,1.1593,1.1519,1.1474,1.1399,1.1208,1.1092,1.0975,1.076,1.0845,1.0924,1.0626,1.0753,1.0892,1.0717,1.0663,1.0687,1.076,1.0808,1.0849,1.0998,1.1279,1.1611,1.202,1.2887,1.3628,1.4106,1.4371,1.4694,1.5189,1.5374,1.55,1.5544,1.5639,1.5639,1.5544,1.5639,1.561,1.5514,1.5639,1.577,1.59,1.5962,1.6108,1.6293,1.6293,1.6348,1.6455,1.6455,1.6455,1.1674,1.1811,1.1953,1.2066,1.2192,1.231,1.2407,1.2427,1.2427,1.2427,1.2427,1.2746,1.3775,1.4076,1.4485,1.5485,1.5756,1.5733,1.5514,1.5485,1.5396,1.5245,1.5215,1.5178,1.5088,1.5088,1.5095,1.5178,1.5215,1.5253,1.5313,1.5126,1.505,1.505,1.4942,1.4856,1.4856,1.4856,1.488,1.4918,1.4963,1.5056,1.5215,1.5268,1.5111,1.478,1.4611,1.434,1.3968,1.3355,1.2997,1.2779,1.2402,1.2027,1.1732,1.1732,1.1674,1.1601,1.1601,1.1601,1.1623,1.1601,1.1601,1.1623,1.1615,1.1519,1.1421,1.1277,1.1185,1.1069,1.0832,1.0784,1.0736,1.0687,1.0687,1.0712,1.0808,1.0832,1.0873,1.092,1.0975,1.1022,1.1139,1.1185,1.1277,1.1496,1.2195,1.296,1.3682,1.4066,1.4587,1.5382,1.5544,1.561,1.561,1.5704,1.5704,1.558,1.5675,1.5675,1.5544,1.5704,1.5856,1.5921,1.5983,1.6116,1.6281,1.6301,1.6348,1.6448,1.6466,1.6501,1.1178,0.0,1.1564,1.1747,1.1912,1.2041,1.2182,1.2203,1.2203,1.2203,1.2203,1.2397,1.3015,1.3601,1.4195,1.4742,1.5259,1.5544,1.5418,1.5389,1.5374,1.5313,1.5313,1.5313,0.0,1.5245,1.5185,1.5185,1.5253,1.5313,1.5313,1.5215,1.5178,1.5178,1.505,1.4975,1.4975,1.4975,1.4975,1.5013,1.514,1.5215,1.5313,1.5433,1.547,1.5448,1.4913,1.4721,1.4707,1.4129,1.3482,1.2909,1.2886,1.2434,1.1797,1.1797,1.1703,1.1608,1.1608,1.163,1.1689,1.1608,1.163,1.1689,1.163,1.1593,1.1541,1.1353,1.1254,1.1162,1.1022,1.0944,1.0897,1.0897,1.0897,1.0897,1.0897,1.0951,1.0998,1.0998,1.1092,1.1208,1.1277,1.1399,1.1519,1.1593,1.1615,1.1888,1.2564,1.3723,1.4764,1.5506,1.561,1.561,1.561,1.561,1.558,1.5514,1.558,1.561,1.561,1.5799,1.5942,1.6004,1.6067,1.6131,1.6187,1.6281,1.6293,1.6301,1.6448,1.6482,1.0832,1.1062,1.1286,1.1549,1.1696,1.1819,1.1912,1.197,1.197,1.1898,1.1819,1.1977,1.2534,1.2813,1.3134,1.3771,1.4426,1.4852,1.4817,1.514,1.5374,1.5306,1.5313,0.0,0.0,0.0,0.0,1.5283,1.5253,1.5253,1.5313,1.5163,1.5102,1.5185,1.5058,1.5006,1.5006,1.5006,1.5088,1.5201,1.5344,1.5403,1.5433,1.5485,1.5514,1.5566,1.538,1.5384,1.548,1.4871,1.4456,1.4136,1.3342,1.2796,1.2418,1.2006,1.1797,1.1725,1.1725,1.1754,1.1754,1.1681,1.1659,1.1637,1.1601,1.1563,1.1519,1.1399,1.1353,1.1277,1.1115,1.1045,1.1022,1.092,1.092,1.0975,1.1022,1.1092,1.1162,1.1185,1.1277,1.1353,1.1421,1.1519,1.1586,1.1652,1.2052,1.2571,1.3228,1.4158,1.5009,1.5666,1.577,1.5741,1.561,1.5675,1.5675,1.5514,1.5639,1.5704,1.561,1.5799,1.5942,1.6004,1.6067,1.6143,1.6254,1.6301,1.6348,1.6421,1.6466,1.6501,1.059,1.0849,1.1115,1.1376,1.1504,1.1601,1.1652,1.1674,1.1652,1.1505,1.1408,1.1439,1.177,1.1989,1.2306,1.2793,1.3476,1.4057,1.4339,1.471,1.5015,1.5246,1.5208,1.5193,0.0,0.0,0.0,1.5268,1.5245,1.5215,1.5253,1.5133,1.4995,1.4839,1.4781,1.4659,1.4436,1.4702,1.4884,1.5023,1.5352,1.5425,1.5211,1.5477,1.5513,1.5326,1.5326,1.5311,1.52,1.4803,1.4485,1.4132,1.3327,1.2788,1.2404,1.2027,1.1848,1.1797,1.1797,1.1797,1.1797,1.1725,1.1681,1.1637,1.1608,1.1571,1.1526,1.1489,1.1474,1.1421,1.1254,1.1208,1.1185,1.1069,1.1092,1.1115,1.1162,1.1208,1.1277,1.1353,1.1421,1.1489,1.1549,1.1623,1.1682,1.1732,1.2112,1.2649,1.3304,1.407,1.4765,1.5379,1.5728,1.5835,1.561,1.5675,1.5675,1.5514,1.5704,1.577,1.5675,1.5848,1.5991,1.6032,1.6116,1.6219,1.6293,1.6375,1.6455,1.6528,1.6588,1.6623,1.051,1.0784,1.1045,1.1231,1.1353,1.1399,1.1399,1.133,1.1231,1.1092,1.0944,1.0825,0.0,0.0,1.166,1.1797,1.245,1.3217,1.399,1.4091,1.4364,0.0,0.0,0.0,0.0,0.0,0.0,1.5138,1.515,1.5142,1.5134,1.5134,1.4846,1.4213,1.4226,1.3977,1.3401,1.4116,1.4451,1.4477,1.5181,1.5223,1.4671,1.5388,1.5356,1.4745,1.4833,1.4509,1.4004,1.4004,1.3632,1.3038,1.2947,1.2471,1.1871,1.1884,1.1869,1.1797,1.1797,1.1805,1.1797,1.1725,1.1703,1.1681,1.1608,1.1608,1.1593,1.1601,1.1608,1.1563,1.1444,1.1399,1.1399,1.133,1.1307,1.133,1.133,1.1376,1.1421,1.1489,1.1563,1.163,1.1689,1.1754,1.1797,1.1797,1.1869,1.211,1.2726,1.3458,1.4136,1.4749,1.5472,1.5835,1.5639,1.561,1.5602,1.5514,1.5697,1.5799,1.5799,1.5991,1.6095,1.6095,1.6219,1.6293,1.632,1.6517,1.6588,1.6623,1.6751,1.6811,1.0583,1.076,1.0897,1.1162,1.1277,1.1307,1.1208,1.1092,1.089,1.0514,1.0203,0.9964,0.0,0.0,0.0,1.0728,1.1499,0.0,1.2663,1.3546,0.0,1.4422,0.0,1.4946,1.4392,1.4199,0.0,1.3739,1.4084,1.4326,1.4385,1.4378,1.4335,1.4198,1.3827,1.3561,1.3394,1.3682,1.3841,1.3901,1.415,1.4169,1.4038,1.4229,1.4221,1.4064,1.4123,1.4061,1.3922,1.3979,1.3881,1.362,1.3097,1.278,1.2569,1.2079,1.192,1.1941,1.1941,1.1869,1.1797,1.1725,1.1703,1.1681,1.1608,1.1608,1.1608,1.1593,1.1601,1.1601,1.1563,1.1541,1.1519,1.1474,1.1496,1.1519,1.1519,1.1541,1.1549,1.1571,1.1623,1.1689,1.1754,1.1797,1.1826,1.1869,1.1898,1.2139,1.2795,1.3562,1.4278,1.489,1.5604,1.5998,1.5835,1.587,1.587,1.5799,1.5898,1.5955,1.5955,1.6039,1.6095,1.6095,1.6219,1.6348,1.6448,1.6562,1.6657,1.6751,1.6785,1.6751,1.0632,1.0808,1.092,1.1115,1.1162,1.1115,1.092,1.0653,1.0284,0.9785,0.9345,0.0,0.8902,0.9037,0.9298,0.0,0.0,0.0,1.1841,1.2648,1.3308,0.0,1.4063,0.0,1.3671,1.3386,1.3059,1.2704,1.326,1.3622,1.3664,1.365,1.3542,1.3297,1.2999,1.2914,1.3001,1.3106,1.3213,1.3304,1.3668,1.3685,1.3425,1.375,1.3727,1.3458,1.3531,1.3411,1.3161,1.3184,1.3161,1.3069,1.2667,1.2501,1.2426,1.2099,1.1991,1.1991,1.2033,1.197,1.1877,1.1797,1.1797,1.1776,1.1747,1.1725,1.1732,1.1776,1.1776,1.1783,1.1733,1.1733,1.1711,1.1645,1.1667,1.1689,1.1689,1.1667,1.163,1.163,1.1703,1.1754,1.1797,1.1819,1.1848,1.1891,1.1941,1.212,1.2551,1.3214,1.3885,1.4496,1.5209,1.5755,1.5975,1.6011,1.6039,1.6026,1.6088,1.6136,1.6136,1.6199,1.6226,1.6226,1.632,1.6448,1.6528,1.6649,1.6751,1.6845,1.6811,1.6751,1.0663,1.0856,1.0975,1.1069,1.1045,1.0897,1.0632,1.0128,0.9574,0.8987,0.0,0.8019,0.791,0.8042,0.8336,0.8945,0.0,1.0064,1.1207,1.159,1.2054,1.2912,1.3059,1.3033,1.2867,1.2399,1.2021,1.1886,1.2458,1.2871,1.2949,1.2956,1.2652,1.2007,1.2042,1.2182,1.2377,1.2454,1.2548,1.2681,1.3336,1.3362,1.2826,1.3462,1.3433,1.2902,1.2968,1.269,1.2203,1.2203,1.2161,1.2083,1.2041,1.197,1.1941,1.2062,1.2083,1.2033,1.2104,1.2083,1.2033,1.1941,1.192,1.192,1.192,1.192,1.192,1.1984,1.1991,1.1991,1.192,1.192,1.1898,1.1848,1.1826,1.1826,1.1826,1.1776,1.1725,1.1703,1.1754,1.1797,1.1797,1.1869,1.192,1.1941,1.2041,1.2133,1.2223,1.2745,1.3367,1.3985,1.4715,1.5415,1.609,1.6151,1.6179,1.6242,1.6301,1.632,1.632,1.6355,1.639,1.639,1.6482,1.6528,1.6588,1.6717,1.6819,1.6879,1.6819,1.6785,1.0442,1.0614,1.0736,1.0975,1.0975,1.0825,1.0441,0.9862,0.0,0.0,0.7627,0.7143,0.6913,0.7096,0.7506,0.8117,0.8695,0.9295,1.002,1.0912,1.1581,0.0,1.2584,1.2784,1.2165,1.2043,0.0,0.0,1.1328,1.1591,1.2095,1.2148,1.1943,1.1362,1.1418,1.1557,1.1747,1.1822,1.1925,1.2064,1.2236,1.2309,1.2237,1.236,1.2403,1.233,1.2341,1.2308,1.2203,1.2203,1.2161,1.2083,1.2041,1.2041,1.2062,1.2153,1.2187,1.2177,1.2233,1.2254,1.2213,1.2033,1.1991,1.1991,1.1991,1.1991,1.1991,1.1991,1.1991,1.1991,1.1991,1.1991,1.1991,1.197,1.197,1.197,1.197,1.192,1.1848,1.1797,1.1797,1.1826,1.1869,1.1891,1.197,1.2112,1.2161,1.2223,1.2359,1.2882,1.3543,1.4249,1.4941,1.5625,1.6282,1.6409,1.6448,1.6455,1.6474,1.6474,1.6474,1.6409,1.639,1.639,1.6482,1.6528,1.6588,1.6717,1.6811,1.6819,1.6811,1.6751,1.0122,1.0386,1.059,1.0832,1.0832,1.0625,1.0147,0.0,0.0,0.0,0.6902,0.6399,0.5998,0.611,0.0,0.7034,0.7641,0.8314,0.9018,0.99,1.0586,1.0928,1.1486,1.1721,1.1359,1.1388,1.1312,1.1019,1.0975,1.11,1.1416,1.143,1.1322,1.1099,1.1162,1.1277,1.1496,1.1601,1.1725,1.1848,1.1941,1.2062,1.2153,1.2159,1.22,1.2249,1.2282,1.2302,1.2298,1.2277,1.22,1.2159,1.2125,1.2133,1.2161,1.2187,1.2213,1.2266,1.2295,1.2295,1.2274,1.2192,1.213,1.2102,1.2102,1.2102,1.2102,1.2102,1.2102,1.2109,1.2104,1.2104,1.2091,1.2062,1.2041,1.1991,1.197,1.192,1.1869,1.1819,1.1797,1.1819,1.1898,1.197,1.2054,1.2179,1.2249,1.2351,1.2487,1.2759,1.3199,1.3863,1.4562,1.5277,1.5987,1.6375,1.6633,1.6709,1.6717,1.6691,1.6657,1.6646,1.6586,1.6525,1.6535,1.6588,1.6691,1.6691,1.6717,1.6811,1.6717,1.6657,0.9661,1.0046,1.0393,1.0639,1.0583,1.0323,0.9804,0.9079,0.0,0.6919,0.625,0.5742,0.5231,0.0,0.5522,0.0,0.6695,0.739,0.8147,0.8906,0.9546,0.0,1.0353,0.0,1.065,1.0715,0.0,1.0832,1.0832,1.0873,1.0951,1.0897,1.0897,1.0975,1.1045,1.1185,1.1376,1.1519,1.1667,1.1797,1.192,1.2062,1.2203,1.22,1.2233,1.2295,1.2363,1.2391,1.2391,1.2323,1.2266,1.2226,1.2216,1.2203,1.2203,1.2192,1.2246,1.2295,1.2335,1.2343,1.2343,1.2363,1.2295,1.2226,1.2197,1.2197,1.2197,1.2185,1.2185,1.2172,1.2153,1.2161,1.2133,1.2062,1.2012,1.1941,1.1891,1.1869,1.1869,1.1826,1.1819,1.1848,1.1941,1.2054,1.2159,1.2274,1.2375,1.2495,1.2646,1.2657,1.2851,1.3325,1.4145,1.4955,1.5695,1.6406,1.6839,1.6938,1.6938,1.6905,1.6811,1.6811,1.6751,1.6588,1.6588,1.6657,1.6751,1.6657,1.6657,1.6751,1.6657,1.6588,0.8919,0.9437,0.9886,1.0324,1.0236,0.9906,0.9369,0.0,0.7556,0.6395,0.5693,0.5129,0.4672,0.4785,0.5071,0.0,0.0,0.6807,0.7414,0.8189,0.881,0.9183,0.0,0.0,1.0141,1.0285,1.0441,1.0608,1.0639,1.0687,1.0808,1.076,1.076,1.0832,1.0944,1.1115,1.1307,1.1496,1.1667,1.1797,1.1869,1.2012,1.2203,1.2203,1.2236,1.2295,1.2363,1.2391,1.2391,1.2323,1.2295,1.2274,1.2216,1.2203,1.2203,1.2192,1.2246,1.2323,1.2439,1.2487,1.2487,1.2554,1.2439,1.2274,1.2226,1.2197,1.2185,1.2125,1.2104,1.2104,1.2033,1.2012,1.1991,1.1941,1.1869,1.1826,1.1797,1.1797,1.1826,1.1869,1.1891,1.1941,1.2133,1.2179,1.2274,1.2534,1.2573,1.2646,1.2856,1.2875,1.2891,1.295,1.4103,1.5168,1.5918,1.6702,1.7141,1.7083,1.7083,1.7032,1.6913,1.6819,1.6751,1.6588,1.6588,1.6623,1.6623,1.6623,1.6623,1.6623,1.6623,1.6588,0.8161,0.8706,0.9179,0.9589,0.9504,0.92,0.8662,0.0,0.7024,0.5947,0.5353,0.4874,0.4359,0.4444,0.4701,0.0,0.0,0.0,0.685,0.7579,0.8153,0.8474,0.8925,0.0,0.0,0.0,1.0046,1.0273,1.0298,1.0323,1.0373,1.051,1.0639,1.0736,1.0832,1.0975,1.1185,1.133,1.1511,1.1689,1.174,1.1869,1.2083,1.2153,1.2208,1.2246,1.2391,1.2439,1.2391,1.2411,1.2343,1.2246,1.2216,1.2182,1.2133,1.2195,1.2221,1.2246,1.2343,1.2391,1.2391,1.2363,1.231,1.2249,1.2254,1.2233,1.2187,1.2083,1.2012,1.1962,1.1898,1.1848,1.1819,1.1848,1.1797,1.1754,1.1797,1.1826,1.1869,1.1891,1.197,1.2062,1.2182,1.2269,1.2375,1.2565,1.2681,1.2776,1.294,1.2959,1.2985,1.3013,1.3813,1.4637,1.5346,1.6109,1.6686,1.7024,1.7048,1.699,1.6845,1.6811,1.6751,1.6588,1.6588,1.6649,1.6717,1.6717,1.6751,1.6785,1.6785,1.6785,0.7356,0.7866,0.8352,0.8695,0.8618,0.8334,0.0,0.0,0.6445,0.5526,0.5034,0.4642,0.417,0.4191,0.4385,0.0,0.0,0.5866,0.6352,0.7013,0.7564,0.781,0.0,0.859,0.8899,0.9289,0.9639,0.9912,0.9944,0.9976,0.997,1.0186,1.0393,1.059,1.0712,1.0849,1.1045,1.1208,1.1399,1.1563,1.1638,1.1762,1.192,1.2041,1.2096,1.2115,1.2343,1.2391,1.2343,1.2467,1.2391,1.2205,1.2195,1.2161,1.2091,1.2112,1.2138,1.2192,1.2241,1.2262,1.2233,1.2192,1.2138,1.2083,1.2081,1.2068,1.2062,1.192,1.1855,1.1791,1.174,1.1718,1.1681,1.1747,1.1725,1.1725,1.1797,1.1869,1.192,1.1941,1.2041,1.2125,1.2195,1.2282,1.2415,1.2585,1.2673,1.2794,1.2959,1.2977,1.2995,1.304,1.342,1.4051,1.4973,1.5723,1.6378,1.6983,1.7006,1.6946,1.6811,1.6811,1.6751,1.6588,1.6588,1.6657,1.6811,1.6811,1.6819,1.6913,1.6913,1.6913,0.6437,0.6913,0.7326,0.7713,0.7608,0.7331,0.0,0.6451,0.5806,0.5142,0.4745,0.4395,0.4067,0.4061,0.4191,0.4465,0.0,0.0,0.5959,0.6513,0.6996,0.0,0.0,0.7864,0.8285,0.88,0.923,0.9496,0.9573,0.9638,0.971,0.9782,0.9963,1.0299,1.0565,1.0784,1.0897,1.1162,1.1376,1.1496,1.1563,1.1645,1.1711,1.1776,1.1848,1.192,1.2192,1.2266,1.2226,1.2419,1.2391,1.2205,1.2195,1.2112,1.1991,1.1991,1.2033,1.2112,1.2182,1.2161,1.2104,1.2112,1.197,1.1776,1.1564,1.1659,1.1776,1.163,1.1608,1.1593,1.1593,1.1608,1.1608,1.1681,1.1703,1.1732,1.1869,1.1898,1.1941,1.2062,1.2112,1.2125,1.2185,1.2246,1.2363,1.2582,1.2612,1.2676,1.2883,1.2901,1.2904,1.2897,1.2897,1.3533,1.506,1.5819,1.6456,1.7067,1.7031,1.6946,1.6811,1.6811,1.6751,1.6588,1.6588,1.6657,1.6811,1.6811,1.6819,1.6913,1.6913,1.6913,0.5473,0.5745,0.5953,0.6219,0.6128,0.5922,0.578,0.5339,0.4915,0.4707,0.4441,0.4179,0.4039,0.4121,0.428,0.4462,0.4877,0.0,0.0,0.0,0.0,0.6889,0.7353,0.7753,0.0,0.845,0.8761,0.8932,0.9102,0.9195,0.9222,0.9366,0.9672,1.0154,1.0393,1.059,1.0832,1.1022,1.1185,1.1353,1.1421,1.1511,1.1645,1.174,1.1797,1.1848,1.2164,1.2262,1.2216,1.2427,1.2351,1.2146,1.2174,1.2083,1.1941,1.1991,1.1984,1.1941,1.1869,1.1819,1.1732,1.166,1.1549,1.1429,1.1339,1.1429,1.1578,1.1482,1.1489,1.1519,1.1519,1.1563,1.1615,1.1637,1.1681,1.1703,1.1747,1.1797,1.1826,1.1776,1.1869,1.1962,1.1926,1.2052,1.2197,1.2315,1.2443,1.2546,1.2618,1.2711,1.2749,1.2759,1.2805,1.3222,1.4231,1.4922,1.5546,1.612,1.6607,1.6811,1.6657,1.6657,1.6649,1.6588,1.6588,1.6657,1.6811,1.6845,1.6913,1.6972,1.7015,1.7015,0.0,0.4786,0.4846,0.5042,0.4944,0.0,0.4795,0.4552,0.4309,0.4342,0.4186,0.4026,0.3993,0.4026,0.4118,0.4312,0.4657,0.0,0.0,0.0,0.0,0.6817,0.0,0.0,0.7885,0.8075,0.8231,0.8428,0.8623,0.8756,0.8839,0.9054,0.9387,0.9809,1.0129,1.0418,1.0687,1.0897,1.1092,1.1231,1.133,1.1399,1.1444,1.1571,1.163,1.1674,1.1976,1.2117,0.0,1.231,1.2269,1.2062,1.2083,1.1962,1.1797,1.1834,1.182,1.1769,1.1601,1.149,1.14,1.1231,1.1092,1.0998,1.1022,1.1185,1.1376,1.1376,1.1421,1.1496,1.1496,1.1556,1.1615,1.1637,1.1681,1.1703,1.1703,1.1703,1.1681,1.1564,1.163,1.1703,1.1681,1.1782,1.1903,1.2024,1.2151,1.2266,1.2348,1.2416,1.251,1.2585,1.2659,1.2882,1.3332,1.4256,1.507,1.5622,1.6328,1.6683,1.6562,1.6588,1.6588,1.6588,1.6588,1.6657,1.6811,1.6879,1.6913,1.6946,1.7015,1.699,0.0,0.0,0.0,0.0,0.0,0.0,0.4006,0.3983,0.0,0.4064,0.3991,0.3923,0.3991,0.3833,0.38,0.4064,0.4379,0.0,0.0,0.5644,0.0,0.0,0.6958,0.7174,0.7761,0.7703,0.7739,0.7981,0.8176,0.8342,0.8539,0.8812,0.9081,0.9348,0.9783,1.0179,1.0474,1.0808,1.0998,1.1069,1.1208,1.1231,1.1162,1.1254,1.133,1.1399,1.1667,1.1848,1.1991,1.2123,1.2081,1.197,1.1898,1.1732,1.1564,1.1549,1.1563,1.1519,1.1307,1.1155,1.0991,1.0808,1.0614,1.0492,1.0608,1.0897,1.1208,1.1277,1.1399,1.1519,1.1519,1.1541,1.1608,1.1659,1.1689,1.1689,1.1659,1.1615,1.1512,1.14,1.1378,1.14,1.1445,1.1468,1.1542,1.1732,1.1776,1.1854,1.2037,1.2079,1.2156,1.2343,1.2439,1.2487,1.2487,1.3836,1.4931,1.5494,1.6204,1.6562,1.6501,1.6562,1.6588,1.6588,1.6588,1.6657,1.6785,1.6845,1.6879,1.6879,1.6879,1.6879,0.347,0.0,0.3266,0.3173,0.3074,0.307,0.0,0.0,0.0,0.0,0.0,0.0,0.3961,0.3926,0.3893,0.3993,0.0,0.4505,0.4922,0.5512,0.0,0.6764,0.7028,0.7346,0.7886,0.7866,0.7872,0.7983,0.7995,0.8013,0.807,0.8359,0.864,0.8855,0.9214,0.9692,1.0267,1.0503,1.0687,1.0808,1.0873,1.0897,1.0897,1.1022,1.1139,1.1254,1.1482,1.1681,1.1848,1.184,1.1747,1.1608,1.149,1.134,1.1224,1.1208,1.1115,1.0975,1.076,1.0577,1.036,1.0129,1.0034,1.0085,1.0267,1.0667,1.1092,1.1254,1.1421,1.1593,1.1593,1.1586,1.1578,1.1482,1.1459,1.1429,1.1339,1.1263,1.1178,1.1048,1.1055,1.1078,1.1055,1.1201,1.1362,1.1414,1.1556,1.1652,1.1717,1.1905,1.2047,1.2096,1.2192,1.2295,1.2343,1.3755,1.4678,1.4821,1.5959,1.6588,1.6588,1.6588,1.6588,1.6588,1.6554,1.6528,1.6562,1.6588,1.6588,1.6588,1.6657,1.6649,0.3255,0.3163,0.3043,0.2849,0.2714,0.2676,0.0,0.0,0.0,0.0,0.0,0.0,0.0,0.0,0.0,0.0,0.4026,0.0,0.0,0.0,0.5925,0.6494,0.6653,0.6885,0.739,0.7421,0.7414,0.7493,0.7559,0.7637,0.7758,0.7989,0.8246,0.85,0.8751,0.9203,0.9925,1.0154,1.0311,1.0373,1.0478,1.0478,1.0398,1.0496,1.0636,1.0811,1.0994,1.1272,1.1564,1.1437,1.1347,1.1249,1.0912,1.0685,1.0547,1.0456,1.0327,1.0165,0.9983,0.9759,0.953,0.9384,0.939,0.9484,0.9751,1.0141,1.0594,1.1062,1.1353,1.1519,1.1541,1.1541,1.1541,1.1474,1.1376,1.1277,1.1185,1.1092,1.0975,1.0832,1.0849,1.0897,1.0897,1.1045,1.1185,1.1231,1.1362,1.149,1.1541,1.1711,1.1841,1.1898,1.1997,1.2102,1.2249,1.3333,1.4153,1.4522,1.5539,1.6265,1.6538,1.6588,1.6588,1.6554,1.6482,1.6429,1.6394,1.6394,1.6402,1.6355,1.639,1.639,0.3256,0.3172,0.3061,0.2807,0.2627,0.2575,0.0,0.0,0.0,0.0,0.0,0.0,0.0,0.3796,0.0,0.0,0.0,0.0,0.4896,0.5239,0.5641,0.6226,0.6205,0.6351,0.6852,0.6862,0.6862,0.6941,0.7087,0.726,0.7471,0.7622,0.7821,0.8132,0.8292,0.8679,0.9334,0.9679,0.9861,0.9861,0.9976,0.9925,0.9757,0.9835,0.9983,1.0229,1.0404,1.0753,1.1178,1.0937,1.0842,1.075,1.0221,0.9894,0.9677,0.9476,0.9365,0.9274,0.9079,0.8865,0.8673,0.8679,0.8701,0.8827,0.9176,0.9496,0.9912,1.066,1.1078,1.133,1.1399,1.1421,1.1421,1.1399,1.1277,1.1115,1.1045,1.0951,1.0832,1.0712,1.076,1.0832,1.0897,1.0975,1.1069,1.1185,1.1277,1.1376,1.1496,1.1563,1.1667,1.1776,1.1848,1.197,1.2161,1.2776,1.3493,1.4279,1.5105,1.5837,1.6451,1.6535,1.6535,1.6448,1.639,1.6336,1.6238,1.6238,1.6226,1.6159,1.6159,1.6159,0.3277,0.3183,0.3072,0.2582,0.2482,0.2549,0.0,0.0,0.0,0.0,0.0,0.0,0.0,0.3996,0.3928,0.0,0.0,0.4476,0.0,0.0,0.5435,0.6115,0.6346,0.6683,0.7241,0.7156,0.7073,0.7146,0.7037,0.697,0.7,0.7125,0.7289,0.7447,0.771,0.794,0.8145,0.8821,0.9141,0.9141,0.9236,0.9189,0.905,0.9189,0.9433,0.9791,0.9944,1.026,1.0671,1.0317,1.009,0.9919,0.9389,0.9022,0.8777,0.8563,0.8425,0.8301,0.8278,0.8204,0.8107,0.806,0.8083,0.8187,0.8534,0.8833,0.9153,0.9687,1.0335,1.0897,1.0975,1.1022,1.1069,1.1022,1.092,1.0832,1.0784,1.076,1.0712,1.0712,1.076,1.0832,1.0897,1.0998,1.1115,1.1185,1.1353,1.1474,1.1496,1.1608,1.1689,1.1703,1.1826,1.197,1.2104,1.2274,1.2706,1.3513,1.475,1.5733,1.6386,1.6417,1.6363,1.6242,1.6242,1.6179,1.606,1.606,1.6032,1.6032,1.6032,1.6032,0.3192,0.3056,0.2948,0.2645,0.2611,0.2729,0.0,0.0,0.0,0.0,0.0,0.0,0.0,0.0,0.4183,0.4245,0.0,0.4602,0.4855,0.5042,0.5282,0.5653,0.5909,0.62,0.6509,0.6569,0.6633,0.6669,0.6638,0.6638,0.6673,0.6859,0.7005,0.7127,0.7285,0.7466,0.7676,0.8008,0.831,0.8578,0.8668,0.8607,0.8412,0.8584,0.8827,0.912,0.9292,0.9571,0.9926,0.955,0.9322,0.9138,0.8491,0.8029,0.7695,0.739,0.7268,0.7248,0.7286,0.7262,0.7237,0.7212,0.7237,0.7345,0.7666,0.7959,0.8277,0.8629,0.9492,1.0355,1.0496,1.0563,1.0636,1.0681,1.059,1.0541,1.059,1.0565,1.0565,1.0639,1.0736,1.0832,1.0944,1.1092,1.1231,1.1307,1.1444,1.1541,1.1541,1.163,1.1703,1.1754,1.1848,1.1941,1.2091,1.2133,1.2501,1.3357,1.4288,1.5121,1.578,1.574,1.5829,1.6151,1.6095,1.6039,1.5942,1.5942,1.5934,1.5898,1.5898,1.5898,0.319,0.3028,0.2926,0.281,0.0,0.2896,0.3158,0.0,0.0,0.0,0.0,0.0,0.0,0.4285,0.0,0.4596,0.4663,0.4759,0.4953,0.5112,0.5239,0.5306,0.5505,0.5697,0.5784,0.5994,0.6145,0.6141,0.6233,0.6333,0.6437,0.6568,0.6712,0.6863,0.6936,0.7095,0.7337,0.7362,0.7598,0.8043,0.8138,0.807,0.7859,0.8023,0.8241,0.8468,0.8634,0.8876,0.9147,0.8767,0.8513,0.8268,0.7555,0.6986,0.6579,0.6287,0.6217,0.6301,0.6409,0.6474,0.6443,0.6439,0.6466,0.6548,0.6781,0.7054,0.733,0.7637,0.8469,0.9354,0.9784,0.997,1.0103,1.0273,1.0268,1.0243,1.0393,1.0393,1.0399,1.0516,1.0663,1.0832,1.0998,1.1185,1.1369,1.1482,1.1601,1.1674,1.1696,1.1747,1.1797,1.1848,1.1891,1.197,1.2083,1.2104,1.2403,1.3101,1.3727,1.4365,1.503,1.508,1.5346,1.5803,1.5935,1.5934,1.5863,1.5892,1.5863,1.5835,1.5848,1.5856,0.3472,0.3239,0.3092,0.3068,0.0,0.0,0.3242,0.0,0.0,0.0,0.0,0.0,0.0,0.4543,0.4666,0.4928,0.496,0.5055,0.5249,0.5277,0.5309,0.5386,0.5456,0.5589,0.578,0.5881,0.5943,0.6025,0.6025,0.6095,0.6207,0.6238,0.6288,0.6443,0.6517,0.6647,0.6842,0.697,0.72,0.7544,0.7573,0.7519,0.744,0.7519,0.7729,0.805,0.8045,0.8225,0.8433,0.7969,0.7608,0.7238,0.6554,0.5952,0.5435,0.5446,0.554,0.5692,0.5955,0.6052,0.6021,0.5983,0.5924,0.5897,0.6025,0.6198,0.6376,0.6764,0.7116,0.7637,0.8728,0.9179,0.9445,0.9687,0.9835,0.9976,1.0097,1.0211,1.0331,1.0399,1.0565,1.0784,1.1045,1.1254,1.1482,1.1732,1.1826,1.1898,1.197,1.197,1.1991,1.1991,1.1991,1.2012,1.2083,1.2151,1.2249,1.2365,1.2991,1.3644,1.4244,1.4817,1.5072,1.498,1.5583,1.5863,1.5799,1.5863,1.59,1.5892,1.5962,1.6011,0.3633,0.3433,0.3333,0.3251,0.0,0.0,0.0,0.0,0.0,0.0,0.0,0.0,0.0,0.0,0.4928,0.5151,0.5186,0.5246,0.5404,0.5435,0.5432,0.5407,0.5467,0.5526,0.562,0.5728,0.5791,0.5874,0.587,0.5905,0.5943,0.6036,0.6095,0.6145,0.6325,0.6486,0.6621,0.6669,0.6786,0.6932,0.715,0.7214,0.715,0.7214,0.7328,0.7432,0.7393,0.7355,0.7311,0.6883,0.6545,0.6186,0.5453,0.4868,0.4497,0.4532,0.4555,0.4639,0.4808,0.4871,0.4859,0.4764,0.4741,0.4744,0.4798,0.5014,0.5258,0.5536,0.5841,0.6412,0.7795,0.83,0.849,0.8717,0.8876,0.9035,0.9239,0.9372,0.9516,0.9783,1.0002,1.023,1.0563,1.0859,1.1178,1.1452,1.1623,1.1747,1.1869,1.1941,1.202,1.2062,1.2112,1.2125,1.2151,1.2254,1.2363,1.2487,1.2572,1.2931,1.362,1.4189,1.4648,1.5023,1.5677,1.6019,1.5991,1.6047,1.6111,1.6151,1.6163,1.6219,0.3879,0.3685,0.3569,0.0,0.0,0.0,0.0,0.0,0.0,0.0,0.0,0.0,0.0,0.0,0.0,0.0,0.5202,0.5294,0.5481,0.5491,0.5463,0.5382,0.5407,0.5428,0.5393,0.5529,0.5631,0.5627,0.5655,0.5655,0.5655,0.5679,0.5738,0.5773,0.5986,0.611,0.618,0.6245,0.6333,0.6413,0.666,0.6807,0.6863,0.691,0.691,0.6902,0.6743,0.6518,0.6293,0.5852,0.5411,0.501,0.4355,0.3914,0.366,0.373,0.3754,0.3774,0.3941,0.3971,0.3896,0.3772,0.3739,0.3806,0.3844,0.41,0.4419,0.4677,0.4928,0.539,0.6528,0.71,0.7453,0.7723,0.7939,0.813,0.8417,0.8546,0.8706,0.9039,0.9292,0.9583,0.9932,1.034,1.0743,1.108,1.1326,1.1534,1.1703,1.1848,1.192,1.1991,1.2062,1.2117,1.2151,1.2254,1.2391,1.2562,1.2415,1.2543,1.3036,1.3814,1.4415,1.4868,1.5752,1.6199,1.6199,1.6289,1.6363,1.6409,1.6448,1.6535,0.4211,0.3956,0.378,0.0,0.0,0.0,0.0,0.0,0.0,0.0,0.0,0.4022,0.4084,0.4144,0.0,0.4828,0.5017,0.5205,0.5449,0.5491,0.5432,0.5309,0.5312,0.5242,0.5099,0.5289,0.5358,0.5312,0.5281,0.5281,0.5281,0.5169,0.5169,0.5277,0.5362,0.5421,0.5491,0.5686,0.5874,0.599,0.6041,0.6279,0.6591,0.6517,0.6478,0.6457,0.6064,0.572,0.5429,0.4894,0.429,0.3649,0.339,0.3128,0.2902,0.3107,0.32,0.322,0.3482,0.3451,0.3257,0.312,0.3086,0.312,0.3257,0.3558,0.3956,0.4285,0.4479,0.4631,0.4823,0.5581,0.6386,0.6776,0.7073,0.7376,0.7719,0.7876,0.8032,0.8155,0.8519,0.8896,0.9239,0.9671,1.0176,1.0698,1.1022,1.1303,1.1564,1.1659,1.1732,1.1797,1.1869,1.192,1.1991,1.2123,1.2295,1.2487,1.2557,1.258,1.2506,1.3794,1.4468,1.4397,1.5723,1.639,1.639,1.6543,1.6588,1.6615,1.6799,1.6952,0.4374,0.4134,0.0,0.0,0.0,0.0,0.0,0.0,0.0,0.0,0.3998,0.4022,0.4084,0.4111,0.0,0.47,0.4865,0.5065,0.5331,0.5397,0.533,0.5119,0.5052,0.4953,0.4759,0.475,0.475,0.4724,0.4698,0.4637,0.4532,0.457,0.457,0.4532,0.4814,0.4973,0.5008,0.5106,0.5201,0.5282,0.5115,0.546,0.6248,0.6133,0.5913,0.5619,0.5017,0.4503,0.3983,0.3505,0.3055,0.2699,0.2667,0.2505,0.2278,0.238,0.231,0.2206,0.2678,0.2406,0.1935,0.2171,0.207,0.1902,0.2341,0.2673,0.2972,0.314,0.3401,0.363,0.3749,0.4122,0.4656,0.5449,0.5852,0.6125,0.6415,0.6618,0.6849,0.7282,0.7574,0.7881,0.8306,0.8722,0.9221,0.9786,1.0269,1.0828,1.1505,1.1747,1.1848,1.1869,1.192,1.1991,1.1991,1.2123,1.2295,1.2487,1.2557,1.2638,1.27,1.3996,1.4682,1.4615,1.5962,1.6693,1.6693,1.6823,1.6917,1.701,1.7126,1.7224,0.4568,0.0,0.0,0.0,0.0,0.0,0.0,0.0,0.0,0.0,0.0,0.3627,0.3654,0.371,0.0,0.4341,0.4547,0.4781,0.5092,0.5204,0.5141,0.4826,0.473,0.4602,0.4342,0.4237,0.4137,0.404,0.3948,0.3851,0.3686,0.3721,0.3719,0.3616,0.3906,0.4035,0.4035,0.4097,0.4328,0.4622,0.4076,0.4119,0.4684,0.5004,0.4922,0.45,0.3693,0.2976,0.2386,0.2196,0.1934,0.1737,0.1939,0.1809,0.1578,0.1744,0.1678,0.1545,0.1879,0.161,0.114,0.1274,0.1208,0.1173,0.1609,0.2075,0.2474,0.2674,0.2975,0.3274,0.3364,0.3525,0.3851,0.4555,0.4998,0.531,0.5606,0.5851,0.6156,0.6531,0.6803,0.7123,0.753,0.7967,0.8491,0.9135,0.9919,1.0705,1.137,1.163,1.1776,1.1776,1.1812,1.1848,1.1869,1.1968,1.213,1.2338,1.2427,1.2538,1.2686,1.379,1.4499,1.4743,1.5831,1.6551,1.6881,1.7,1.7117,1.724,1.7361,1.7432,0.4802,0.0,0.0,0.0,0.0,0.0,0.274,0.2748,0.284,0.2864,0.0,0.2977,0.2977,0.3092,0.3356,0.3884,0.4154,0.443,0.4809,0.4925,0.4861,0.4529,0.4409,0.4221,0.3856,0.3721,0.3523,0.3192,0.3059,0.2925,0.2766,0.27,0.2633,0.2631,0.2766,0.2801,0.2733,0.2787,0.3149,0.3788,0.2832,0.2329,0.2297,0.3328,0.3568,0.3106,0.2127,0.1368,0.0802,0.097,0.0903,0.0736,0.1104,0.1107,0.0874,0.1139,0.1208,0.1178,0.1139,0.0939,0.0672,0.0403,0.0504,0.0773,0.1072,0.1638,0.2237,0.2634,0.294,0.321,0.3368,0.3467,0.3632,0.4016,0.443,0.4849,0.5147,0.5498,0.5749,0.5928,0.621,0.6517,0.6893,0.7379,0.7982,0.875,0.9919,1.0825,1.1178,1.1466,1.1608,1.1608,1.1623,1.163,1.1689,1.1754,1.1869,1.2033,1.2172,1.2323,1.2467,1.3323,1.4095,1.4778,1.5462,1.6184,1.6972,1.7124,1.7215,1.7306,1.7504,1.7589,0.0,0.4515,0.0,0.0,0.0,0.2618,0.237,0.228,0.237,0.2678,0.2743,0.2786,0.2832,0.2961,0.3212,0.3759,0.4001,0.427,0.4621,0.4771,0.4707,0.4377,0.4151,0.3826,0.3335,0.328,0.2948,0.2106,0.1803,0.1602,0.157,0.1537,0.1671,0.1976,0.2171,0.2032,0.1562,0.1422,0.1418,0.1517,0.0855,0.0526,0.0493,0.184,0.2011,0.1258,0.0665,0.0201,-0.0101,-0.0034,-0.0034,-0.0101,0.0201,0.0336,0.037,0.0604,0.0874,0.1077,0.0772,0.0369,-0.0034,-0.0235,-0.0101,0.0269,0.0739,0.1038,0.1337,0.1976,0.2247,0.238,0.2539,0.2775,0.3045,0.3337,0.3886,0.4401,0.4625,0.4884,0.5172,0.5484,0.5644,0.5893,0.6443,0.694,0.7757,0.9198,1.0191,1.0937,1.1385,1.1667,1.1812,1.1762,1.1805,1.1791,1.1623,1.1623,1.1659,1.1703,1.184,1.1997,1.2174,1.318,1.3999,1.4621,1.5352,1.6086,1.6831,1.6992,1.7101,1.7232,1.7432,1.7517,0.0,0.0,0.0,0.0,0.0,0.0,0.2136,0.2044,0.2086,0.2391,0.2526,0.2618,0.2642,0.2929,0.3286,0.3697,0.4083,0.4396,0.4521,0.464,0.4511,0.4021,0.3693,0.3266,0.2601,0.2341,0.1873,0.1104,0.0701,0.0467,0.0401,0.0334,0.0401,0.0601,0.0767,0.0666,0.0299,0.0066,-0.0198,-0.0463,-0.0892,-0.1157,-0.1225,-0.0033,0.0231,-0.0332,-0.0665,-0.1035,-0.1377,-0.104,-0.0939,-0.0972,-0.0804,-0.0637,-0.0403,-0.0302,-0.0,0.0302,0.0101,-0.0134,-0.0336,-0.0538,-0.0437,-0.0168,0.0168,0.047,0.0804,0.134,0.1741,0.2107,0.2341,0.2676,0.3012,0.3307,0.3728,0.4113,0.4406,0.4695,0.4982,0.5302,0.5428,0.5679,0.6241,0.7148,0.8194,0.9401,1.0229,1.0849,1.1263,1.1564,1.1747,1.1711,1.1733,1.1689,1.1519,1.1452,1.1422,1.1422,1.1534,1.1674,1.1805,1.2438,1.3313,1.4429,1.4789,1.5521,1.6623,1.6746,1.6892,1.701,1.7256,1.7368,0.0,0.0,0.0,0.0,0.0,0.0,0.194,0.1918,0.1936,0.2132,0.2335,0.2502,0.2562,0.2988,0.3406,0.3694,0.4228,0.4529,0.4419,0.4444,0.4175,0.3462,0.3068,0.2534,0.1733,0.1168,0.0635,0.0067,-0.0434,-0.0734,-0.0768,-0.0934,-0.1001,-0.0968,-0.0834,-0.0868,-0.1068,-0.1365,-0.1663,-0.1999,-0.2326,-0.2563,-0.2673,-0.1959,-0.1625,-0.1663,-0.1863,-0.2204,-0.2551,-0.2009,-0.1773,-0.1741,-0.1676,-0.1509,-0.1312,-0.1273,-0.1039,-0.0739,-0.0706,-0.0639,-0.0571,-0.0706,-0.0639,-0.0471,-0.0403,-0.0034,0.0437,0.0703,0.127,0.1904,0.224,0.2674,0.3072,0.3401,0.3663,0.3953,0.4347,0.4669,0.4953,0.5214,0.5463,0.5804,0.6364,0.7608,0.8772,0.9536,1.0198,1.0736,1.1092,1.1391,1.1578,1.1578,1.1578,1.1511,1.1353,1.1231,1.1139,1.1139,1.1254,1.1362,1.143,1.1623,1.2441,1.395,1.412,1.4823,1.6165,1.6435,1.6615,1.6763,1.701,1.7191,0.0,0.0,0.0,0.0,0.0,0.1667,0.0,0.0,0.185,0.0,0.2226,0.2498,0.2795,0.3136,0.3501,0.3897,0.4261,0.4403,0.4124,0.3918,0.3514,0.2657,0.2163,0.1565,0.0768,0.0267,-0.03,-0.0936,-0.1872,-0.2239,-0.1902,-0.2131,-0.2197,-0.2103,-0.1968,-0.2103,-0.2512,-0.2911,-0.2972,-0.2766,-0.3165,-0.3366,-0.3467,-0.3614,-0.3347,-0.2699,-0.2925,-0.3024,-0.2991,-0.2695,-0.2436,-0.2275,-0.2046,-0.2015,-0.2118,-0.1946,-0.1812,-0.1678,-0.1515,-0.1347,-0.1144,-0.0942,-0.0706,-0.0504,-0.0605,-0.0403,-0.0067,0.0201,0.0671,0.1141,0.1608,0.2107,0.2573,0.2902,0.3266,0.3726,0.4368,0.4669,0.4902,0.5176,0.5745,0.639,0.7059,0.8001,0.8919,0.9649,1.0285,1.0832,1.1208,1.1422,1.152,1.152,1.1468,1.1347,1.1162,1.1022,1.092,1.0849,1.092,1.1045,1.1224,1.1369,1.1862,1.2708,1.3579,1.441,1.519,1.5953,1.6394,1.6554,1.6763,1.6959,0.4628,0.0,0.0,0.0,0.0,0.1337,0.1361,0.0,0.1825,0.216,0.2398,0.2638,0.2907,0.3295,0.3653,0.3905,0.416,0.4292,0.4196,0.3523,0.2682,0.1792,0.1232,0.0633,-0.01,-0.0635,-0.1169,-0.1771,-0.2505,-0.2907,-0.2898,-0.303,-0.3064,-0.2968,-0.2803,-0.2806,-0.3012,-0.3212,-0.3239,-0.3128,-0.3294,-0.3429,-0.3567,-0.3981,-0.4011,-0.3811,-0.4001,-0.4001,-0.3839,-0.3449,-0.3063,-0.2773,-0.2512,-0.2414,-0.2414,-0.2311,-0.2243,-0.2177,-0.2046,-0.1778,-0.1444,-0.1342,-0.1142,-0.0942,-0.0841,-0.0571,-0.0235,0.0067,0.0604,0.1173,0.1677,0.2211,0.2711,0.3041,0.337,0.3763,0.4277,0.454,0.4861,0.5432,0.6048,0.6656,0.73,0.813,0.8915,0.9536,1.0084,1.0545,1.0873,1.1055,1.1187,1.1263,1.1279,1.1217,1.1069,1.0975,1.0832,1.0712,1.0784,1.0897,1.1022,1.1231,1.1521,1.1882,1.3134,1.4109,1.4821,1.5664,1.6116,1.6238,1.6455,1.6649,0.0,0.0,0.0,0.0,0.0866,0.0735,0.0,0.0,0.1732,0.0,0.2642,0.2816,0.3075,0.3461,0.3758,0.3804,0.4133,0.4194,0.3777,0.2754,0.1719,0.0797,0.0233,-0.0334,-0.0936,-0.1505,-0.2008,-0.2472,-0.3034,-0.3432,-0.3632,-0.3793,-0.3826,-0.3728,-0.3567,-0.3436,-0.337,-0.3239,-0.3169,-0.3196,-0.3194,-0.3263,-0.3434,-0.3921,-0.4307,-0.4625,-0.4817,-0.4817,-0.4622,-0.41,-0.3619,-0.3235,-0.2874,-0.2676,-0.2578,-0.2543,-0.2509,-0.2408,-0.2373,-0.2106,-0.1774,-0.1742,-0.1577,-0.1346,-0.1076,-0.074,-0.0336,-0.0,0.0603,0.1305,0.1845,0.2347,0.2814,0.3179,0.344,0.3798,0.4318,0.4634,0.5011,0.5742,0.6321,0.6889,0.7506,0.8202,0.8883,0.939,0.9855,1.0217,1.0492,1.0712,1.0873,1.1022,1.1092,1.1092,1.0975,1.0897,1.0784,1.0614,1.0687,1.0784,1.0873,1.1115,1.1307,1.1399,1.2636,1.3664,1.4367,1.5302,1.582,1.5896,1.6171,1.6363,0.0,0.0,0.0,0.0,0.0,0.0,0.0,0.0,0.1462,0.2636,0.2829,0.2929,0.34,0.364,0.3764,0.363,0.4257,0.4144,0.2355,0.1359,0.0498,-0.0334,-0.0902,-0.1372,-0.181,-0.2312,-0.2746,-0.3039,-0.3686,-0.4046,-0.4064,-0.4377,-0.4473,-0.4353,-0.4283,-0.4118,-0.3856,-0.3368,-0.3037,-0.2933,-0.2865,-0.2968,-0.3241,-0.3765,-0.4312,-0.4887,-0.5147,-0.5207,-0.5036,-0.4552,-0.41,-0.3616,-0.3095,-0.284,-0.2782,-0.2714,-0.2611,-0.2509,-0.2475,-0.2374,-0.224,-0.2114,-0.1845,-0.1543,-0.1346,-0.0908,-0.0403,-0.0,0.057,0.1238,0.1777,0.2211,0.2608,0.3008,0.3303,0.3728,0.4581,0.5081,0.5512,0.6002,0.6553,0.7157,0.7777,0.8321,0.8855,0.9322,0.9692,1.0008,1.0274,1.0498,1.0663,1.0808,1.0873,1.0897,1.0832,1.076,1.0687,1.059,1.0614,1.0663,1.0808,1.0998,1.1208,1.1399,1.2103,1.2805,1.3471,1.4782,1.5492,1.5623,1.5841,1.6075,0.0,0.0,0.0,-0.0479,-0.1394,-0.1939,-0.1485,-0.0855,-0.0064,0.1015,0.1544,0.2031,0.2675,0.3171,0.3452,0.3346,0.331,0.2836,0.16,0.0735,-0.01,-0.1074,-0.1577,-0.1944,-0.2245,-0.2874,-0.3368,-0.3597,-0.424,-0.4628,-0.4605,-0.4765,-0.4765,-0.4538,-0.4379,-0.4053,-0.3506,-0.3111,-0.281,-0.2572,-0.257,-0.2673,-0.2911,-0.3436,-0.3951,-0.4395,-0.466,-0.495,-0.5176,-0.4686,-0.4205,-0.3786,-0.33,-0.3041,-0.2977,-0.2874,-0.2806,-0.2772,-0.2841,-0.2775,-0.2611,-0.2515,-0.2213,-0.1845,-0.1544,-0.1075,-0.0605,-0.0101,0.0504,0.1141,0.1846,0.2279,0.2608,0.3111,0.344,0.3765,0.4312,0.5008,0.5696,0.626,0.6798,0.7359,0.7883,0.8372,0.8855,0.9274,0.9546,0.9808,1.0085,1.0249,1.0424,1.0639,1.0736,1.0808,1.0849,1.0808,1.0712,1.0614,1.0565,1.059,1.0663,1.0849,1.1115,1.1399,1.2019,1.2679,1.3342,1.4203,1.487,1.5336,1.5522,1.5711,0.2831,0.0,0.0,0.0,0.0,-0.3488,-0.34,-0.2646,-0.1665,-0.0624,0.0275,0.113,0.2001,0.2428,0.2724,0.2905,0.2568,0.2004,0.1136,0.0235,-0.0706,-0.1616,-0.2146,-0.2572,-0.2869,-0.3591,-0.4116,-0.4269,-0.4814,-0.5106,-0.5049,-0.5084,-0.4985,-0.4672,-0.4444,-0.4053,-0.3504,-0.3043,-0.2711,-0.2509,-0.2376,-0.2411,-0.2611,-0.3074,-0.3462,-0.3844,-0.4075,-0.4497,-0.4985,-0.4526,-0.4108,-0.3758,-0.327,-0.3072,-0.3004,-0.2873,-0.2838,-0.284,-0.2975,-0.2913,-0.2784,-0.2749,-0.248,-0.2146,-0.181,-0.1341,-0.0873,-0.0402,0.0168,0.0805,0.1575,0.2109,0.2509,0.2806,0.3171,0.3497,0.3841,0.4703,0.5595,0.6233,0.6824,0.7379,0.7883,0.8349,0.8762,0.9178,0.9393,0.9599,0.9899,1.0059,1.0243,1.0474,1.059,1.0712,1.0784,1.076,1.0687,1.0541,1.0474,1.0449,1.0498,1.0687,1.0975,1.1277,1.1715,1.2363,1.3229,1.3798,1.4413,1.5093,1.5209,1.5433,0.0,0.0,0.0,0.0,0.0,0.0,-0.5557,0.0,-0.3273,-0.2135,-0.0959,0.0238,0.1378,0.1422,0.1497,0.2165,0.2164,0.1802,0.1002,-0.0235,-0.1312,-0.1914,-0.2633,-0.3253,-0.3679,-0.443,-0.4944,-0.5026,-0.5373,-0.5512,-0.5312,-0.5362,-0.5207,-0.4809,-0.4476,-0.4183,-0.3921,-0.3263,-0.2838,-0.2714,-0.2315,-0.2213,-0.2408,-0.2681,-0.2975,-0.3292,-0.3429,-0.3851,-0.443,-0.41,-0.3816,-0.3534,-0.3068,-0.29,-0.2869,-0.2746,-0.2681,-0.2714,-0.2782,-0.2784,-0.2784,-0.2817,-0.2613,-0.2374,-0.2181,-0.1743,-0.1271,-0.0936,-0.0401,0.02,0.0902,0.167,0.2237,0.2102,0.2433,0.2862,0.3176,0.4146,0.5181,0.5937,0.6635,0.7262,0.7777,0.8223,0.8634,0.9032,0.9211,0.9414,0.9756,0.997,1.0148,1.0274,1.0474,1.0583,1.059,1.059,1.0516,1.0399,1.0324,1.0274,1.0274,1.0474,1.0729,1.1062,1.1162,1.1819,1.3088,1.3544,1.4155,1.4902,1.4959,1.5292,0.0329,0.0,0.0,0.0,0.0,0.0,-0.6693,0.0,-0.566,-0.461,-0.3636,-0.2613,-0.1474,-0.1442,-0.1321,-0.0539,0.046,0.1039,0.0671,0.0034,-0.0705,-0.1609,-0.2268,-0.2985,-0.3839,-0.4561,-0.5109,-0.5408,-0.5731,-0.5835,-0.5655,-0.5306,-0.5052,-0.4861,-0.4543,-0.4253,-0.3958,-0.356,-0.3167,-0.2838,-0.2646,-0.2581,-0.2681,-0.2808,-0.3006,-0.3237,-0.3204,-0.3266,-0.3358,-0.3362,-0.3233,-0.3068,-0.2739,-0.2674,-0.2742,-0.2542,-0.251,-0.2578,-0.2681,-0.2749,-0.2815,-0.2841,-0.2775,-0.2646,-0.2445,-0.2208,-0.1973,-0.1809,-0.1339,-0.0735,0.01,0.0768,0.1202,0.1235,0.1604,0.2004,0.2296,0.3014,0.4017,0.5352,0.6167,0.6845,0.7384,0.7854,0.8292,0.8756,0.9036,0.9339,0.9605,0.9782,0.9925,1.0085,1.0122,1.023,1.0374,1.0336,1.0267,1.0198,1.0034,0.9912,0.9866,0.9957,1.0198,1.0581,1.0653,1.1319,1.2588,1.292,1.3674,1.477,1.5018,1.5314,0.0,0.0,0.0,0.0,0.0,0.0,-0.7859,-0.7771,-0.7378,-0.6394,-0.5586,-0.4726,-0.3613,-0.3526,-0.3378,-0.2659,-0.1687,-0.073,0.0099,-0.0335,-0.1106,-0.2146,-0.2601,-0.3218,-0.4167,-0.4817,-0.5327,-0.5692,-0.589,-0.5936,-0.576,-0.5404,-0.5147,-0.5014,-0.4736,-0.445,-0.4215,-0.3891,-0.353,-0.32,-0.3072,-0.301,-0.2981,-0.3103,-0.3169,-0.3208,-0.314,-0.3006,-0.2806,-0.2777,-0.2709,-0.2638,-0.2411,-0.2444,-0.2577,-0.2475,-0.254,-0.2674,-0.281,-0.2913,-0.2979,-0.3006,-0.2975,-0.2913,-0.2845,-0.2707,-0.2539,-0.2444,-0.2077,-0.1541,-0.0735,-0.0267,0.0033,0.0201,0.0603,0.1037,0.1301,0.2029,0.3078,0.459,0.5477,0.6167,0.6815,0.732,0.7815,0.8361,0.8723,0.9064,0.9426,0.9579,0.9704,0.9828,0.9854,0.9931,1.0072,1.0059,0.9995,0.9951,0.977,0.9619,0.9499,0.9546,0.9706,0.9983,1.0134,1.0814,1.2046,1.2382,1.3238,1.455,1.4818,1.5095,0.0,0.0,0.0,0.0,-0.8228,0.0,-0.8956,-0.8922,-0.8584,-0.7716,-0.7076,-0.6377,-0.5362,-0.526,-0.512,-0.4503,-0.4204,-0.3185,-0.0756,-0.1109,-0.201,-0.3063,-0.3212,-0.3561,-0.4465,-0.5008,-0.5477,-0.5855,-0.5955,-0.5908,-0.5704,-0.5564,-0.5397,-0.5207,-0.4963,-0.4736,-0.4561,-0.4245,-0.3958,-0.3698,-0.363,-0.3532,-0.3337,-0.3497,-0.3464,-0.3274,-0.3173,-0.3006,-0.2746,-0.2485,-0.2315,-0.2275,-0.2147,-0.2213,-0.2408,-0.2475,-0.2707,-0.297,-0.3105,-0.3206,-0.3274,-0.3307,-0.3272,-0.3239,-0.3342,-0.3204,-0.2999,-0.297,-0.2678,-0.2215,-0.1573,-0.1304,-0.1105,-0.0839,-0.0403,0.0067,0.0334,0.1167,0.2293,0.3693,0.4596,0.5401,0.6195,0.673,0.7286,0.7949,0.8344,0.8756,0.9193,0.9372,0.9517,0.9558,0.9632,0.9684,0.9756,0.9756,0.973,0.9684,0.9534,0.9348,0.9129,0.9172,0.9235,0.9334,0.9632,1.0346,1.143,1.1958,1.289,1.4222,1.4413,1.4735,0.0,0.0,0.0,0.0,-0.9034,0.0,-0.9591,-0.9649,-0.9539,-0.9085,-0.8724,-0.8301,-0.7655,-0.7766,-0.773,-0.7013,-0.6855,-0.5605,-0.2147,-0.1661,-0.205,-0.3087,-0.2843,-0.3037,-0.4159,-0.4529,-0.5004,-0.5776,-0.5932,-0.5908,-0.5704,-0.5526,-0.5362,-0.5277,-0.5058,-0.4925,-0.482,-0.4692,-0.4561,-0.4406,-0.4336,-0.4272,-0.424,-0.4075,-0.3918,-0.3828,-0.3532,-0.3331,-0.3165,-0.2845,-0.2482,-0.2147,-0.2047,-0.2178,-0.2408,-0.2611,-0.2878,-0.3173,-0.3403,-0.363,-0.3791,-0.3884,-0.3888,-0.3828,-0.3916,-0.3819,-0.3628,-0.3307,-0.3008,-0.2706,-0.2273,-0.1976,-0.1676,-0.1407,-0.1007,-0.0605,-0.0235,0.0469,0.1335,0.2328,0.3702,0.4979,0.5773,0.6401,0.6995,0.7603,0.8127,0.8578,0.892,0.9187,0.936,0.9434,0.9461,0.9493,0.9564,0.9564,0.9532,0.9461,0.9286,0.9042,0.8734,0.8684,0.8706,0.8822,0.9471,1.0197,1.0951,1.1846,1.2769,1.3742,1.3828,1.4193,0.0,0.0,-0.8889,-0.9256,-0.96,0.0,0.0,-0.998,-0.994,-0.9742,-0.9569,-0.9353,-0.9052,-0.9139,-0.9072,-0.8535,-0.8255,-0.7285,-0.4978,-0.3817,-0.333,-0.3705,-0.3253,-0.3277,-0.4224,-0.4286,-0.453,-0.5236,-0.5529,-0.5589,-0.5404,-0.5428,-0.5365,-0.5154,-0.5055,-0.4963,-0.4864,-0.4915,-0.4912,-0.4849,-0.4912,-0.488,-0.4759,-0.4535,-0.4281,-0.3959,-0.3849,-0.3637,-0.3389,-0.3295,-0.3103,-0.281,-0.2411,-0.2409,-0.2673,-0.2972,-0.3333,-0.3693,-0.3926,-0.4086,-0.4207,-0.4269,-0.4245,-0.4218,-0.4245,-0.4083,-0.3826,-0.3536,-0.3237,-0.2939,-0.2676,-0.2376,-0.211,-0.1945,-0.1577,-0.1242,-0.0972,-0.0234,0.06,0.1431,0.272,0.3968,0.5011,0.5699,0.6309,0.694,0.7559,0.8112,0.859,0.8926,0.9155,0.9328,0.9354,0.9387,0.9446,0.9399,0.9345,0.9307,0.9036,0.8762,0.8409,0.8352,0.8437,0.864,0.9023,0.9638,1.0559,1.0926,1.176,1.3032,1.3117,1.351,-0.9111,-0.9406,-0.9568,-0.9767,-0.995,-1.0081,0.0,0.0,0.0,-0.9994,-0.9937,-0.9881,-0.9808,-0.9791,-0.9693,-0.9421,-0.9035,-0.8511,-0.7734,-0.6284,-0.507,-0.4467,-0.3779,-0.3588,-0.4144,-0.4031,-0.4122,-0.4571,-0.4978,-0.5159,-0.5053,-0.5297,-0.5302,-0.4992,-0.4992,-0.4931,-0.4806,-0.5046,-0.5194,-0.5229,-0.5421,-0.5362,-0.5116,-0.4899,-0.4502,-0.3973,-0.4061,-0.3933,-0.3645,-0.3792,-0.3851,-0.3758,-0.3003,-0.2838,-0.3066,-0.3432,-0.3819,-0.4172,-0.4379,-0.4505,-0.4593,-0.4625,-0.4567,-0.4482,-0.4417,-0.4188,-0.3891,-0.3665,-0.337,-0.3074,-0.288,-0.2644,-0.2442,-0.235,-0.2046,-0.1709,-0.1541,-0.0836,0.0033,0.0832,0.1763,0.2858,0.4237,0.5008,0.5606,0.624,0.6901,0.7559,0.8179,0.8612,0.8975,0.9274,0.9334,0.936,0.9408,0.9265,0.9157,0.9097,0.8811,0.8477,0.813,0.8153,0.8296,0.8567,0.86,0.9113,1.0163,0.9983,1.0777,1.2389,1.2431,1.2834,-0.918,-0.9443,-0.9636,-0.9841,-0.9949,-0.9999,-0.9942,0.0,-0.9925,-0.9911,0.0,-0.9881,-0.9811,0.0,0.0,-0.9662,-0.9511,-0.9255,-0.8863,-0.8023,-0.6771,-0.4958,-0.3841,-0.3275,-0.3418,-0.3547,-0.3722,-0.3905,-0.4502,-0.4857,-0.4828,-0.5031,-0.5071,-0.4922,-0.4918,-0.4918,-0.489,-0.5201,-0.5484,-0.5714,-0.5815,-0.5749,-0.5505,-0.5036,-0.458,-0.4178,-0.4124,-0.4121,-0.4154,-0.44,-0.4561,-0.459,-0.3721,-0.3434,-0.3532,-0.3761,-0.4051,-0.4309,-0.4503,-0.4695,-0.4884,-0.5077,-0.4982,-0.4791,-0.4479,-0.4221,-0.3926,-0.3665,-0.3405,-0.314,-0.2937,-0.2775,-0.2611,-0.2442,-0.2178,-0.1879,-0.1574,-0.1039,-0.0402,0.0401,0.1035,0.203,0.3772,0.461,0.5219,0.5626,0.6259,0.6947,0.7681,0.8271,0.8833,0.9343,0.9375,0.9414,0.9485,0.9201,0.8944,0.8778,0.8505,0.82,0.7855,0.8023,0.8228,0.8493,0.8572,0.8942,0.9591,0.9809,1.0602,1.1982,1.1982,1.2336,-0.9799,-0.9905,-1.0114,-1.0306,-1.0089,-0.9822,-0.9788,-0.9785,-0.9769,-0.9739,0.0,0.0,0.0,0.0,0.0,0.0,-0.9491,-0.944,-0.9257,-0.8736,-0.7749,-0.6052,-0.4762,-0.3782,-0.3235,-0.3327,-0.3454,-0.3505,-0.3961,-0.4351,-0.4623,-0.4745,-0.479,-0.4721,-0.4692,-0.4663,-0.4608,-0.5008,-0.5355,-0.562,-0.5655,-0.5554,-0.5285,-0.4715,-0.4238,-0.3854,-0.4053,-0.4238,-0.4417,-0.4952,-0.5289,-0.5411,-0.508,-0.4709,-0.4371,-0.4438,-0.4538,-0.4611,-0.4675,-0.4733,-0.4727,-0.4823,-0.4759,-0.4628,-0.432,-0.4026,-0.3733,-0.3506,-0.3239,-0.3004,-0.2876,-0.2779,-0.2646,-0.2509,-0.2211,-0.1981,-0.1981,-0.1242,-0.047,-0.0134,0.0669,0.1637,0.2664,0.354,0.4215,0.4671,0.5265,0.5937,0.6721,0.739,0.8065,0.8734,0.8844,0.8932,0.9031,0.8717,0.8437,0.8241,0.7869,0.7642,0.7627,0.7787,0.8042,0.8421,0.8589,0.8989,0.968,0.9708,1.0374,1.1594,1.1701,1.2096,-1.0632,-1.0663,-1.0832,-1.1012,-1.0509,-0.9977,-0.997,-0.9805,-0.9634,-0.9586,-0.9572,0.0,0.0,0.0,0.0,0.0,0.0,-0.937,-0.9401,-0.9131,-0.8404,-0.6968,-0.5348,-0.399,-0.3074,-0.31,-0.3193,-0.3241,-0.3615,-0.3977,-0.431,-0.4496,-0.452,-0.4423,-0.4431,-0.4406,-0.4323,-0.4788,-0.5131,-0.5393,-0.5393,-0.5229,-0.4935,-0.4366,-0.3896,-0.3555,-0.3982,-0.4326,-0.4652,-0.541,-0.5909,-0.616,-0.624,-0.5933,-0.5418,-0.5109,-0.4928,-0.4806,-0.4739,-0.464,-0.4538,-0.4538,-0.4468,-0.4368,-0.4156,-0.3866,-0.3602,-0.3407,-0.3173,-0.2972,-0.2845,-0.2777,-0.2711,-0.2543,-0.2245,-0.2049,-0.2185,-0.1343,-0.0571,-0.0571,0.0302,0.1207,0.1577,0.2531,0.3412,0.3879,0.4424,0.5045,0.5795,0.6452,0.7143,0.791,0.8114,0.8261,0.8378,0.8127,0.7845,0.7593,0.7221,0.7116,0.7337,0.753,0.7869,0.8336,0.8606,0.9029,0.9684,0.9764,1.0269,1.1172,1.141,1.1898,-1.1642,-1.1702,-1.1785,-1.1923,-1.1313,-1.0667,-1.0675,-1.0069,-0.9499,-0.9499,-0.9499,-0.9465,-0.9322,0.0,0.0,0.0,0.0,0.0,0.0,-0.9335,-0.8786,-0.7442,-0.5178,-0.3467,-0.277,-0.2764,-0.2899,-0.3094,-0.3602,-0.3906,-0.3916,-0.4281,-0.4367,-0.4043,-0.4218,-0.4253,-0.4099,-0.4564,-0.4909,-0.5099,-0.5099,-0.4931,-0.4602,-0.414,-0.3739,-0.3426,-0.3914,-0.4351,-0.4856,-0.5717,-0.634,-0.6777,-0.6923,-0.6902,-0.6699,-0.5683,-0.5119,-0.4855,-0.4593,-0.447,-0.4385,-0.4315,-0.4277,-0.4178,-0.4056,-0.3866,-0.367,-0.3532,-0.3337,-0.314,-0.2935,-0.29,-0.2836,-0.2573,-0.2245,-0.2014,-0.2014,-0.1377,-0.0807,-0.0807,-0.0067,0.0571,0.0706,0.1937,0.3066,0.3532,0.3916,0.4384,0.5035,0.5611,0.6203,0.6885,0.7251,0.7497,0.7617,0.7448,0.7173,0.6755,0.66,0.6643,0.6915,0.7303,0.772,0.8187,0.8606,0.8992,0.9426,0.999,1.0375,1.0532,1.1078,1.1711,-1.2743,-1.264,-1.2681,-1.2779,-1.2138,-1.1507,-1.1548,-1.1349,-1.1168,-1.1214,-1.0757,-1.033,-1.0241,0.0,0.0,0.0,0.0,0.0,0.0,-0.8162,-0.7812,-0.7354,-0.572,-0.4318,-0.3512,-0.3298,-0.3226,-0.3302,-0.3636,-0.3892,-0.4015,-0.4163,-0.4202,-0.4123,-0.4126,-0.4091,-0.4029,-0.4277,-0.4494,-0.4718,-0.4558,-0.4363,-0.4137,-0.3695,-0.3498,-0.3497,-0.3913,-0.4506,-0.5243,-0.6044,-0.6708,-0.7299,-0.752,-0.7549,-0.7383,-0.6382,-0.5727,-0.5188,-0.4523,-0.4344,-0.4385,-0.4223,-0.428,-0.4368,-0.4178,-0.4145,-0.411,-0.3891,-0.3693,-0.346,-0.3227,-0.3134,-0.3041,-0.2746,-0.2479,-0.2178,-0.1911,-0.1407,-0.1039,-0.111,-0.0536,0.0033,0.0201,0.097,0.1834,0.2634,0.29,0.3222,0.3764,0.4093,0.4511,0.5178,0.5629,0.6017,0.637,0.635,0.6252,0.6187,0.6133,0.6264,0.6612,0.6966,0.7412,0.7918,0.8377,0.885,0.9334,0.9638,1.0034,1.0578,1.063,1.1176,-1.3678,-1.3554,-1.3584,-1.3655,-1.3021,-1.2426,-1.2479,-1.2279,-1.2105,-1.2194,-1.174,-1.1318,-1.1276,0.0,0.0,0.0,0.0,0.0,0.0,-0.79,-0.7828,-0.773,-0.6295,-0.4986,-0.4135,-0.3805,-0.3612,-0.3549,-0.3689,-0.3776,-0.3804,-0.382,-0.3809,-0.382,-0.3725,-0.3721,-0.3826,-0.4018,-0.421,-0.4436,-0.4245,-0.4053,-0.3828,-0.3506,-0.3438,-0.3565,-0.3948,-0.4613,-0.5501,-0.6209,-0.6918,-0.7564,-0.7908,-0.8052,-0.7937,-0.7063,-0.6267,-0.5529,-0.4776,-0.4535,-0.4543,-0.4415,-0.4535,-0.4718,-0.4654,-0.4706,-0.4795,-0.4552,-0.4355,-0.4124,-0.3774,-0.3621,-0.3469,-0.3144,-0.2906,-0.2636,-0.237,-0.1968,-0.1737,-0.1944,-0.157,-0.11,-0.0736,-0.0267,0.0533,0.1838,0.2311,0.2578,0.2763,0.2882,0.3092,0.3522,0.404,0.4595,0.5248,0.531,0.5421,0.5578,0.5668,0.5917,0.6325,0.6725,0.7205,0.7797,0.8264,0.8789,0.9381,0.9505,0.9841,1.0357,1.0351,1.0696]},{"header":{"parameterUnit":"m.s-1","parameterCategory":1,"la1":30.6,"la2":29.2853,"lo1":-89.7004,"lo2":-87.6739,"dy":0.0162,"dx":0.0183,"nx":112,"ny":82,"refTime":"2023-07-25T12:00:00:Z","depth":0,"parameterNumber":3,"parameterNumberName":"V-component_of_WINDS"},"data":[0.0,0.0,0.0,0.0,0.0,0.0,0.0,0.0,0.0,0.0,0.0,0.0,0.0,0.0,0.0,0.0,0.0,0.0,0.0,0.0,0.0,0.0,0.0,0.0,0.0,0.0,0.0,0.0,0.0,0.0,0.0,0.0,0.0,0.0,0.0,0.0,0.0,0.0,0.0,0.0,0.0,0.0,0.0,0.0,0.0,0.0,0.0,0.0,0.0,0.0,0.0,0.0,0.0,0.0,0.0,0.0,0.0,0.0,0.0,0.0,0.0,0.0,0.0,0.0,0.0,0.0,0.0,0.0,0.0,0.0,0.0,0.0,0.0,0.0,0.0,0.0,0.0,0.0,0.0,0.0,0.0,0.0,0.0,0.0,0.0,0.0,0.0,0.0,0.0,0.0,-1.0862,-1.0743,-1.0699,-1.0357,-0.9534,-0.9109,-0.8334,-0.7125,0.0,0.0,0.0,0.0,0.0,0.0,0.0,0.0,0.0,0.0,0.0,0.0,0.0,0.0,0.0,0.0,0.0,0.0,0.0,0.0,0.0,0.0,0.0,0.0,0.0,0.0,0.0,0.0,0.0,0.0,0.0,0.0,0.0,0.0,0.0,0.0,0.0,0.0,0.0,0.0,0.0,0.0,0.0,0.0,0.0,0.0,0.0,0.0,0.0,0.0,0.0,0.0,0.0,0.0,0.0,0.0,0.0,0.0,0.0,0.0,0.0,0.0,0.0,0.0,0.0,0.0,0.0,0.0,0.0,0.0,0.0,0.0,0.0,0.0,0.0,0.0,0.0,0.0,0.0,0.0,0.0,0.0,0.0,0.0,0.0,0.0,0.0,0.0,0.0,0.0,0.0,0.0,0.0,0.0,0.0,0.0,0.0,0.0,0.0,0.0,0.0,0.0,0.0,0.0,-1.1188,-1.173,-1.1825,-1.1547,-1.0804,-1.0035,-0.9072,-0.7753,0.0,0.0,0.0,0.0,0.0,0.0,0.0,0.0,0.0,0.0,0.0,0.0,0.0,0.0,0.0,0.0,0.0,0.0,0.0,0.0,0.0,0.0,0.0,0.0,0.0,0.0,0.0,0.0,0.0,0.0,0.0,0.0,0.0,0.0,0.0,0.0,0.0,0.0,0.0,0.0,0.0,0.0,0.0,0.0,0.0,0.0,0.0,0.0,0.0,0.0,0.0,0.0,0.0,0.0,0.0,0.0,0.0,0.0,0.0,0.0,0.0,0.0,0.0,0.0,0.0,0.0,0.0,0.0,0.0,0.0,0.0,0.0,0.0,0.0,0.0,0.0,0.0,0.0,0.0,0.0,0.0,0.0,0.0,0.0,0.0,0.0,0.0,0.0,0.0,0.0,0.0,0.0,0.0,0.0,0.0,0.0,0.0,0.0,0.0,0.0,0.0,0.0,0.0,-1.1216,-1.1672,-1.2418,-1.2365,-1.1918,-1.1119,-1.0281,-0.924,-0.7929,-0.668,0.0,0.0,0.0,0.0,0.0,0.0,0.0,0.0,0.0,0.0,0.0,0.0,0.0,0.0,0.0,0.0,0.0,0.0,0.0,0.0,0.0,0.0,0.0,0.0,0.0,0.0,0.0,0.0,0.0,0.0,0.0,0.0,0.0,0.0,0.0,0.0,0.0,0.0,0.0,0.0,0.0,0.0,0.0,0.0,0.0,0.0,0.0,0.0,0.0,0.0,0.0,0.0,0.0,0.0,0.0,0.0,0.0,0.0,0.0,0.0,0.0,0.0,0.0,0.0,0.0,0.0,0.0,0.0,0.0,0.0,0.0,0.0,0.0,0.0,0.0,0.0,0.0,0.0,0.0,0.0,0.0,0.0,0.0,0.0,0.0,0.0,0.0,0.0,0.0,0.0,0.0,0.0,0.0,0.0,0.0,0.0,0.0,0.0,0.0,0.0,0.0,0.0,-1.1987,-1.2184,-1.2867,-1.2656,-1.2148,-1.1375,-1.0437,-0.9335,-0.8016,-0.6785,0.0,0.0,0.0,0.0,0.0,0.0,0.0,0.0,0.0,0.0,0.0,0.0,0.0,0.0,0.0,0.0,0.0,0.0,0.0,0.0,0.0,0.0,0.0,0.0,0.0,0.0,0.0,0.0,0.0,0.0,0.0,0.0,0.0,0.0,0.0,0.0,0.0,0.0,0.0,0.0,0.0,0.0,0.0,0.0,0.0,0.0,0.0,0.0,0.0,0.0,0.0,0.0,0.0,0.0,0.0,0.0,0.0,0.0,0.0,0.0,0.0,0.0,0.0,0.0,0.0,0.0,0.0,0.0,0.0,0.0,0.0,0.0,0.0,0.0,0.0,0.0,0.0,0.0,0.0,0.0,0.0,0.0,0.0,0.0,0.0,0.0,0.0,0.0,0.0,0.0,0.0,0.0,0.0,0.0,0.0,0.0,0.0,0.0,0.0,0.0,0.0,0.0,-1.2379,-1.2665,-1.3038,-1.285,-1.2467,-1.19,-1.0816,-0.955,-0.8089,-0.679,0.0,0.0,0.0,0.0,0.0,0.0,0.0,0.0,0.0,0.0,0.0,0.0,0.0,0.0,0.0,0.0,0.0,0.0,0.0,0.0,0.0,0.0,0.0,0.0,0.0,0.0,0.0,0.0,0.0,0.0,0.0,0.0,0.0,0.0,0.0,0.0,0.0,0.0,0.0,0.0,0.0,0.0,0.0,0.0,0.0,0.0,0.0,0.0,0.0,0.0,0.0,0.0,0.0,0.0,0.0,0.0,0.0,0.0,0.0,0.0,0.0,0.0,0.0,0.0,0.0,0.0,0.0,0.0,0.0,0.0,0.0,0.0,0.0,0.0,0.0,0.0,0.0,0.0,0.0,0.0,0.0,0.0,0.0,0.0,0.0,0.0,0.0,0.0,0.0,0.0,0.0,0.0,0.0,0.0,0.0,0.0,0.0,0.0,0.0,0.0,0.0,0.0,-1.2583,-1.2884,-1.3148,-1.2914,-1.2585,-1.2132,-1.0934,-0.9759,-0.8682,0.0,0.0,0.0,0.0,0.0,0.0,0.0,0.0,0.0,0.0,0.0,0.0,0.0,0.0,0.0,0.0,0.0,0.0,0.0,0.0,0.0,0.0,0.0,0.0,0.0,0.0,0.0,0.0,0.0,0.0,0.0,0.0,0.0,0.0,0.0,0.0,0.0,0.0,0.0,0.0,0.0,0.0,0.0,0.0,0.0,0.0,0.0,0.0,0.0,0.0,0.0,0.0,0.0,0.0,0.0,0.0,0.0,0.0,0.0,0.0,0.0,0.0,0.0,0.0,0.0,0.0,0.0,0.0,0.0,0.0,0.0,0.0,0.0,0.0,0.0,0.0,0.0,0.0,0.0,0.0,0.0,0.0,0.0,0.0,0.0,0.0,0.0,0.0,0.0,0.0,0.0,0.0,0.0,0.0,0.0,0.0,0.0,0.0,0.0,0.0,0.0,0.0,-1.2209,-1.29,-1.3233,-1.3251,-1.3053,-1.2691,-1.224,-1.1149,-1.0063,-0.9075,0.0,0.0,0.0,0.0,0.0,0.0,0.0,0.0,0.0,0.0,0.0,0.0,0.0,0.0,0.0,0.0,0.0,0.0,0.0,0.0,0.0,0.0,0.0,0.0,0.0,0.0,0.0,0.0,0.0,0.0,0.0,0.0,0.0,0.0,0.0,0.0,0.0,0.0,0.0,0.0,0.0,0.0,0.0,0.0,0.0,0.0,0.0,0.0,0.0,0.0,0.0,0.0,0.0,0.0,0.0,0.0,0.0,0.0,0.0,0.0,0.0,0.0,0.0,0.0,0.0,0.0,0.0,0.0,0.0,0.0,0.0,0.0,0.0,0.0,0.0,0.0,0.0,0.0,0.0,0.0,0.0,0.0,0.0,0.0,0.0,0.0,0.0,0.0,0.0,0.0,0.0,0.0,0.0,0.0,0.0,0.0,0.0,0.0,0.0,0.0,0.0,0.0,-1.245,-1.3411,-1.3835,-1.3452,-1.3232,-1.2844,-1.224,-1.1525,-1.0504,0.0,0.0,0.0,0.0,0.0,0.0,0.0,0.0,0.0,0.0,0.0,0.0,0.0,0.0,0.0,0.0,0.0,0.0,0.0,0.0,0.0,0.0,0.0,0.0,0.0,0.0,0.0,0.0,0.0,0.0,0.0,0.0,0.0,0.0,0.0,0.0,0.0,0.0,0.0,0.0,0.0,0.0,0.0,0.0,0.0,0.0,0.0,0.0,0.0,0.0,0.0,0.0,0.0,0.0,0.0,0.0,0.0,0.0,0.0,0.0,0.0,0.0,0.0,0.0,0.0,0.0,0.0,0.0,0.0,0.0,0.0,0.0,0.0,0.0,0.0,0.0,0.0,0.0,0.0,0.0,0.0,0.0,0.0,0.0,0.0,0.0,0.0,0.0,0.0,0.0,0.0,0.0,0.0,0.0,0.0,0.0,0.0,0.0,0.0,0.0,0.0,0.0,0.0,-1.2588,-1.3472,-1.3868,-1.3581,-1.3295,-1.2914,-1.2467,-1.1595,-1.0798,-1.0107,0.0,0.0,0.0,0.0,0.0,0.0,0.0,0.0,0.0,0.0,0.0,0.0,0.0,0.0,0.0,0.0,0.0,0.0,0.0,0.0,0.0,0.0,0.0,0.0,0.0,0.0,0.0,0.0,0.0,0.0,0.0,0.0,0.0,0.0,0.0,0.0,0.0,0.0,0.0,0.0,0.0,0.0,0.0,0.0,0.0,0.0,0.0,0.0,0.0,0.0,0.0,0.0,0.0,0.0,0.0,0.0,0.0,0.0,0.0,0.0,0.0,0.0,0.0,0.0,0.0,0.0,0.0,0.0,0.0,0.0,0.0,0.0,0.0,0.0,0.0,0.0,0.0,0.0,0.0,0.0,0.0,0.0,0.0,0.0,0.0,0.0,0.0,0.0,0.0,0.0,0.0,0.0,0.0,0.0,0.0,0.0,0.0,0.0,0.0,0.0,0.0,0.0,-1.265,-1.3601,-1.4046,-1.3762,-1.3425,-1.3088,-1.2621,-1.1855,-1.1166,-1.0554,0.0,0.0,0.0,0.0,0.0,0.0,0.0,0.0,0.0,0.0,0.0,0.0,0.0,0.0,0.0,0.0,0.0,0.0,0.0,0.0,0.0,0.0,0.0,0.0,0.0,0.0,0.0,0.0,0.0,0.0,0.0,0.0,0.0,0.0,0.0,0.0,0.0,0.0,0.0,0.0,0.0,0.0,0.0,0.0,0.0,0.0,0.0,0.0,0.0,0.0,0.0,0.0,0.0,0.0,0.0,0.0,0.0,0.0,0.0,0.0,0.0,0.0,0.0,0.0,0.0,0.0,0.0,0.0,0.0,0.0,0.0,0.0,0.0,0.0,0.0,0.0,0.0,0.0,0.0,0.0,0.0,0.0,0.0,0.0,0.0,0.0,0.0,0.0,0.0,0.0,0.0,0.0,0.0,0.0,0.0,0.0,0.0,0.0,0.0,0.0,0.0,0.0,-1.269,-1.3753,-1.4261,-1.3947,-1.3661,-1.3282,-1.2774,-1.2246,-1.1531,-1.0629,0.0,0.0,0.0,0.0,0.0,0.0,0.0,0.0,0.0,0.0,0.0,0.0,0.0,0.0,0.0,0.0,0.0,0.0,0.0,0.0,0.0,0.0,0.0,0.0,0.0,0.0,0.0,0.0,0.0,0.0,0.0,0.0,0.0,0.0,0.0,0.0,0.0,0.0,0.0,0.0,0.0,0.0,0.0,0.0,0.0,0.0,0.0,0.0,0.0,0.0,0.0,0.0,0.0,0.0,0.0,0.0,0.0,0.0,0.0,0.0,-0.6461,-0.6316,0.0,0.0,0.0,0.0,0.0,0.0,0.0,0.0,0.0,0.0,0.0,0.0,0.0,0.0,0.0,0.0,0.0,0.0,0.0,0.0,0.0,0.0,0.0,0.0,0.0,0.0,0.0,0.0,0.0,0.0,0.0,0.0,0.0,0.0,0.0,0.0,0.0,0.0,0.0,0.0,-1.28,-1.3783,-1.4326,-1.4138,-1.3762,-1.3316,-1.2902,-1.2365,-1.1766,-1.1105,-1.0169,0.0,0.0,0.0,0.0,0.0,0.0,0.0,0.0,0.0,0.0,0.0,0.0,0.0,0.0,0.0,0.0,0.0,0.0,0.0,0.0,0.0,0.0,0.0,0.0,0.0,0.0,0.0,0.0,0.0,0.0,0.0,0.0,0.0,0.0,0.0,0.0,0.0,0.0,0.0,0.0,0.0,0.0,0.0,0.0,0.0,0.0,0.0,0.0,0.0,0.0,0.0,0.0,0.0,0.0,0.0,0.0,0.0,0.0,0.0,-0.748,-0.7066,0.0,0.0,0.0,0.0,0.0,0.0,0.0,0.0,0.0,0.0,0.0,0.0,0.0,0.0,0.0,0.0,0.0,0.0,0.0,0.0,0.0,0.0,0.0,0.0,0.0,0.0,0.0,0.0,0.0,0.0,0.0,0.0,0.0,0.0,0.0,0.0,0.0,0.0,0.0,0.0,-1.2794,-1.3753,-1.4358,-1.4203,-1.3868,-1.3425,-1.2937,-1.2431,-1.1884,-1.125,-1.0549,0.0,0.0,0.0,0.0,0.0,0.0,0.0,0.0,0.0,0.0,0.0,0.0,0.0,0.0,0.0,0.0,0.0,0.0,0.0,0.0,0.0,0.0,0.0,0.0,0.0,0.0,0.0,0.0,0.0,0.0,0.0,0.0,0.0,0.0,0.0,0.0,0.0,0.0,0.0,0.0,0.0,0.0,0.0,0.0,0.0,0.0,0.0,0.0,0.0,0.0,0.0,0.0,0.0,-0.9282,-0.9305,-0.9351,-0.9259,-0.9246,-0.9239,-0.8473,-0.7823,-0.7325,-0.7566,0.0,0.0,0.0,0.0,0.0,0.0,0.0,0.0,0.0,0.0,0.0,0.0,0.0,0.0,0.0,0.0,0.0,0.0,0.0,0.0,0.0,0.0,-0.876,-0.9015,-0.9579,-1.0078,-1.0154,0.0,0.0,0.0,0.0,0.0,0.0,0.0,0.0,0.0,0.0,0.0,-1.2872,-1.3792,-1.4326,-1.4203,-1.3941,-1.3533,-1.3,-1.2496,-1.1951,-1.1292,-1.084,-1.0265,0.0,0.0,0.0,0.0,0.0,0.0,0.0,0.0,0.0,0.0,0.0,0.0,0.0,0.0,0.0,0.0,0.0,0.0,0.0,0.0,0.0,0.0,0.0,0.0,0.0,0.0,0.0,0.0,0.0,0.0,0.0,0.0,-0.5957,-0.6133,0.0,0.0,0.0,0.0,0.0,0.0,0.0,0.0,0.0,0.0,0.0,0.0,0.0,-0.9774,-0.9844,-1.0321,-1.0604,-1.0725,-1.0786,-1.081,-1.0804,-1.0342,-1.011,-1.0023,-0.9397,0.0,-0.8551,-0.8425,0.0,0.0,0.0,0.0,0.0,0.0,0.0,0.0,0.0,0.0,0.0,0.0,0.0,0.0,0.0,0.0,0.0,0.0,0.0,0.0,0.0,0.0,-0.9291,-0.9942,-1.0222,-1.0506,-1.1084,-1.111,-1.1213,-1.1766,-1.1834,-1.1838,0.0,0.0,0.0,0.0,0.0,0.0,-1.3438,-1.3973,-1.4261,-1.4203,-1.3861,-1.3507,-1.3188,-1.2679,-1.2108,-1.1516,-1.0981,-1.0471,-1.0002,-0.8844,0.0,0.0,0.0,0.0,0.0,0.0,0.0,0.0,0.0,0.0,0.0,0.0,0.0,0.0,0.0,0.0,0.0,0.0,0.0,0.0,0.0,0.0,0.0,0.0,0.0,0.0,0.0,0.0,0.0,-0.6716,-0.7011,-0.7151,-0.7263,-0.7231,0.0,0.0,0.0,0.0,0.0,0.0,0.0,0.0,0.0,-1.0232,-1.0629,-1.0979,-1.1339,-1.1609,-1.1757,-1.1782,-1.1769,-1.1609,-1.132,-1.1045,-1.0887,-1.0851,-1.055,-1.0348,-1.0143,-0.9221,-0.864,-0.8301,0.0,0.0,0.0,0.0,-0.7012,-0.6991,-0.7107,-0.7369,-0.7661,-0.7739,0.0,0.0,0.0,0.0,0.0,0.0,0.0,-0.8632,-0.9061,-0.9525,-0.9973,-1.0383,-1.0769,-1.124,-1.1885,-1.2205,-1.2439,-1.2661,-1.2744,-1.2804,-1.2936,-1.2558,0.0,0.0,0.0,-1.3305,-1.3468,-1.3927,-1.4203,-1.404,-1.3762,-1.348,-1.3179,-1.272,-1.218,-1.1547,-1.1094,-1.0644,-1.0123,-0.9277,-0.8599,0.0,0.0,0.0,0.0,0.0,0.0,0.0,0.0,0.0,0.0,0.0,0.0,0.0,0.0,0.0,0.0,0.0,0.0,0.0,0.0,0.0,0.0,0.0,0.0,0.0,0.0,0.0,0.0,-0.7608,-0.7922,-0.807,-0.8312,-0.8311,0.0,0.0,0.0,0.0,0.0,0.0,-1.0804,-1.1149,-1.1451,-1.1687,-1.1827,-1.2146,-1.2586,-1.2651,-1.2671,-1.2677,-1.2644,-1.2397,-1.1971,-1.1759,-1.1647,-1.1635,-1.1425,-1.1327,-1.1247,-0.9919,-0.9253,-0.9113,-0.8773,-0.8377,-0.7941,-0.7872,-0.7845,-0.7824,-0.793,-0.8263,-0.8634,-0.8706,-0.8767,-0.8766,-0.8463,0.0,0.0,0.0,0.0,-0.9458,-0.9594,-1.0064,-1.0581,-1.0845,-1.13,-1.185,-1.2613,-1.3086,-1.3367,-1.3429,-1.3481,-1.3505,-1.3574,-1.3147,0.0,-1.3096,-1.3341,-1.3526,-1.3615,-1.392,-1.4098,-1.3914,-1.3695,-1.3452,-1.3198,-1.2762,-1.2246,-1.17,-1.1282,-1.0797,-1.0235,-0.9639,-0.9032,-0.8412,0.0,0.0,0.0,0.0,0.0,0.0,0.0,0.0,0.0,0.0,0.0,0.0,0.0,0.0,0.0,0.0,0.0,0.0,0.0,0.0,0.0,0.0,0.0,0.0,0.0,0.0,0.0,0.0,0.0,-0.8539,-0.9127,0.0,0.0,0.0,0.0,-1.0191,-1.0941,-1.1507,-1.1709,-1.2398,-1.2863,-1.2985,-1.3213,-1.3315,-1.3346,-1.3408,-1.3441,-1.3441,-1.3441,-1.3395,-1.3283,-1.2632,-1.2354,-1.2297,-1.1653,-1.143,-1.1416,-1.0438,-1.0038,-0.9956,-0.9113,-0.8723,-0.8629,-0.8584,-0.8584,-0.8662,-0.8861,-0.9058,-0.928,-0.9322,-0.9396,-0.9443,-0.9439,-0.9552,0.0,0.0,-1.0121,-1.0385,-1.0494,-1.0667,-1.0952,-1.1596,-1.178,-1.208,-1.3224,-1.3475,-1.3612,-1.4041,-1.4038,-1.3999,-1.4149,0.0,-1.3591,-1.4219,-1.385,-1.3676,-1.4178,-1.4123,-1.3973,-1.3914,-1.3661,-1.3452,-1.3391,-1.2826,-1.2395,-1.2077,-1.1516,-1.0992,-1.0577,-0.9816,-0.8998,-0.8145,-0.7113,0.0,0.0,0.0,0.0,0.0,0.0,0.0,0.0,0.0,0.0,0.0,0.0,0.0,0.0,0.0,0.0,0.0,0.0,0.0,0.0,0.0,0.0,0.0,0.0,0.0,0.0,0.0,0.0,-0.9379,-0.9753,0.0,-1.0269,-1.0665,-1.1,-1.124,-1.1822,-1.2341,-1.2734,-1.319,-1.3452,-1.3546,-1.3607,-1.3647,-1.3647,-1.3674,-1.3708,-1.3708,-1.3594,-1.3547,-1.3514,-1.3235,-1.3106,-1.31,-1.2849,-1.2728,-1.2677,-1.1889,-1.1064,-1.0188,-0.9883,-0.9423,-0.896,-0.8938,-0.8916,-0.8916,-0.9087,-0.9259,-0.9455,-0.9666,-0.9744,-0.9764,-0.9861,-0.9976,-1.0097,-1.0261,-1.0436,-1.0702,-1.123,-1.1426,-1.1693,-1.2397,-1.2851,-1.3199,-1.3614,-1.3942,-1.4197,-1.4347,-1.4337,-1.428,-1.4326,-1.4199,-1.418,-1.4424,-1.4273,-1.4186,-1.4298,-1.4254,-1.4124,-1.3914,-1.3775,-1.36,-1.3425,-1.2972,-1.2508,-1.215,-1.1584,-1.1062,-1.0621,-1.0094,-0.9356,-0.8453,-0.7546,-0.6639,0.0,0.0,0.0,0.0,0.0,0.0,0.0,0.0,0.0,0.0,0.0,0.0,0.0,0.0,0.0,0.0,0.0,0.0,0.0,0.0,0.0,0.0,0.0,0.0,0.0,-0.9168,-0.9689,-1.0338,-1.0768,-1.1101,-1.1335,-1.1738,-1.2087,-1.2353,-1.2747,-1.3142,-1.3482,-1.3742,-1.3861,-1.3815,-1.3821,-1.3821,-1.3788,-1.3788,-1.3788,-1.3788,-1.3708,-1.3655,-1.3615,-1.3588,-1.3594,-1.3594,-1.3554,-1.352,-1.3501,-1.2978,-1.1965,-1.0697,-1.0415,-0.9974,-0.945,-0.9253,-0.9162,-0.9162,-0.9366,-0.9561,-0.9732,-0.9919,-1.0002,-1.0085,-1.0129,-1.0218,-1.0331,-1.0449,-1.059,-1.0865,-1.1566,-1.1827,-1.2139,-1.3108,-1.3593,-1.3892,-1.4125,-1.4407,-1.461,-1.461,-1.4522,-1.4433,-1.4433,-1.4483,-1.4501,-1.4501,-1.4501,-1.4445,-1.4326,-1.4293,-1.4203,-1.3967,-1.3841,-1.3708,-1.3493,-1.3076,-1.2656,-1.2252,-1.1763,-1.1319,-1.084,-1.0467,-0.9734,-0.8621,-0.7443,-0.6563,-0.597,0.0,0.0,0.0,0.0,0.0,0.0,0.0,0.0,0.0,0.0,0.0,0.0,0.0,0.0,0.0,0.0,0.0,0.0,0.0,0.0,0.0,0.0,0.0,-0.969,-1.0411,-1.1044,-1.1394,-1.2127,-1.2552,-1.2449,-1.3087,-1.352,-1.352,-1.3768,-1.3914,-1.3914,-1.4105,-1.4105,-1.3914,-1.3914,-1.3881,-1.3821,-1.3815,-1.3788,-1.3788,-1.3788,-1.3735,-1.3615,-1.3741,-1.3815,-1.3815,-1.3661,-1.3695,-1.3781,-1.3575,-1.2762,-1.1556,-1.0679,-1.0269,-1.0099,-0.9517,-0.9354,-0.9455,-0.9796,-0.9995,-1.0122,-1.0116,-1.023,-1.0374,-1.0256,-1.0349,-1.0498,-1.0424,-1.0541,-1.0872,-1.1568,-1.1829,-1.2278,-1.37,-1.3975,-1.4107,-1.4767,-1.4863,-1.4801,-1.4801,-1.4655,-1.4501,-1.4501,-1.4501,-1.4501,-1.4501,-1.4501,0.0,-1.4326,-1.4293,-1.4215,-1.4032,-1.3894,-1.3748,-1.3615,-1.3173,-1.2791,-1.2544,-1.2126,-1.1721,-1.1351,-1.0943,-1.0049,-0.865,-0.6812,-0.5913,-0.599,0.0,0.0,0.0,0.0,0.0,0.0,0.0,0.0,0.0,0.0,0.0,0.0,0.0,0.0,0.0,0.0,0.0,0.0,0.0,0.0,0.0,-0.9596,-1.0216,-1.0466,-1.0874,-1.1375,-1.2027,-1.2532,-1.2929,-1.3231,-1.3644,-1.3848,-1.3808,-1.404,-1.417,-1.4105,-1.4261,-1.4261,-1.4105,-1.4105,-1.4059,-1.3947,-1.3908,-1.3881,-1.3881,-1.3821,-1.3815,-1.3801,-1.3848,-1.3901,-1.3947,-1.3861,-1.3808,-1.3755,-1.3207,-1.2718,-1.2241,-1.1533,-1.0597,-0.9677,-0.9512,-0.9526,-0.9652,-0.9944,-1.0129,-1.0268,-1.0361,-1.0418,-1.0474,-1.0498,-1.0516,-1.059,-1.0663,-1.0736,-1.1048,-1.2269,-1.262,-1.3017,-1.435,-1.4687,-1.4752,-1.4916,-1.4959,-1.4959,-1.4959,-1.4883,-1.4821,-1.4718,-1.4756,-1.4756,-1.4725,-1.4725,-1.4655,-1.4483,-1.4452,-1.4363,-1.4157,-1.4098,-1.4013,-1.3775,-1.3406,-1.3091,-1.2791,-1.2354,-1.2018,-1.1757,-1.1201,-1.0365,-0.9125,-0.8021,-0.7539,0.0,0.0,0.0,0.0,0.0,0.0,0.0,0.0,0.0,0.0,0.0,0.0,0.0,0.0,0.0,0.0,0.0,0.0,0.0,0.0,0.0,0.0,-1.0274,-1.1035,-1.1542,-1.1828,-1.2198,-1.2779,-1.3175,-1.3466,-1.3736,-1.3973,-1.4118,-1.4072,-1.4235,-1.4293,-1.4268,-1.4326,-1.4326,-1.4203,-1.4203,-1.4157,-1.3993,-1.3947,-1.3934,-1.3914,-1.3848,-1.3848,-1.3914,-1.3934,-1.3987,-1.4078,-1.3987,-1.3795,-1.3493,-1.3024,-1.2508,-1.1917,0.0,0.0,0.0,0.0,-0.9742,-0.9944,-1.011,-1.0293,-1.0424,-1.0474,-1.0541,-1.059,-1.0565,-1.059,-1.0614,-1.0663,-1.0712,-1.1089,-1.2477,-1.292,-1.334,-1.4695,-1.5004,-1.5006,-1.5118,-1.5088,-1.5088,-1.5126,-1.5088,0.0,-1.4911,-1.4887,-1.4871,-1.4801,-1.477,-1.47,-1.4508,-1.4483,-1.4401,-1.4261,-1.4235,-1.4105,-1.3848,-1.3588,0.0,0.0,0.0,-1.2467,-1.2168,-1.1447,0.0,0.0,0.0,-0.8779,-0.903,-0.8894,0.0,0.0,-0.8048,-0.8267,0.0,0.0,0.0,0.0,0.0,0.0,0.0,0.0,0.0,0.0,0.0,0.0,0.0,0.0,0.0,0.0,-1.1015,-1.1824,-1.2695,-1.299,-1.3232,-1.3486,-1.3802,-1.4,-1.4032,-1.4183,-1.4293,-1.4293,-1.4326,-1.4358,-1.4261,-1.4326,0.0,0.0,0.0,-1.4157,-1.4032,-1.4032,-1.398,-1.3908,-1.3908,-1.3908,-1.3908,-1.3973,-1.4072,-1.4196,-1.3972,-1.362,-1.3154,-1.2848,-1.2033,-1.0981,-1.0716,-1.0578,-1.0467,-0.9988,-0.9969,-1.0212,-1.0281,0.0,0.0,-1.0541,-1.059,-1.0663,-1.0565,-1.0565,-1.059,-1.0541,-1.0614,-1.1026,-1.2367,-1.2864,-1.3353,-1.4673,-1.4937,-1.4952,-1.5073,-1.5028,-1.4999,-1.5058,-1.5036,-1.4932,-1.4813,-1.485,-1.4871,-1.4801,-1.4739,-1.4631,-1.4508,-1.444,-1.4358,-1.4293,-1.4235,0.0,-1.3941,-1.3728,-1.3507,-1.3251,-1.3185,-1.2955,-1.2544,-1.1797,-1.124,-1.1003,-1.02,-0.9917,-1.0216,-1.0154,-1.0474,-1.1078,-0.9707,-0.9552,0.0,0.0,0.0,0.0,0.0,0.0,0.0,0.0,0.0,0.0,0.0,0.0,0.0,0.0,0.0,-1.0366,-1.124,-1.2067,-1.2794,-1.3151,-1.3391,-1.3547,-1.3835,-1.4032,-1.4157,-1.4268,-1.4261,-1.4235,-1.4235,-1.4189,-1.4065,-1.4157,-1.4235,-1.4203,-1.4268,-1.4261,-1.4254,-1.4189,-1.4085,-1.3973,-1.3973,0.0,-1.3973,-1.3993,-1.4072,-1.4169,-1.3482,-1.3141,-1.2975,-1.195,-1.1082,-1.0341,-1.0147,-1.0082,-1.0096,-0.9943,-1.0021,-1.0212,-1.0331,-1.0474,-1.0614,-1.0639,-1.0639,-1.0614,-1.0639,-1.0639,0.0,-1.0712,-1.0808,-1.1062,-1.1922,-1.2666,-1.3247,-1.3581,-1.4061,-1.4298,-1.3847,-1.3772,-1.3745,-1.3684,-1.3684,-1.3609,-1.3431,-1.4171,-1.4801,-1.4739,-1.4624,-1.4515,-1.4447,-1.4415,-1.4358,-1.4293,-1.4235,-1.4124,-1.4006,-1.3861,-1.3701,-1.3541,-1.3419,-1.3185,-1.2832,-1.2501,-1.2236,-1.2106,-1.1753,-1.1563,-1.1539,-1.1503,-1.1575,-1.1617,-1.1062,-1.116,0.0,0.0,0.0,0.0,0.0,0.0,0.0,0.0,0.0,0.0,0.0,-0.8233,0.0,0.0,-1.0205,-1.0981,-1.1767,-1.2477,-1.2975,-1.3254,-1.3459,-1.3668,-1.3875,-1.4032,-1.4203,-1.4261,-1.4261,-1.4203,-1.4203,-1.4157,-1.4,-1.4124,-1.4203,-1.4203,-1.4261,-1.4293,-1.4293,-1.4261,-1.4189,-1.4111,-1.4111,-1.4072,-1.3993,-1.3993,-1.4032,-1.4045,-1.3324,-1.2852,-1.2509,-1.1226,-1.0476,-1.0135,-1.0002,-1.0008,-1.0085,-1.0027,-1.0161,-1.0349,-1.0424,-1.0516,-1.0614,-1.0639,-1.059,-1.0565,-1.059,-1.059,-1.0614,-1.0712,-1.0832,-1.109,-1.1851,-1.2358,-1.2789,-1.3198,-1.3568,-1.3698,-1.338,-1.3308,-1.3282,-1.3255,-1.3209,-1.315,-1.3022,-1.3417,-1.3847,-1.4144,-1.4342,-1.4433,-1.4383,-1.4358,-1.4326,-1.4261,-1.4235,-1.4131,-1.3927,-1.3762,-1.3628,-1.3547,-1.3486,-1.3378,-1.3242,-1.3098,-1.2931,-1.2803,-1.2585,-1.2365,-1.2138,-1.2066,-1.1962,-1.1943,-1.1717,-1.1816,0.0,0.0,0.0,0.0,0.0,0.0,0.0,0.0,-0.8075,-0.8239,-0.8319,-0.8594,-0.931,-1.0018,-1.0751,-1.1582,-1.2297,-1.285,-1.3198,-1.3329,-1.3533,-1.3781,-1.3914,-1.4072,-1.4203,-1.4261,-1.4268,-1.4157,-1.4164,-1.4098,-1.3973,-1.4085,-1.4157,-1.4157,-1.4261,-1.4293,-1.4293,-1.4293,-1.4261,-1.4203,-1.4203,-1.4124,-1.3993,-1.4006,-1.3973,-1.3934,-1.3142,-1.2462,-1.1907,-1.0684,-1.0135,-1.0091,-1.0021,-1.0085,-1.0173,-1.0122,-1.0255,-1.0474,-1.0474,-1.0516,-1.0565,-1.0565,-1.0516,-1.0449,-1.0474,-1.0516,-1.0565,-1.0663,-1.0808,-1.1062,-1.1728,-1.2046,-1.2313,-1.2802,-1.3007,-1.3039,-1.2865,-1.2836,-1.2836,-1.281,-1.2754,-1.2689,-1.2609,-1.2518,-1.2712,-1.3369,-1.3891,-1.4187,-1.4156,-1.4219,-1.4222,-1.4157,-1.4131,-1.4007,-1.3748,-1.3594,-1.3486,-1.3486,-1.3486,-1.352,-1.3581,-1.3452,-1.3329,-1.317,-1.2943,-1.2697,-1.2407,-1.2258,-1.2186,-1.215,-1.2052,-1.2089,-0.8811,-0.8706,-0.8606,-0.8539,-0.8467,-0.84,0.0,0.0,-0.846,-0.8544,-0.8617,-0.8844,-0.947,-1.021,-1.0976,-1.1682,-1.2388,-1.3006,-1.3323,-1.3452,-1.3594,-1.3848,-1.3947,-1.4072,-1.4261,-1.4235,-1.4157,-1.4032,-1.396,-1.3914,-1.3815,-1.3947,-1.4032,-1.4032,-1.4183,-1.4293,-1.4293,-1.4293,-1.4261,-1.4203,-1.4203,-1.4124,-1.3993,-1.3927,-1.3908,-1.3848,-1.2581,-1.1728,-1.1185,-1.0412,-1.0122,-1.0091,-1.0021,-1.0046,-1.0122,-1.0091,-1.023,-1.0399,-1.0399,-1.0424,-1.0424,-1.0424,-1.0331,-1.0256,-1.0374,-1.0374,-1.0374,-1.0639,-1.0808,-1.0941,-1.1153,-1.1695,-1.2092,-1.163,-1.1937,-1.2163,-1.163,-1.1515,-1.1485,-1.1445,-1.1374,-1.1272,-1.1159,-1.147,-1.1919,-1.2552,-1.3083,-1.3391,-1.3329,-1.3725,-1.4032,-1.4032,-1.3934,-1.3748,-1.3554,-1.352,-1.3486,-1.3486,-1.3486,-1.3486,-1.352,-1.3452,-1.3295,-1.31,-1.2943,-1.2756,-1.2508,-1.2473,-1.2431,-1.2371,-1.2341,-1.2371,-0.9443,-0.931,-0.9155,0.0,-0.8998,-0.8894,-0.8856,-0.8839,-0.8861,-0.8883,-0.8905,-0.9226,-1.0175,-1.0648,-1.125,0.0,-1.2767,-1.3123,-1.3425,-1.3486,-1.3594,-1.3881,-1.3934,-1.3987,-1.4111,-1.4111,-1.4046,-1.396,-1.3908,-1.3881,-1.3788,-1.3914,-1.3993,-1.3993,-1.4183,-1.4293,-1.4293,-1.4293,-1.4261,-1.4203,-1.4203,-1.4098,-1.3927,-1.3908,-1.3671,-1.3233,-1.2657,-1.2054,-1.1388,-1.0725,-1.0457,-1.0399,-0.9979,-0.9899,-1.0046,-1.0046,-1.0135,-1.0281,-1.0281,-1.0281,-1.0281,-1.0281,-1.0256,-1.0212,-1.0281,-1.0331,-1.0399,-1.059,-1.0712,-1.0832,-1.1045,-1.1329,-1.1511,-1.1295,-1.1431,-1.1528,-1.1195,-1.1139,-1.1115,-1.1045,-1.0998,-1.0944,-1.0808,-1.094,-1.1116,-1.1209,-1.207,-1.282,-1.3039,-1.3284,-1.3524,-1.3736,-1.3661,-1.3533,-1.3452,-1.3357,-1.3357,-1.3452,-1.3357,-1.3391,-1.3486,-1.3357,-1.3232,-1.3107,-1.2984,-1.2756,-1.2502,-1.2502,-1.2431,-1.2288,-1.2288,-1.2288,-1.0059,-0.9867,-0.9679,-0.9555,-0.944,-0.9319,-0.9222,-0.9195,-0.9195,-0.9195,-0.9195,-0.9518,-1.057,-1.0948,-1.147,-1.2596,-1.2989,-1.326,-1.3486,-1.352,-1.3621,-1.3848,-1.3881,-1.3908,-1.3947,-1.3947,-1.3954,-1.3908,-1.3881,-1.3854,-1.3788,-1.3921,-1.3973,-1.3973,-1.4118,-1.4222,-1.4222,-1.4222,-1.4183,-1.4157,-1.4138,-1.404,-1.3881,-1.3808,-1.3487,-1.2962,-1.2813,-1.2411,-1.1825,-1.1157,-1.0809,-1.0628,-1.0133,-0.9959,-0.9976,-0.9976,-1.0059,-1.0173,-1.0173,-1.0173,-1.0148,-1.0173,-1.0173,-1.0148,-1.0186,-1.0281,-1.0374,-1.0516,-1.0614,-1.0736,-1.0975,-1.1022,-1.1069,-1.1115,-1.1115,-1.1092,-1.0998,-1.0975,-1.092,-1.0873,-1.0832,-1.0784,-1.0663,-1.0614,-1.0516,-1.0306,-1.1077,-1.1876,-1.2373,-1.2721,-1.3076,-1.349,-1.3452,-1.3391,-1.3391,-1.3295,-1.3295,-1.3425,-1.3329,-1.3329,-1.3452,-1.3295,-1.3129,-1.3066,-1.2943,-1.2762,-1.255,-1.2508,-1.2431,-1.2282,-1.224,-1.221,-1.0608,0.0,-1.0141,-0.9944,-0.9776,-0.9664,-0.9517,-0.9491,-0.9491,-0.9491,-0.9491,-0.9686,-1.0306,-1.0965,-1.1598,-1.2315,-1.2975,-1.3452,-1.3581,-1.3615,-1.3661,-1.3788,-1.3788,-1.3788,0.0,-1.3848,-1.3914,-1.3914,-1.3854,-1.3788,-1.3788,-1.3881,-1.3908,-1.3908,-1.3973,-1.4026,-1.4026,-1.4026,-1.4026,-1.4,-1.3934,-1.3881,-1.3788,-1.3594,-1.3507,-1.3429,-1.2793,-1.2462,-1.2341,-1.1647,-1.1065,-1.0594,-1.0575,-1.0295,-0.9899,-0.9899,-0.9995,-1.0091,-1.0091,-1.0065,-1.0027,-1.0091,-1.0065,-1.0027,-1.0155,-1.0212,-1.0256,-1.0449,-1.0541,-1.0639,-1.0784,-1.0849,-1.0897,-1.0897,-1.0897,-1.0897,-1.0897,-1.0856,-1.0808,-1.0808,-1.0712,-1.059,-1.0516,-1.0399,-1.0281,-1.0212,-1.0186,-1.0379,-1.097,-1.2034,-1.2891,-1.3361,-1.3391,-1.3391,-1.3391,-1.3391,-1.3425,-1.3486,-1.3425,-1.3391,-1.3391,-1.3198,-1.3025,-1.2902,-1.2838,-1.2774,-1.2703,-1.255,-1.2502,-1.2508,-1.2282,-1.2252,-1.0975,-1.0729,-1.0478,-1.0218,-1.0034,-0.9873,-0.9776,-0.9736,-0.9736,-0.9808,-0.9873,-1.0095,-1.0752,-1.1041,-1.1417,-1.2024,-1.2595,-1.2968,-1.3052,-1.3395,-1.3661,-1.3781,-1.3788,0.0,0.0,0.0,0.0,-1.3821,-1.3854,-1.3854,-1.3788,-1.3894,-1.396,-1.3914,-1.398,-1.3993,-1.3993,-1.3993,-1.3947,-1.3868,-1.3695,-1.3628,-1.3594,-1.352,-1.3486,-1.3412,-1.3194,-1.3023,-1.2817,-1.2205,-1.1864,-1.1653,-1.0804,-1.0454,-1.0374,-0.9985,-0.9899,-0.997,-0.997,-0.9951,-0.9951,-1.0021,-1.0046,-1.0072,-1.0173,-1.023,-1.0281,-1.0399,-1.0449,-1.0516,-1.0687,-1.076,-1.0784,-1.0873,-1.0873,-1.0832,-1.0784,-1.0712,-1.0639,-1.0614,-1.0516,-1.0449,-1.0374,-1.0281,-1.0205,-1.0085,-1.0339,-1.0784,-1.1398,-1.2038,-1.265,-1.3204,-1.3232,-1.3267,-1.3391,-1.3329,-1.3329,-1.3486,-1.3357,-1.3295,-1.3391,-1.3198,-1.3025,-1.2902,-1.2838,-1.2726,-1.2585,-1.2508,-1.2431,-1.2318,-1.224,-1.221,-1.1208,-1.0944,-1.0687,-1.0424,-1.0268,-1.0129,-1.0085,-1.0059,-1.0085,-1.0223,-1.0317,-1.0528,-1.0976,-1.1229,-1.1475,-1.1826,-1.2295,-1.2657,-1.2855,-1.3187,-1.352,-1.3788,-1.3874,-1.3861,0.0,0.0,0.0,-1.3808,-1.3848,-1.3881,-1.3854,-1.3927,-1.3861,-1.3598,-1.3603,-1.3491,-1.3286,-1.3472,-1.352,-1.3409,-1.3464,-1.335,-1.3165,-1.3336,-1.3249,-1.3032,-1.3032,-1.2791,-1.2419,-1.2041,-1.1782,-1.1597,-1.0792,-1.0448,-1.0362,-0.9959,-0.9854,-0.9899,-0.9899,-0.9899,-0.9899,-0.997,-1.0021,-1.0072,-1.0135,-1.0192,-1.0243,-1.0299,-1.0331,-1.0374,-1.0541,-1.059,-1.0614,-1.0736,-1.0712,-1.0687,-1.0639,-1.059,-1.0516,-1.0449,-1.0374,-1.0299,-1.0218,-1.0148,-1.0065,-0.9976,-1.0253,-1.0661,-1.1263,-1.1702,-1.2226,-1.2847,-1.3023,-1.317,-1.3391,-1.3329,-1.3329,-1.3486,-1.3295,-1.3232,-1.3329,-1.3123,-1.2949,-1.2867,-1.2762,-1.2615,-1.2502,-1.2395,-1.2288,-1.2174,-1.2108,-1.2077,-1.127,-1.1022,-1.076,-1.0565,-1.0449,-1.0399,-1.0399,-1.0474,-1.0565,-1.0712,-1.0849,-1.0968,0.0,0.0,-1.1762,-1.1695,-1.2075,-1.2488,-1.2876,-1.3026,-1.3278,0.0,0.0,0.0,0.0,0.0,0.0,-1.369,-1.3822,-1.3875,-1.3868,-1.3868,-1.3604,-1.3024,-1.2922,-1.2585,-1.2014,-1.2489,-1.2729,-1.264,-1.3081,-1.3002,-1.2475,-1.2912,-1.2829,-1.2372,-1.2282,-1.1907,-1.129,-1.129,-1.099,-1.0558,-1.0578,-1.0326,-0.9917,-0.984,-0.9828,-0.9899,-0.9899,-0.9905,-0.9899,-0.997,-0.9995,-1.0021,-1.0091,-1.0091,-1.0122,-1.0173,-1.018,-1.023,-1.0349,-1.0399,-1.0399,-1.0474,-1.0498,-1.0474,-1.0474,-1.0424,-1.0374,-1.0299,-1.023,-1.0155,-1.0027,-0.9951,-0.9899,-0.9899,-0.9828,-1.0027,-1.0631,-1.1094,-1.1653,-1.2321,-1.2811,-1.317,-1.3357,-1.3391,-1.3385,-1.3486,-1.3288,-1.3198,-1.3198,-1.2949,-1.2803,-1.2803,-1.2615,-1.2502,-1.2467,-1.2222,-1.2108,-1.2077,-1.1949,-1.1881,-1.1201,-1.1045,-1.0897,-1.0639,-1.0516,-1.0498,-1.059,-1.0712,-1.089,-1.1226,-1.1431,-1.1615,0.0,0.0,0.0,-1.1454,-1.1702,0.0,-1.1808,-1.2522,0.0,-1.3215,0.0,-1.3756,-1.3362,-1.3183,0.0,-1.2645,-1.3134,-1.3418,-1.3298,-1.3349,-1.3251,-1.301,-1.2504,-1.2157,-1.2007,-1.2051,-1.2032,-1.1978,-1.2032,-1.1995,-1.1832,-1.1939,-1.1933,-1.1801,-1.1746,-1.1591,-1.1375,-1.132,-1.124,-1.1128,-1.0749,-1.0535,-1.0361,-0.9957,-0.9782,-0.9756,-0.9756,-0.9828,-0.9899,-0.997,-0.9995,-1.0021,-1.0091,-1.0091,-1.0091,-1.0122,-1.0129,-1.0129,-1.023,-1.0256,-1.0281,-1.0331,-1.0306,-1.0281,-1.0281,-1.0211,-1.0173,-1.0148,-1.0104,-1.0027,-0.9951,-0.9899,-0.988,-0.9828,-0.9808,-1.0007,-1.0547,-1.0982,-1.151,-1.2166,-1.2636,-1.2955,-1.317,-1.3082,-1.3082,-1.3198,-1.3047,-1.2978,-1.2978,-1.2873,-1.2803,-1.2803,-1.2615,-1.2431,-1.2282,-1.2144,-1.2047,-1.1949,-1.1918,-1.1949,-1.1155,-1.0998,-1.0873,-1.0687,-1.0639,-1.0687,-1.0873,-1.108,-1.1371,-1.1765,-1.2069,0.0,-1.2423,-1.2325,-1.2117,0.0,0.0,0.0,-1.1636,-1.2108,-1.2519,0.0,-1.2999,0.0,-1.2804,-1.2537,-1.2285,-1.1951,-1.2528,-1.287,-1.2797,-1.284,-1.2684,-1.2346,-1.1963,-1.1679,-1.1553,-1.1493,-1.1385,-1.1263,-1.1468,-1.1432,-1.1165,-1.1385,-1.1366,-1.1094,-1.1006,-1.0812,-1.0562,-1.0534,-1.0562,-1.0583,-1.0303,-1.0213,-1.0197,-0.9841,-0.971,-0.971,-0.9658,-0.9736,-0.9834,-0.9899,-0.9899,-0.9925,-0.9944,-0.997,-0.9976,-0.9925,-0.9925,-0.9931,-1.0021,-1.0021,-1.0046,-1.0123,-1.0097,-1.0072,-1.0072,-1.0053,-1.0065,-1.0065,-0.9995,-0.9951,-0.9899,-0.9873,-0.9854,-0.9802,-0.9756,-0.9815,-1.0073,-1.0558,-1.1095,-1.1738,-1.2207,-1.2588,-1.2937,-1.2908,-1.2873,-1.292,-1.2797,-1.272,-1.272,-1.2656,-1.2621,-1.2621,-1.2467,-1.2282,-1.2174,-1.2041,-1.1949,-1.185,-1.1881,-1.1949,-1.1139,-1.0951,-1.0832,-1.0736,-1.076,-1.0897,-1.1155,-1.1498,-1.1875,-1.2313,0.0,-1.3022,-1.31,-1.2996,-1.2775,-1.2368,0.0,-1.1888,-1.1861,-1.1845,-1.1949,-1.22,-1.2285,-1.2314,-1.2318,-1.1818,-1.1507,-1.1478,-1.1926,-1.2214,-1.2288,-1.2295,-1.2006,-1.1394,-1.1328,-1.1163,-1.0902,-1.0874,-1.0765,-1.0593,-1.1042,-1.0966,-1.0479,-1.095,-1.0878,-1.0355,-1.0223,-0.9914,-0.9491,-0.9491,-0.9544,-0.9611,-0.9664,-0.9736,-0.9756,-0.9638,-0.9611,-0.9658,-0.9585,-0.9611,-0.9658,-0.9756,-0.9782,-0.9782,-0.9782,-0.9782,-0.9782,-0.9704,-0.971,-0.971,-0.9782,-0.9782,-0.9808,-0.9854,-0.988,-0.988,-0.988,-0.9925,-0.997,-0.9995,-0.9951,-0.9899,-0.9899,-0.9828,-0.9782,-0.9756,-0.9664,-0.9564,-0.9464,-1.0002,-1.0585,-1.1174,-1.1652,-1.2152,-1.2684,-1.2733,-1.2697,-1.2633,-1.2508,-1.2467,-1.2467,-1.2437,-1.2407,-1.2407,-1.2252,-1.2174,-1.2108,-1.1979,-1.1887,-1.1819,-1.1887,-1.1918,-1.1346,-1.1185,-1.1069,-1.0832,-1.0832,-1.0968,-1.1294,-1.1701,0.0,0.0,-1.3278,-1.3577,-1.3641,-1.3558,-1.3335,-1.2927,-1.2533,-1.2169,-1.1784,-1.1909,-1.2045,0.0,-1.2259,-1.2291,-1.185,-1.1681,0.0,0.0,-1.0987,-1.1291,-1.1782,-1.1783,-1.1433,-1.0782,-1.0694,-1.0544,-1.0347,-1.0232,-1.0096,-0.9945,-0.9997,-0.9923,-0.9778,-0.9875,-0.9821,-0.9677,-0.9599,-0.953,-0.9491,-0.9491,-0.9544,-0.9611,-0.9664,-0.9664,-0.9638,-0.9538,-0.9479,-0.9428,-0.9387,-0.936,-0.9414,-0.9658,-0.971,-0.971,-0.971,-0.971,-0.971,-0.971,-0.971,-0.971,-0.971,-0.971,-0.971,-0.9736,-0.9736,-0.9736,-0.9736,-0.9782,-0.9854,-0.9899,-0.9899,-0.988,-0.9828,-0.9802,-0.9736,-0.9591,-0.9544,-0.9464,-0.9271,-0.984,-1.0392,-1.0835,-1.1361,-1.1881,-1.2437,-1.2365,-1.2282,-1.2288,-1.2246,-1.2246,-1.2246,-1.2365,-1.2407,-1.2407,-1.2252,-1.2174,-1.2108,-1.1979,-1.1881,-1.1887,-1.1881,-1.1949,-1.1593,-1.1384,-1.1208,-1.0975,-1.0975,-1.1148,-1.152,0.0,0.0,0.0,-1.4072,-1.4543,-1.4216,-1.4051,0.0,-1.3513,-1.3168,-1.2742,-1.2242,-1.2063,-1.1913,-1.1668,-1.1688,-1.1619,-1.1359,-1.1289,-1.1116,-1.0828,-1.0832,-1.0955,-1.1219,-1.1232,-1.1078,-1.0718,-1.0639,-1.0516,-1.0306,-1.0173,-1.0014,-0.9854,-0.9756,-0.9638,-0.9538,-0.9499,-0.9446,-0.9399,-0.9339,-0.9313,-0.9351,-0.9378,-0.9446,-0.9499,-0.9558,-0.9564,-0.9544,-0.9479,-0.9414,-0.9328,-0.9307,-0.9307,-0.9334,-0.944,-0.952,-0.954,-0.954,-0.954,-0.954,-0.954,-0.954,-0.9546,-0.9585,-0.9585,-0.9617,-0.9638,-0.9664,-0.971,-0.9736,-0.9782,-0.9828,-0.9873,-0.9899,-0.9873,-0.9808,-0.9736,-0.9632,-0.9473,-0.9399,-0.9265,-0.9031,-0.927,-0.9678,-1.0258,-1.0775,-1.1253,-1.1722,-1.1952,-1.2029,-1.1974,-1.1979,-1.2016,-1.2047,-1.2094,-1.2161,-1.2228,-1.218,-1.2108,-1.2016,-1.2016,-1.1979,-1.1881,-1.1979,-1.2047,-1.193,-1.1659,-1.1391,-1.1162,-1.1201,-1.1415,-1.1788,-1.3027,0.0,-1.3802,-1.4724,-1.5358,-1.4671,0.0,-1.4293,0.0,-1.3728,-1.3333,-1.285,-1.2372,-1.1948,0.0,-1.1348,0.0,-1.1125,-1.1048,0.0,-1.0975,-1.0975,-1.092,-1.0856,-1.0897,-1.0897,-1.0832,-1.076,-1.0614,-1.0424,-1.0281,-1.0097,-0.9899,-0.9782,-0.9638,-0.9491,-0.9446,-0.9387,-0.9307,-0.9232,-0.9211,-0.9211,-0.9286,-0.9328,-0.9381,-0.9458,-0.9491,-0.9491,-0.944,-0.9354,-0.9307,-0.9253,-0.9259,-0.9259,-0.9232,-0.9307,-0.9381,-0.9402,-0.9402,-0.9402,-0.9434,-0.9434,-0.9467,-0.9538,-0.9544,-0.9564,-0.9638,-0.9684,-0.9756,-0.9802,-0.9828,-0.9828,-0.988,-0.9873,-0.9854,-0.9756,-0.9632,-0.9499,-0.9334,-0.9199,-0.9036,-0.8773,-0.8739,-0.8957,-0.9504,-1.0136,-1.0667,-1.1092,-1.1541,-1.1791,-1.1751,-1.1751,-1.1782,-1.1881,-1.1881,-1.1949,-1.2108,-1.2108,-1.2047,-1.1949,-1.2047,-1.2047,-1.1949,-1.2047,-1.2108,-1.2447,-1.2133,-1.1834,-1.1466,-1.1519,-1.1753,-1.21,0.0,-1.4287,-1.4031,-1.4928,-1.5553,-1.4818,-1.4618,-1.4521,0.0,0.0,-1.3727,-1.3376,-1.2916,-1.2524,-1.2241,0.0,0.0,-1.1564,-1.1423,-1.1294,-1.1178,-1.1162,-1.1115,-1.0998,-1.1045,-1.1045,-1.0975,-1.0849,-1.0687,-1.0498,-1.0306,-1.0097,-0.9899,-0.9828,-0.9684,-0.9491,-0.9491,-0.9432,-0.9307,-0.9232,-0.9211,-0.9211,-0.9286,-0.9307,-0.9334,-0.9458,-0.9491,-0.9491,-0.944,-0.9354,-0.9286,-0.9162,-0.9114,-0.9114,-0.9038,-0.9162,-0.9334,-0.9381,-0.9402,-0.9434,-0.9558,-0.9585,-0.9585,-0.9658,-0.9684,-0.971,-0.9756,-0.9828,-0.988,-0.9899,-0.9899,-0.988,-0.9828,-0.9802,-0.9756,-0.9564,-0.9473,-0.9334,-0.9065,-0.8927,-0.8773,-0.855,-0.8522,-0.8532,-0.8531,-0.9513,-1.0327,-1.0787,-1.1213,-1.1453,-1.1522,-1.1522,-1.1597,-1.1788,-1.1887,-1.1949,-1.2108,-1.2108,-1.2077,-1.2077,-1.2077,-1.2077,-1.2077,-1.2077,-1.2108,-1.2934,-1.2608,-1.2293,-1.2001,-1.2056,-1.2265,-1.2603,0.0,-1.4643,-1.4269,-1.5115,-1.5696,-1.4954,-1.4766,-1.4686,0.0,0.0,0.0,-1.3739,-1.3328,-1.2985,-1.2742,-1.2455,0.0,0.0,0.0,-1.1659,-1.146,-1.1437,-1.1415,-1.137,-1.127,-1.1162,-1.1069,-1.0975,-1.0832,-1.0614,-1.0474,-1.0274,-1.0072,-0.9982,-0.9828,-0.9611,-0.9538,-0.9452,-0.9354,-0.9211,-0.9162,-0.9211,-0.9184,-0.9259,-0.9354,-0.9458,-0.9517,-0.9564,-0.9485,-0.942,-0.9354,-0.9259,-0.9211,-0.9211,-0.9232,-0.9319,-0.9399,-0.936,-0.9387,-0.9479,-0.9611,-0.9684,-0.973,-0.9808,-0.9854,-0.9873,-0.9854,-0.9899,-0.9951,-0.9899,-0.988,-0.9828,-0.9802,-0.9736,-0.9638,-0.9517,-0.9372,-0.9199,-0.8921,-0.8756,-0.8617,-0.8404,-0.8375,-0.8352,-0.829,-0.9013,-0.9734,-1.0254,-1.0713,-1.1149,-1.1591,-1.1608,-1.1677,-1.185,-1.1881,-1.1949,-1.2108,-1.2108,-1.2041,-1.1979,-1.1979,-1.1949,-1.1918,-1.1918,-1.1918,-1.3408,-1.3092,-1.2799,-1.2592,-1.2657,-1.2834,0.0,0.0,-1.5002,-1.449,-1.5266,-1.5797,-1.5038,-1.486,-1.4804,0.0,0.0,-1.425,-1.4019,-1.3689,-1.337,-1.3193,0.0,-1.2735,-1.2533,-1.2271,-1.201,-1.1761,-1.1747,-1.1732,-1.1725,-1.1564,-1.1391,-1.1208,-1.1092,-1.0944,-1.076,-1.059,-1.0399,-1.023,-1.0116,-0.9957,-0.9782,-0.9664,-0.9579,-0.9508,-0.9259,-0.9211,-0.9259,-0.9141,-0.9211,-0.9408,-0.9485,-0.9544,-0.9617,-0.9591,-0.9526,-0.944,-0.9393,-0.9366,-0.9387,-0.944,-0.9526,-0.9611,-0.9567,-0.9599,-0.9638,-0.9782,-0.986,-0.9937,-0.9982,-1.0008,-1.0021,-0.9944,-0.997,-0.997,-0.9899,-0.9828,-0.9782,-0.9756,-0.9664,-0.9558,-0.9485,-0.9339,-0.9145,-0.8894,-0.8751,-0.8589,-0.8375,-0.8347,-0.8319,-0.8267,-0.8632,-0.9168,-0.9863,-1.0358,-1.0943,-1.1617,-1.1688,-1.1756,-1.1881,-1.1881,-1.1949,-1.2108,-1.2108,-1.2047,-1.1881,-1.1881,-1.1887,-1.1788,-1.1788,-1.1788,-1.3883,-1.3641,-1.3424,-1.316,-1.3244,-1.3432,0.0,-1.4574,-1.5324,-1.4724,-1.5399,-1.5847,-1.5046,-1.4896,-1.486,-1.4719,0.0,0.0,-1.4211,-1.3966,-1.3731,0.0,0.0,-1.3218,-1.3005,-1.2626,-1.2304,-1.21,-1.2089,-1.2062,-1.1991,-1.192,-1.1769,-1.1489,-1.1231,-1.1022,-1.0897,-1.0639,-1.0424,-1.0306,-1.023,-1.0123,-1.0002,-0.9925,-0.9854,-0.9782,-0.944,-0.9328,-0.9381,-0.919,-0.9211,-0.9408,-0.9485,-0.9591,-0.971,-0.971,-0.9658,-0.9591,-0.9517,-0.9544,-0.9585,-0.9591,-0.9736,-0.9925,-1.0141,-1.0046,-0.9925,-1.0065,-1.0135,-1.0212,-1.0212,-1.0135,-1.0091,-1.0021,-0.9995,-0.9976,-0.9828,-0.9808,-0.9756,-0.9638,-0.9591,-0.9558,-0.9434,-0.9354,-0.9232,-0.9016,-0.8872,-0.8712,-0.8527,-0.8499,-0.846,-0.8416,-0.8416,-0.8746,-0.964,-1.0175,-1.0789,-1.1458,-1.1651,-1.1756,-1.1881,-1.1881,-1.1949,-1.2108,-1.2108,-1.2047,-1.1881,-1.1881,-1.1887,-1.1788,-1.1788,-1.1788,-1.4259,-1.4131,-1.4023,-1.3886,-1.3926,-1.4036,-1.4127,-1.457,-1.4904,-1.4704,-1.4991,-1.5198,-1.4942,-1.4859,-1.4804,-1.4709,-1.4577,0.0,0.0,0.0,0.0,-1.3817,-1.3543,-1.3295,0.0,-1.2828,-1.263,-1.2522,-1.2471,-1.2427,-1.2407,-1.2262,-1.1997,-1.1579,-1.1391,-1.1208,-1.0975,-1.0784,-1.0614,-1.0449,-1.0374,-1.0274,-1.0123,-0.9982,-0.9899,-0.9854,-0.9461,-0.9366,-0.9458,-0.9195,-0.9265,-0.9532,-0.9511,-0.9611,-0.9756,-0.971,-0.9704,-0.9756,-0.9828,-0.9873,-0.9976,-1.0091,-1.0218,-1.0336,-1.0436,-1.0336,-1.0199,-1.0293,-1.0299,-1.0281,-1.0281,-1.023,-1.0142,-1.0072,-1.0021,-0.9995,-0.9944,-0.9899,-0.988,-0.9925,-0.9828,-0.973,-0.9744,-0.9587,-0.9402,-0.928,-0.9124,-0.8949,-0.8795,-0.8695,-0.864,-0.8606,-0.8556,-0.8793,-0.9375,-0.9923,-1.0535,-1.1235,-1.1628,-1.1881,-1.2047,-1.2047,-1.2041,-1.2108,-1.2108,-1.2047,-1.1881,-1.185,-1.1788,-1.1719,-1.1639,-1.1639,0.0,-1.4514,-1.4484,-1.4438,-1.4461,0.0,-1.4542,-1.4661,-1.4785,-1.4776,-1.4841,-1.4895,-1.4904,-1.4895,-1.485,-1.4794,-1.4659,0.0,0.0,0.0,0.0,-1.4373,0.0,0.0,-1.3726,-1.3308,-1.2982,-1.2855,-1.2784,-1.274,-1.2683,-1.2518,-1.2233,-1.1847,-1.1601,-1.1369,-1.1115,-1.0897,-1.0712,-1.0565,-1.0474,-1.0399,-1.0349,-1.0192,-1.011,-1.0059,-0.9698,-0.9552,0.0,-0.9319,-0.9372,-0.9638,-0.9611,-0.973,-0.9899,-0.9886,-0.9918,-0.9963,-1.0129,-1.0255,-1.0355,-1.0565,-1.0712,-1.0808,-1.0784,-1.0614,-1.0424,-1.0424,-1.0374,-1.0306,-1.0306,-1.0224,-1.0142,-1.0072,-1.0021,-0.9995,-0.9995,-0.9995,-1.0021,-1.0141,-1.0065,-0.9995,-1.0021,-0.9887,-0.9725,-0.9607,-0.9493,-0.9328,-0.9137,-0.9062,-0.8965,-0.8894,-0.8822,-0.8895,-0.9206,-0.9844,-1.0503,-1.1194,-1.1701,-1.201,-1.2144,-1.2108,-1.2108,-1.2108,-1.2108,-1.2047,-1.1881,-1.1819,-1.1788,-1.1756,-1.1639,-1.1677,0.0,0.0,0.0,0.0,0.0,0.0,-1.482,-1.4866,0.0,-1.4905,-1.4894,-1.4902,-1.4894,-1.4956,-1.4964,-1.4905,-1.4785,0.0,0.0,-1.4329,0.0,0.0,-1.4425,-1.4155,-1.483,-1.4041,-1.3405,-1.3217,-1.3085,-1.2969,-1.284,-1.2702,-1.2499,-1.2238,-1.1868,-1.1556,-1.133,-1.0998,-1.0808,-1.0736,-1.059,-1.0565,-1.0639,-1.0541,-1.0474,-1.0399,-1.0053,-0.9854,-0.971,-0.9514,-0.9567,-0.9736,-0.9808,-0.9976,-1.0141,-1.0218,-1.023,-1.0281,-1.0498,-1.0632,-1.0801,-1.0998,-1.1185,-1.13,-1.1178,-1.0897,-1.059,-1.0516,-1.0399,-1.0281,-1.0281,-1.0211,-1.0091,-1.0046,-1.0027,-1.0027,-1.0046,-1.0097,-1.0185,-1.031,-1.0335,-1.031,-1.026,-1.0235,-1.0166,-0.9976,-0.9925,-0.9816,-0.9575,-0.9522,-0.9455,-0.9259,-0.9162,-0.9114,-0.9114,-0.9915,-1.065,-1.1205,-1.1773,-1.2144,-1.221,-1.2144,-1.2108,-1.2108,-1.2108,-1.2047,-1.1918,-1.185,-1.1819,-1.1819,-1.1819,-1.1819,-1.3789,0.0,-1.504,-1.509,-1.511,-1.5091,0.0,0.0,0.0,0.0,0.0,0.0,-1.4913,-1.4912,-1.492,-1.4904,0.0,-1.4737,-1.4603,-1.4359,0.0,-1.5193,-1.4987,-1.5062,-1.5732,-1.4951,-1.435,-1.4255,-1.3572,-1.314,-1.3105,-1.2934,-1.2749,-1.2588,-1.234,-1.1968,-1.1453,-1.1263,-1.1115,-1.0998,-1.092,-1.0897,-1.0897,-1.0784,-1.0663,-1.0541,-1.0248,-1.0021,-0.9854,-0.9848,-0.9944,-1.0091,-1.021,-1.0391,-1.0559,-1.059,-1.0687,-1.0832,-1.1045,-1.1194,-1.1355,-1.1601,-1.1696,-1.1652,-1.1453,-1.1094,-1.0712,-1.0541,-1.0374,-1.0212,-1.0212,-1.0205,-1.0199,-1.0293,-1.0318,-1.0336,-1.0436,-1.0503,-1.0608,-1.0715,-1.0722,-1.0698,-1.0722,-1.0583,-1.0411,-1.0368,-1.0179,-1.004,-0.9964,-0.977,-0.9625,-0.9579,-0.944,-0.9307,-0.9259,-0.9993,-1.0567,-1.0768,-1.1595,-1.2108,-1.2108,-1.2108,-1.2108,-1.2108,-1.2138,-1.2174,-1.2144,-1.2108,-1.2108,-1.2108,-1.2047,-1.2041,-1.2936,-1.4123,-1.5127,-1.5184,-1.5199,-1.5176,0.0,0.0,0.0,0.0,0.0,0.0,0.0,0.0,0.0,0.0,-1.4895,0.0,0.0,0.0,-1.4574,-1.53,-1.4943,-1.4935,-1.5669,-1.4883,-1.4317,-1.4243,-1.3708,-1.3362,-1.3303,-1.3166,-1.3007,-1.2842,-1.2673,-1.2324,-1.1776,-1.1579,-1.1452,-1.137,-1.1286,-1.1286,-1.1347,-1.1256,-1.1111,-1.0954,-1.0757,-1.0465,-1.0186,-1.0298,-1.0398,-1.049,-1.077,-1.0968,-1.1114,-1.1213,-1.1319,-1.1439,-1.1637,-1.1838,-1.2035,-1.2174,-1.2182,-1.2084,-1.1882,-1.1564,-1.1164,-1.0729,-1.0449,-1.0281,-1.0256,-1.0256,-1.0256,-1.0331,-1.0424,-1.0516,-1.0614,-1.0712,-1.0832,-1.0975,-1.0944,-1.0897,-1.0897,-1.076,-1.0614,-1.0565,-1.0411,-1.0255,-1.0211,-1.0046,-0.9892,-0.9808,-0.9672,-0.954,-0.9399,-0.9956,-1.0425,-1.0648,-1.1342,-1.1872,-1.2126,-1.2108,-1.2108,-1.2138,-1.2252,-1.2324,-1.2354,-1.2354,-1.236,-1.2437,-1.2407,-1.2407,-1.2048,-1.3469,-1.4714,-1.4785,-1.4897,-1.4985,0.0,0.0,0.0,0.0,0.0,0.0,0.0,-1.4945,0.0,0.0,0.0,0.0,-1.4632,-1.4492,-1.4697,-1.5411,-1.4797,-1.4607,-1.5389,-1.4633,-1.407,-1.3998,-1.3761,-1.3582,-1.3478,-1.3404,-1.3278,-1.3078,-1.2954,-1.2687,-1.2274,-1.1953,-1.1804,-1.1804,-1.1681,-1.1724,-1.189,-1.1825,-1.1688,-1.146,-1.1354,-1.1038,-1.0608,-1.0842,-1.0937,-1.0987,-1.1402,-1.1636,-1.1791,-1.1966,-1.2041,-1.2086,-1.227,-1.2485,-1.2679,-1.2687,-1.266,-1.2548,-1.2344,-1.21,-1.1761,-1.1087,-1.0698,-1.0474,-1.0399,-1.0374,-1.0374,-1.0399,-1.0516,-1.0687,-1.076,-1.0856,-1.0975,-1.1092,-1.1045,-1.0975,-1.0897,-1.0832,-1.0736,-1.0614,-1.0516,-1.0424,-1.0306,-1.023,-1.0097,-0.9925,-0.9854,-0.9736,-0.9544,-0.9803,-1.0167,-1.0566,-1.1075,-1.1613,-1.2229,-1.218,-1.218,-1.2282,-1.2407,-1.2478,-1.2573,-1.2573,-1.2621,-1.2739,-1.2739,-1.2739,-1.1241,-1.2088,-1.2921,-1.2978,-1.3554,-1.4098,0.0,0.0,0.0,0.0,0.0,0.0,0.0,-1.4913,-1.4921,0.0,0.0,-1.4756,0.0,0.0,-1.4733,-1.5424,-1.532,-1.5463,-1.6168,-1.5433,-1.4912,-1.4898,-1.4191,-1.3754,-1.3739,-1.3686,-1.3566,-1.3435,-1.3286,-1.315,-1.3035,-1.254,-1.2297,-1.2297,-1.2201,-1.2249,-1.24,-1.2249,-1.2074,-1.1824,-1.1747,-1.1445,-1.105,-1.1408,-1.1557,-1.1614,-1.2072,-1.236,-1.2535,-1.2635,-1.2728,-1.2844,-1.287,-1.2941,-1.3037,-1.3088,-1.3063,-1.2975,-1.2772,-1.2556,-1.2313,-1.1909,-1.1378,-1.0897,-1.0832,-1.0784,-1.0736,-1.0784,-1.0873,-1.0975,-1.1022,-1.1045,-1.1092,-1.1092,-1.1045,-1.0975,-1.0897,-1.0808,-1.0687,-1.0614,-1.0449,-1.0331,-1.0306,-1.0135,-1.0027,-0.9995,-0.988,-0.9736,-0.9585,-0.959,-0.975,-1.0091,-1.1014,-1.1802,-1.2348,-1.2371,-1.2443,-1.2633,-1.2633,-1.2697,-1.2832,-1.2832,-1.2867,-1.2867,-1.2867,-1.2867,-1.0359,-1.0746,-1.1099,-1.1125,-1.2154,-1.3267,0.0,0.0,0.0,0.0,0.0,0.0,0.0,0.0,-1.4832,-1.4804,0.0,-1.4707,-1.4615,-1.4541,-1.4612,-1.4922,-1.4907,-1.4968,-1.5241,-1.4842,-1.4556,-1.455,-1.4155,-1.3918,-1.3912,-1.3832,-1.3748,-1.3619,-1.3557,-1.3469,-1.3362,-1.3132,-1.2919,-1.2778,-1.2671,-1.27,-1.283,-1.2727,-1.2548,-1.2325,-1.222,-1.1978,-1.1673,-1.2007,-1.2148,-1.2238,-1.2707,-1.3039,-1.3261,-1.34,-1.3456,-1.3489,-1.349,-1.3514,-1.3539,-1.3563,-1.3539,-1.3458,-1.3278,-1.3116,-1.2929,-1.2673,-1.204,-1.14,-1.1256,-1.118,-1.1111,-1.1108,-1.1208,-1.1254,-1.1208,-1.1231,-1.1231,-1.1162,-1.1069,-1.0975,-1.0849,-1.0712,-1.0565,-1.0498,-1.0349,-1.0256,-1.0256,-1.011,-0.9995,-0.9951,-0.9854,-0.9756,-0.9617,-0.9564,-0.9679,-0.9974,-1.0767,-1.1446,-1.1999,-1.2132,-1.2367,-1.2733,-1.2803,-1.2873,-1.3025,-1.3025,-1.3019,-1.3047,-1.3047,-1.3047,-0.9745,-0.9827,-0.9878,-0.9882,0.0,-1.2421,-1.3282,0.0,0.0,0.0,0.0,0.0,0.0,-1.4823,0.0,-1.4688,-1.4677,-1.4647,-1.4592,-1.4537,-1.4492,-1.4478,-1.4435,-1.4371,-1.4315,-1.4207,-1.4132,-1.4123,-1.4083,-1.4059,-1.4044,-1.4005,-1.3915,-1.3765,-1.3761,-1.3702,-1.3584,-1.356,-1.3429,-1.319,-1.3086,-1.3105,-1.321,-1.3157,-1.2998,-1.2793,-1.2681,-1.2501,-1.2305,-1.2578,-1.274,-1.2854,-1.3285,-1.3637,-1.387,-1.4037,-1.4047,-1.3988,-1.3982,-1.3963,-1.3977,-1.3968,-1.3945,-1.3885,-1.3751,-1.3624,-1.35,-1.3295,-1.2734,-1.2136,-1.1817,-1.1673,-1.1571,-1.146,-1.1504,-1.1526,-1.1391,-1.1391,-1.1399,-1.1277,-1.1139,-1.0975,-1.0808,-1.0614,-1.0418,-1.0293,-1.0173,-1.0104,-1.0078,-0.9989,-0.9899,-0.9854,-0.9802,-0.9736,-0.9611,-0.9585,-0.9647,-0.9827,-1.0391,-1.0973,-1.1533,-1.1835,-1.2207,-1.2683,-1.2847,-1.3019,-1.3135,-1.31,-1.3135,-1.317,-1.3123,-1.3129,-0.9669,-0.975,-0.9807,-0.9805,0.0,0.0,-1.2315,0.0,0.0,0.0,0.0,0.0,0.0,-1.4746,-1.4687,-1.4622,-1.4611,-1.4578,-1.452,-1.4499,-1.4488,-1.4407,-1.4401,-1.4371,-1.4306,-1.4286,-1.426,-1.4194,-1.4194,-1.4186,-1.419,-1.4177,-1.4122,-1.3977,-1.3975,-1.3935,-1.3873,-1.3754,-1.3613,-1.3471,-1.3454,-1.3496,-1.3562,-1.3496,-1.332,-1.3072,-1.3063,-1.2974,-1.2863,-1.3133,-1.3311,-1.3471,-1.3818,-1.4108,-1.4347,-1.4374,-1.4338,-1.4268,-1.4202,-1.4172,-1.4185,-1.418,-1.4215,-1.4237,-1.4109,-1.4002,-1.3911,-1.3716,-1.3525,-1.3227,-1.2581,-1.2293,-1.2089,-1.1909,-1.1825,-1.1732,-1.1615,-1.1541,-1.1474,-1.1399,-1.1231,-1.1022,-1.076,-1.0541,-1.0293,-0.9976,-0.988,-0.9808,-0.9736,-0.9736,-0.971,-0.971,-0.971,-0.9684,-0.9611,-0.9493,-0.9399,-0.936,-0.9923,-1.0517,-1.1129,-1.1681,-1.2097,-1.2349,-1.2846,-1.3135,-1.3198,-1.3135,-1.3107,-1.31,-1.2984,-1.2908,-0.9589,-0.9693,-0.9749,-0.9787,0.0,0.0,0.0,0.0,0.0,0.0,0.0,0.0,0.0,0.0,-1.4622,-1.4545,-1.4543,-1.4511,-1.4453,-1.4441,-1.4432,-1.4462,-1.4429,-1.4396,-1.4359,-1.4358,-1.4333,-1.4268,-1.4259,-1.4255,-1.426,-1.4221,-1.4186,-1.4132,-1.4041,-1.3989,-1.3959,-1.3903,-1.3836,-1.3752,-1.3662,-1.3639,-1.3662,-1.3639,-1.3567,-1.3477,-1.3476,-1.3475,-1.3465,-1.3656,-1.38,-1.3975,-1.4298,-1.4549,-1.4709,-1.4708,-1.467,-1.4603,-1.4579,-1.4558,-1.4521,-1.4553,-1.4591,-1.46,-1.4552,-1.4458,-1.435,-1.4235,-1.4102,-1.383,-1.3168,-1.2903,-1.2767,-1.2565,-1.2501,-1.2435,-1.226,-1.2159,-1.2071,-1.1868,-1.1711,-1.1512,-1.118,-1.0907,-1.0608,-1.0311,-1.0104,-0.9944,-0.9828,-0.9756,-0.969,-0.9638,-0.9591,-0.9558,-0.9493,-0.936,-0.9232,-0.9114,-0.9474,-0.9922,-1.0451,-1.1136,-1.1704,-1.2111,-1.2638,-1.2914,-1.2949,-1.2879,-1.2815,-1.2733,-1.2685,-1.2615,-0.9481,-0.96,-0.9675,0.0,0.0,0.0,0.0,0.0,0.0,0.0,0.0,0.0,0.0,0.0,0.0,0.0,-1.41,-1.416,-1.4371,-1.4399,-1.442,-1.4492,-1.4462,-1.4422,-1.4425,-1.4405,-1.4387,-1.4377,-1.4356,-1.4356,-1.4356,-1.4325,-1.4292,-1.4288,-1.4189,-1.4136,-1.4128,-1.4109,-1.4059,-1.3991,-1.3886,-1.3803,-1.3765,-1.3785,-1.3785,-1.3767,-1.3824,-1.3899,-1.397,-1.4129,-1.4283,-1.4449,-1.4701,-1.4865,-1.4959,-1.4962,-1.4916,-1.486,-1.4837,-1.4819,-1.4798,-1.4851,-1.4859,-1.4852,-1.4863,-1.4784,-1.4681,-1.4611,-1.4518,-1.4322,-1.3841,-1.3567,-1.3376,-1.3177,-1.3082,-1.3011,-1.2838,-1.2729,-1.2608,-1.2384,-1.222,-1.1993,-1.168,-1.1334,-1.098,-1.0653,-1.0378,-1.016,-0.9995,-0.9854,-0.9782,-0.971,-0.9638,-0.9552,-0.9493,-0.936,-0.9211,-0.9043,-0.9145,-0.9366,-0.9734,-1.0552,-1.1212,-1.1616,-1.2307,-1.2656,-1.2656,-1.2556,-1.2443,-1.2365,-1.2282,-1.218,-0.9349,-0.9492,-0.9595,0.0,0.0,0.0,0.0,0.0,0.0,0.0,0.0,-1.2196,-1.2206,-1.2206,0.0,-1.3176,-1.3242,-1.3473,-1.4289,-1.4399,-1.4432,-1.4488,-1.4497,-1.4501,-1.4501,-1.4433,-1.4428,-1.4497,-1.4508,-1.4508,-1.4508,-1.4497,-1.4497,-1.4499,-1.4437,-1.4404,-1.4399,-1.4344,-1.4268,-1.4198,-1.4145,-1.402,-1.3897,-1.3975,-1.3972,-1.3927,-1.4114,-1.4246,-1.4328,-1.452,-1.4719,-1.4912,-1.4983,-1.5039,-1.5105,-1.5104,-1.5054,-1.499,-1.4931,-1.4949,-1.5002,-1.5001,-1.4998,-1.5001,-1.5002,-1.4964,-1.4894,-1.4823,-1.4765,-1.4688,-1.4626,-1.4259,-1.3853,-1.3666,-1.3515,-1.3375,-1.3236,-1.3109,-1.2979,-1.2925,-1.2689,-1.2415,-1.215,-1.1784,-1.1351,-1.0887,-1.0644,-1.0403,-1.0141,-1.0046,-0.9976,-0.9899,-0.9828,-0.9782,-0.971,-0.9514,-0.9307,-0.9114,-0.8916,-0.885,-0.9003,-1.0022,-1.0657,-1.08,-1.1848,-1.2407,-1.2407,-1.2186,-1.2108,-1.2071,-1.1763,-1.1542,-0.9274,-0.9394,0.0,0.0,0.0,0.0,0.0,0.0,0.0,0.0,-1.2214,-1.2196,-1.2206,-1.2197,0.0,-1.3181,-1.3277,-1.3547,-1.4354,-1.4434,-1.4448,-1.4556,-1.4569,-1.4592,-1.4647,-1.4619,-1.4619,-1.4648,-1.4677,-1.4706,-1.4708,-1.4717,-1.4717,-1.4708,-1.4598,-1.4545,-1.4543,-1.4519,-1.4485,-1.4414,-1.4443,-1.4316,-1.4033,-1.4105,-1.4188,-1.4265,-1.4467,-1.4615,-1.4735,-1.4886,-1.5015,-1.5112,-1.5128,-1.5175,-1.5241,-1.5245,-1.5226,-1.5212,-1.5186,-1.5191,-1.5209,-1.5207,-1.5211,-1.5214,-1.5211,-1.5157,-1.5111,-1.5097,-1.503,-1.4976,-1.4897,-1.4737,-1.4546,-1.4289,-1.4129,-1.4002,-1.3915,-1.3798,-1.3663,-1.3481,-1.3319,-1.3117,-1.2852,-1.2514,-1.2127,-1.1714,-1.1306,-1.0828,-1.0179,-0.9944,-0.9854,-0.9828,-0.9782,-0.971,-0.971,-0.9514,-0.9307,-0.9114,-0.8916,-0.8767,-0.8728,-0.9755,-1.0376,-1.0521,-1.1491,-1.1962,-1.1962,-1.178,-1.1627,-1.1473,-1.1282,-1.1132,-0.9213,0.0,0.0,0.0,0.0,0.0,0.0,0.0,0.0,0.0,0.0,-1.1246,-1.1247,-1.125,0.0,-1.2696,-1.2842,-1.3225,-1.4379,-1.4494,-1.4517,-1.4635,-1.4666,-1.4707,-1.4776,-1.4776,-1.4794,-1.482,-1.4865,-1.4891,-1.4923,-1.4924,-1.4914,-1.492,-1.4836,-1.4802,-1.4802,-1.4774,-1.4729,-1.466,-1.4699,-1.4606,-1.4414,-1.443,-1.45,-1.4606,-1.481,-1.4961,-1.5066,-1.5144,-1.52,-1.5243,-1.5238,-1.5284,-1.5339,-1.5311,-1.5319,-1.5342,-1.5305,-1.5316,-1.5339,-1.5338,-1.5343,-1.5326,-1.5306,-1.525,-1.519,-1.5166,-1.513,-1.5078,-1.5018,-1.4971,-1.4891,-1.467,-1.4515,-1.4394,-1.4323,-1.4214,-1.4074,-1.3926,-1.3795,-1.361,-1.3378,-1.3065,-1.2707,-1.2289,-1.1665,-1.0989,-1.0373,-1.011,-0.9969,-0.9969,-0.9912,-0.9854,-0.9828,-0.9692,-0.952,-0.9298,-0.9112,-0.8943,-0.88,-0.9522,-1.0058,-1.0323,-1.1085,-1.1589,-1.1765,-1.1575,-1.1383,-1.1196,-1.0954,-1.084,-0.9126,0.0,0.0,0.0,0.0,0.0,-0.9881,-0.9909,-0.9904,-0.9907,0.0,-0.9812,-0.9812,-0.9807,-1.0328,-1.1953,-1.2151,-1.2686,-1.4373,-1.4612,-1.4634,-1.4699,-1.4766,-1.4841,-1.491,-1.4924,-1.4962,-1.5016,-1.5034,-1.505,-1.511,-1.5122,-1.5124,-1.5114,-1.511,-1.5114,-1.5116,-1.5037,-1.4975,-1.4917,-1.4919,-1.4917,-1.4922,-1.4856,-1.4861,-1.4934,-1.5134,-1.5251,-1.5311,-1.5311,-1.5315,-1.5314,-1.5312,-1.5351,-1.5385,-1.5329,-1.5353,-1.5394,-1.5329,-1.5352,-1.5395,-1.5405,-1.5402,-1.5391,-1.5334,-1.5264,-1.5197,-1.5134,-1.5127,-1.5102,-1.5038,-1.5015,-1.4986,-1.4857,-1.4719,-1.4597,-1.4535,-1.4417,-1.4319,-1.4224,-1.4114,-1.3975,-1.375,-1.3451,-1.309,-1.2614,-1.1717,-1.0968,-1.0608,-1.0324,-1.018,-1.018,-1.0104,-1.0065,-1.0027,-0.9951,-0.9828,-0.9658,-0.9467,-0.9286,-0.9141,-0.9372,-0.9733,-1.0204,-1.0726,-1.1227,-1.1719,-1.1496,-1.1341,-1.1185,-1.0779,-1.0621,0.0,-0.9206,0.0,0.0,0.0,-0.9944,-0.9966,-0.9977,-0.9966,-0.9908,-0.989,-0.9878,-0.9875,-0.9838,-1.0343,-1.2013,-1.2223,-1.2762,-1.4435,-1.4684,-1.4704,-1.4776,-1.4841,-1.4928,-1.5045,-1.5107,-1.5165,-1.5226,-1.5235,-1.5238,-1.5261,-1.5265,-1.526,-1.5263,-1.5207,-1.5177,-1.5183,-1.5109,-1.507,-1.5061,-1.5064,-1.5059,-1.505,-1.4985,-1.5022,-1.5143,-1.5239,-1.5321,-1.538,-1.5381,-1.5381,-1.538,-1.538,-1.5387,-1.5396,-1.5379,-1.5385,-1.5402,-1.5381,-1.5386,-1.54,-1.5399,-1.54,-1.5398,-1.5383,-1.5326,-1.5283,-1.5263,-1.5265,-1.5245,-1.517,-1.5158,-1.5136,-1.5054,-1.4892,-1.4738,-1.4669,-1.4595,-1.4506,-1.438,-1.4329,-1.4228,-1.3977,-1.3693,-1.3168,-1.2206,-1.1468,-1.0842,-1.0342,-1.0053,-0.9912,-0.9957,-0.9905,-0.9937,-1.0148,-1.0104,-1.0046,-0.9995,-0.9848,-0.9672,-0.9511,-0.9488,-0.9802,-1.0429,-1.085,-1.1316,-1.1785,-1.1569,-1.1372,-1.1191,-1.084,-1.0682,0.0,0.0,0.0,0.0,0.0,0.0,-1.0049,-1.0048,-1.0029,-0.9961,-0.9948,-0.9944,-0.9948,-1.0213,-1.0831,-1.2094,-1.2566,-1.3234,-1.4558,-1.4716,-1.4755,-1.4876,-1.4951,-1.504,-1.5139,-1.5211,-1.5256,-1.5302,-1.5296,-1.5296,-1.5297,-1.5299,-1.5297,-1.5301,-1.5274,-1.5249,-1.5251,-1.5176,-1.5145,-1.5149,-1.512,-1.5122,-1.5146,-1.5107,-1.5125,-1.5201,-1.5239,-1.5287,-1.5349,-1.5355,-1.5352,-1.535,-1.535,-1.5368,-1.5405,-1.5358,-1.5371,-1.5397,-1.54,-1.54,-1.5397,-1.5401,-1.5404,-1.5399,-1.5399,-1.5383,-1.534,-1.5313,-1.5282,-1.5236,-1.5211,-1.5176,-1.5143,-1.5071,-1.4952,-1.4831,-1.4757,-1.4667,-1.4572,-1.4469,-1.4422,-1.4325,-1.41,-1.3586,-1.2924,-1.2087,-1.146,-1.0944,-1.0503,-1.0186,-0.9989,-1.0046,-1.0021,-1.0072,-1.0281,-1.0311,-1.033,-1.033,-1.0205,-1.0059,-0.9905,-0.9761,-1.0032,-1.0726,-1.0994,-1.1433,-1.2077,-1.1889,-1.1664,-1.1473,-1.1099,-1.0905,0.0,0.0,0.0,0.0,0.0,0.0,-1.0099,-1.0103,-1.0079,-1.003,-1.0015,-1.0035,-1.0181,-1.0684,-1.1407,-1.237,-1.3012,-1.3735,-1.4681,-1.4766,-1.4803,-1.4996,-1.5082,-1.5141,-1.5214,-1.5268,-1.5299,-1.5303,-1.5287,-1.5275,-1.5283,-1.5274,-1.527,-1.5282,-1.528,-1.5278,-1.5275,-1.5222,-1.5183,-1.5181,-1.5115,-1.5116,-1.5157,-1.5137,-1.5147,-1.5183,-1.5169,-1.5202,-1.5247,-1.5259,-1.5268,-1.5282,-1.5299,-1.5326,-1.5384,-1.5318,-1.5336,-1.5383,-1.5404,-1.5397,-1.54,-1.5404,-1.5397,-1.5403,-1.5395,-1.54,-1.5394,-1.5326,-1.5279,-1.5233,-1.5217,-1.5166,-1.5101,-1.503,-1.4968,-1.4884,-1.4794,-1.4696,-1.4592,-1.4522,-1.442,-1.4275,-1.4045,-1.3311,-1.2586,-1.2043,-1.1527,-1.1069,-1.0712,-1.0393,-1.0199,-1.0199,-1.0199,-1.0274,-1.0449,-1.0565,-1.0663,-1.0663,-1.0541,-1.0411,-1.0292,-1.0104,-1.0301,-1.0997,-1.1081,-1.1529,-1.2348,-1.2217,-1.2071,-1.1847,-1.1473,-1.1217,0.0,0.0,0.0,0.0,0.0,-1.0098,0.0,0.0,-1.0105,0.0,-1.0039,-1.0207,-1.0907,-1.1028,-1.1541,-1.3156,-1.3412,-1.3756,-1.4747,-1.4883,-1.4924,-1.507,-1.5149,-1.5213,-1.5283,-1.5291,-1.53,-1.5303,-1.5247,-1.5207,-1.5214,-1.5163,-1.5154,-1.5207,-1.5205,-1.5207,-1.5214,-1.5153,-1.5111,-1.511,-1.5052,-1.5028,-1.5015,-1.491,-1.4942,-1.5112,-1.505,-1.5031,-1.5037,-1.5093,-1.5167,-1.5222,-1.5284,-1.5307,-1.5313,-1.5297,-1.5313,-1.5319,-1.5385,-1.54,-1.5397,-1.5401,-1.5404,-1.5402,-1.5398,-1.5395,-1.54,-1.5389,-1.5376,-1.5358,-1.5297,-1.5236,-1.5174,-1.5105,-1.504,-1.4943,-1.4747,-1.4696,-1.4651,-1.4515,-1.431,-1.4023,-1.3632,-1.3056,-1.2447,-1.1915,-1.1423,-1.0975,-1.059,-1.033,-1.0192,-1.0192,-1.0235,-1.0398,-1.0639,-1.0784,-1.0873,-1.0944,-1.0873,-1.076,-1.0559,-1.0418,-1.0541,-1.0998,-1.1193,-1.1565,-1.2137,-1.2352,-1.2354,-1.2138,-1.1847,-1.1601,-0.8986,0.0,0.0,0.0,0.0,-1.0156,-1.0163,0.0,-1.009,-1.0054,-0.999,-1.0201,-1.104,-1.149,-1.2138,-1.3398,-1.3933,-1.4373,-1.4879,-1.4962,-1.5016,-1.5138,-1.5224,-1.527,-1.5302,-1.5299,-1.5278,-1.5249,-1.5175,-1.5133,-1.5085,-1.506,-1.5062,-1.5092,-1.5123,-1.5142,-1.5143,-1.5112,-1.5076,-1.5039,-1.5014,-1.5004,-1.5002,-1.4857,-1.4839,-1.4871,-1.4801,-1.4801,-1.4844,-1.4939,-1.5053,-1.5149,-1.5214,-1.524,-1.524,-1.5236,-1.5236,-1.5246,-1.5284,-1.5307,-1.5342,-1.5342,-1.5368,-1.5401,-1.5397,-1.54,-1.5399,-1.54,-1.5369,-1.5336,-1.5309,-1.5251,-1.518,-1.5117,-1.5047,-1.4954,-1.4794,-1.4736,-1.4634,-1.4432,-1.4163,-1.3877,-1.3516,-1.3011,-1.2498,-1.2043,-1.1601,-1.121,-1.092,-1.0722,-1.057,-1.0503,-1.0472,-1.0552,-1.0736,-1.0832,-1.0975,-1.1092,-1.1022,-1.0897,-1.0784,-1.0565,-1.0511,-1.0651,-1.1267,-1.1839,-1.2327,-1.2685,-1.2762,-1.2573,-1.2288,-1.2041,0.0,0.0,0.0,0.0,-1.0149,-1.0198,0.0,0.0,-1.0077,0.0,-0.9948,-1.0154,-1.0994,-1.1777,-1.2586,-1.3488,-1.4297,-1.4869,-1.501,-1.5043,-1.5088,-1.5213,-1.5272,-1.5299,-1.5303,-1.5278,-1.5249,-1.5181,-1.5079,-1.5013,-1.4986,-1.4936,-1.4928,-1.4952,-1.5002,-1.5032,-1.5047,-1.5076,-1.5071,-1.5035,-1.5026,-1.5031,-1.5023,-1.4893,-1.4776,-1.4669,-1.4607,-1.4607,-1.466,-1.4784,-1.4929,-1.5057,-1.514,-1.5176,-1.5203,-1.5199,-1.5195,-1.5201,-1.5197,-1.5226,-1.5278,-1.5292,-1.5329,-1.5381,-1.5392,-1.5402,-1.5397,-1.54,-1.5349,-1.5296,-1.5299,-1.525,-1.5181,-1.5119,-1.5051,-1.4955,-1.4813,-1.4697,-1.4552,-1.4301,-1.4033,-1.3741,-1.3403,-1.3,-1.2569,-1.2182,-1.1796,-1.1497,-1.13,-1.1092,-1.092,-1.0784,-1.0712,-1.0712,-1.0832,-1.0897,-1.1022,-1.1185,-1.1115,-1.1022,-1.092,-1.0687,-1.0498,-1.0399,-1.1229,-1.1878,-1.2379,-1.2954,-1.3157,-1.2988,-1.2691,-1.2443,0.0,0.0,0.0,0.0,0.0,0.0,0.0,0.0,-1.008,-1.001,-0.9947,-1.0132,-1.0867,-1.1723,-1.2604,-1.3546,-1.4373,-1.4944,-1.5081,-1.5154,-1.5216,-1.5289,-1.5296,-1.53,-1.5294,-1.5246,-1.5183,-1.5107,-1.4923,-1.4839,-1.4905,-1.4776,-1.4747,-1.4813,-1.4813,-1.485,-1.491,-1.5038,-1.5098,-1.5089,-1.5092,-1.5092,-1.5085,-1.4963,-1.4794,-1.4605,-1.4535,-1.4504,-1.4523,-1.4661,-1.4784,-1.492,-1.5046,-1.5136,-1.5197,-1.5199,-1.5197,-1.5195,-1.52,-1.5206,-1.5217,-1.5284,-1.5299,-1.5323,-1.5381,-1.5403,-1.5405,-1.54,-1.5351,-1.5302,-1.5298,-1.5251,-1.5178,-1.5124,-1.5052,-1.4952,-1.4754,-1.4549,-1.4359,-1.414,-1.3894,-1.3603,-1.327,-1.2936,-1.2588,-1.2259,-1.1968,-1.1718,-1.1511,-1.1307,-1.1139,-1.0998,-1.092,-1.0897,-1.0975,-1.1045,-1.1115,-1.1208,-1.1185,-1.1139,-1.0998,-1.0808,-1.059,-1.0399,-1.0946,-1.1479,-1.2024,-1.3078,-1.3467,-1.3285,-1.3116,-1.2844,0.0,0.0,0.0,-0.9979,-0.9922,-0.986,-0.979,-0.9777,-0.9795,-0.986,-0.989,-0.9981,-1.0252,-1.1434,-1.2663,-1.3548,-1.448,-1.5117,-1.5219,-1.5295,-1.5341,-1.5363,-1.5329,-1.5277,-1.5246,-1.514,-1.5038,-1.4984,-1.4785,-1.4678,-1.4716,-1.4665,-1.4665,-1.4727,-1.4785,-1.4867,-1.5036,-1.5123,-1.5162,-1.5164,-1.5155,-1.5157,-1.5153,-1.5032,-1.4875,-1.4719,-1.4668,-1.4583,-1.4515,-1.4639,-1.4785,-1.4908,-1.5043,-1.5117,-1.514,-1.514,-1.5142,-1.5139,-1.5146,-1.5158,-1.5197,-1.5233,-1.526,-1.5299,-1.5333,-1.5373,-1.5398,-1.54,-1.5382,-1.5348,-1.5309,-1.5251,-1.5178,-1.5123,-1.5051,-1.4963,-1.4794,-1.4543,-1.4277,-1.406,-1.3786,-1.3484,-1.3184,-1.2891,-1.2588,-1.2307,-1.2109,-1.1898,-1.1652,-1.1534,-1.1376,-1.1162,-1.1069,-1.0998,-1.0944,-1.0998,-1.1092,-1.1185,-1.1231,-1.1208,-1.1139,-1.0944,-1.0687,-1.0399,-1.0965,-1.1517,-1.2066,-1.2845,-1.3389,-1.3688,-1.3493,-1.3242,-0.9407,0.0,0.0,0.0,0.0,-0.933,-0.9217,-0.9228,-0.9325,-0.9521,-0.9693,-0.9916,-1.0296,-1.1544,-1.2679,-1.324,-1.4382,-1.522,-1.529,-1.536,-1.5394,-1.5374,-1.527,-1.5164,-1.5111,-1.4956,-1.484,-1.4766,-1.4598,-1.4519,-1.456,-1.4558,-1.4581,-1.4705,-1.4766,-1.4867,-1.5027,-1.5127,-1.518,-1.5195,-1.5216,-1.522,-1.5197,-1.511,-1.4996,-1.4863,-1.4821,-1.4709,-1.4581,-1.469,-1.4812,-1.4935,-1.5059,-1.5101,-1.5104,-1.513,-1.5127,-1.5136,-1.513,-1.5162,-1.5206,-1.5203,-1.5229,-1.527,-1.5294,-1.5332,-1.5366,-1.5366,-1.537,-1.536,-1.531,-1.5245,-1.5195,-1.5142,-1.508,-1.4998,-1.4853,-1.4583,-1.4296,-1.4083,-1.3762,-1.3451,-1.3184,-1.2918,-1.2689,-1.2403,-1.2241,-1.2068,-1.1797,-1.1674,-1.1526,-1.133,-1.1208,-1.1092,-1.1022,-1.1045,-1.1115,-1.1254,-1.133,-1.1353,-1.1307,-1.1115,-1.0832,-1.0516,-1.0877,-1.1428,-1.2175,-1.2811,-1.344,-1.4013,-1.3815,-1.3535,0.0,0.0,0.0,0.0,0.0,0.0,-0.8396,0.0,-0.8639,-0.8978,-0.9316,-0.9899,-1.1027,-1.2016,-1.2646,-1.2599,-1.4063,-1.5226,-1.5289,-1.536,-1.5384,-1.5311,-1.5124,-1.4983,-1.4894,-1.4719,-1.4565,-1.4495,-1.437,-1.4359,-1.4497,-1.4437,-1.4504,-1.4692,-1.4756,-1.4832,-1.4893,-1.5031,-1.5127,-1.5199,-1.5265,-1.526,-1.5201,-1.5205,-1.513,-1.5004,-1.5004,-1.4891,-1.4719,-1.4784,-1.489,-1.5009,-1.5082,-1.5095,-1.5111,-1.5183,-1.5205,-1.5199,-1.5197,-1.5206,-1.5206,-1.52,-1.5207,-1.5206,-1.5275,-1.5301,-1.5299,-1.5303,-1.5297,-1.5301,-1.5296,-1.5251,-1.5197,-1.5197,-1.5148,-1.5073,-1.494,-1.47,-1.443,-1.4157,-1.3833,-1.3514,-1.327,-1.3033,-1.28,-1.2546,-1.2391,-1.2213,-1.1941,-1.1725,-1.1571,-1.1511,-1.133,-1.1201,-1.1208,-1.1208,-1.1277,-1.1399,-1.1466,-1.1511,-1.1511,-1.133,-1.1062,-1.0729,-1.0639,-1.1167,-1.2312,-1.3022,-1.3669,-1.4203,-1.4072,-1.3709,-0.8861,0.0,0.0,0.0,0.0,0.0,-0.7084,0.0,-0.7277,-0.7711,-0.8216,-0.882,-0.9575,-1.095,-1.2066,-1.2342,-1.4055,-1.5346,-1.5366,-1.5391,-1.5384,-1.5306,-1.5173,-1.5009,-1.4844,-1.4689,-1.4528,-1.4368,-1.4273,-1.4263,-1.4356,-1.4478,-1.4569,-1.4634,-1.4746,-1.4832,-1.4903,-1.4973,-1.5061,-1.5127,-1.5201,-1.5222,-1.5205,-1.5152,-1.5114,-1.5066,-1.5073,-1.504,-1.499,-1.5009,-1.5047,-1.5082,-1.5145,-1.5166,-1.5164,-1.5189,-1.5204,-1.5203,-1.5205,-1.5203,-1.519,-1.5146,-1.5158,-1.5201,-1.5225,-1.5231,-1.5244,-1.5284,-1.5303,-1.5295,-1.5302,-1.5293,-1.5275,-1.5272,-1.5258,-1.522,-1.5139,-1.4983,-1.4736,-1.4315,-1.4016,-1.373,-1.3459,-1.3202,-1.2954,-1.2681,-1.2495,-1.2282,-1.2075,-1.192,-1.1776,-1.1652,-1.1593,-1.1512,-1.1421,-1.1429,-1.1453,-1.1527,-1.1696,-1.1812,-1.1863,-1.1762,-1.1527,-1.115,-1.108,-1.1619,-1.2809,-1.2864,-1.3379,-1.4326,-1.4066,-1.3728,0.0,0.0,0.0,0.0,0.0,0.0,-0.558,-0.562,-0.5816,-0.6284,-0.6836,-0.7526,-0.846,-0.9493,-1.0475,-1.1293,-1.2602,-1.3936,-1.5146,-1.5338,-1.5331,-1.527,-1.5139,-1.498,-1.4775,-1.4607,-1.4439,-1.4268,-1.4219,-1.4242,-1.4346,-1.4453,-1.4535,-1.4561,-1.4685,-1.4784,-1.4822,-1.4911,-1.499,-1.5054,-1.5101,-1.5133,-1.5159,-1.5084,-1.5071,-1.5092,-1.5097,-1.5114,-1.5142,-1.5168,-1.517,-1.5153,-1.522,-1.5215,-1.5193,-1.52,-1.518,-1.5166,-1.5162,-1.5162,-1.5149,-1.5114,-1.513,-1.5162,-1.5165,-1.5161,-1.517,-1.5215,-1.526,-1.5303,-1.5305,-1.53,-1.5312,-1.534,-1.534,-1.5316,-1.5257,-1.5158,-1.496,-1.4557,-1.4268,-1.4016,-1.3745,-1.3483,-1.3202,-1.2875,-1.2692,-1.2475,-1.2228,-1.2096,-1.1984,-1.1869,-1.1848,-1.1783,-1.1689,-1.1674,-1.1703,-1.1754,-1.1905,-1.2039,-1.2159,-1.2109,-1.1932,-1.1637,-1.1505,-1.2063,-1.332,-1.3048,-1.3471,-1.455,-1.4248,-1.3954,0.0,0.0,0.0,0.0,-0.4655,0.0,-0.3941,-0.3995,-0.421,-0.4659,-0.5164,-0.592,-0.7246,-0.7618,-0.8155,-0.9494,-1.0213,-1.1582,-1.4433,-1.492,-1.5013,-1.5053,-1.4952,-1.4832,-1.4719,-1.4543,-1.4362,-1.4223,-1.4202,-1.4264,-1.4389,-1.4402,-1.4434,-1.4504,-1.462,-1.4685,-1.4689,-1.4804,-1.4903,-1.497,-1.4976,-1.5,-1.5054,-1.4998,-1.5006,-1.5078,-1.509,-1.5114,-1.5183,-1.5258,-1.5265,-1.5222,-1.5279,-1.526,-1.5201,-1.52,-1.5161,-1.5101,-1.5094,-1.5083,-1.5078,-1.5071,-1.5069,-1.5076,-1.5073,-1.5073,-1.5076,-1.5101,-1.5186,-1.528,-1.529,-1.5286,-1.5321,-1.5368,-1.5385,-1.5381,-1.5319,-1.5258,-1.512,-1.481,-1.4576,-1.4349,-1.4078,-1.3798,-1.349,-1.3099,-1.2909,-1.2681,-1.2368,-1.2269,-1.2182,-1.2125,-1.2054,-1.2012,-1.1941,-1.1941,-1.1962,-1.2012,-1.2094,-1.2238,-1.2451,-1.2395,-1.2312,-1.2164,-1.2054,-1.2607,-1.3865,-1.3516,-1.3884,-1.4856,-1.4603,-1.4292,0.0,0.0,0.0,0.0,-0.2848,0.0,-0.217,-0.2139,-0.2224,-0.2541,-0.2856,-0.3333,-0.4156,-0.4876,-0.5642,-0.6512,-0.7782,-0.9563,-1.2175,-1.2832,-1.332,-1.407,-1.4131,-1.429,-1.4747,-1.4699,-1.4534,-1.4297,-1.4233,-1.4264,-1.4389,-1.4396,-1.4437,-1.4499,-1.4587,-1.4612,-1.4616,-1.4658,-1.4689,-1.4757,-1.4757,-1.4776,-1.4785,-1.4821,-1.4883,-1.4937,-1.5,-1.5026,-1.5052,-1.5165,-1.5239,-1.5279,-1.5293,-1.5255,-1.5201,-1.5197,-1.5159,-1.509,-1.504,-1.4976,-1.4926,-1.4882,-1.4901,-1.4937,-1.4874,-1.4899,-1.4967,-1.5071,-1.5124,-1.5151,-1.5212,-1.5263,-1.5299,-1.5316,-1.5358,-1.5398,-1.5379,-1.5335,-1.5254,-1.5125,-1.4848,-1.4563,-1.4288,-1.3964,-1.3654,-1.337,-1.307,-1.2778,-1.2506,-1.236,-1.2254,-1.2185,-1.2164,-1.2151,-1.2133,-1.2133,-1.2146,-1.2164,-1.2323,-1.2503,-1.2708,-1.2754,-1.2727,-1.2599,-1.2976,-1.3532,-1.4271,-1.437,-1.4689,-1.5196,-1.5091,-1.4762,0.0,0.0,-0.07,-0.1055,-0.0967,0.0,0.0,-0.0632,-0.0651,-0.0809,-0.0985,-0.1231,-0.1637,-0.2089,-0.2623,-0.3298,-0.4505,-0.6086,-0.8163,-1.0416,-1.2109,-1.2815,-1.3048,-1.3394,-1.4036,-1.413,-1.4259,-1.4483,-1.4405,-1.4371,-1.4453,-1.4422,-1.4446,-1.4554,-1.4578,-1.462,-1.4643,-1.4585,-1.4575,-1.4597,-1.4575,-1.4586,-1.4647,-1.4718,-1.457,-1.4276,-1.475,-1.4723,-1.4392,-1.4864,-1.5084,-1.5162,-1.522,-1.5211,-1.5157,-1.5111,-1.5035,-1.4951,-1.4912,-1.4859,-1.4794,-1.4766,-1.4804,-1.4832,-1.4804,-1.4849,-1.4928,-1.5019,-1.5066,-1.5117,-1.5176,-1.5216,-1.5255,-1.5287,-1.5329,-1.535,-1.535,-1.532,-1.5281,-1.5206,-1.5039,-1.481,-1.4552,-1.4286,-1.4006,-1.3693,-1.3361,-1.3045,-1.2735,-1.2514,-1.2372,-1.2266,-1.2246,-1.2233,-1.22,-1.2249,-1.229,-1.2295,-1.2495,-1.2689,-1.2949,-1.2985,-1.293,-1.2749,-1.3007,-1.3637,-1.46,-1.4766,-1.5188,-1.5809,-1.5701,-1.5338,0.3115,0.2236,0.158,0.0962,0.0783,0.0727,0.0,0.0,0.0,0.0721,0.0695,0.0648,0.0557,0.0513,0.0296,-0.0247,-0.125,-0.2521,-0.4134,-0.759,-1.0337,-1.1413,-1.1895,-1.2412,-1.3142,-1.3289,-1.3588,-1.4174,-1.4253,-1.4272,-1.4268,-1.4357,-1.4469,-1.46,-1.46,-1.4631,-1.4683,-1.455,-1.4467,-1.4465,-1.4404,-1.4437,-1.4547,-1.4642,-1.4278,-1.3632,-1.4521,-1.4425,-1.3723,-1.4533,-1.4891,-1.4935,-1.5095,-1.5127,-1.5072,-1.5013,-1.4899,-1.4794,-1.4785,-1.4737,-1.4679,-1.4669,-1.4708,-1.4775,-1.4794,-1.485,-1.4911,-1.4978,-1.5047,-1.511,-1.5168,-1.5191,-1.5205,-1.5269,-1.5284,-1.5295,-1.5303,-1.5309,-1.5303,-1.5231,-1.5181,-1.5053,-1.4776,-1.4543,-1.4323,-1.4015,-1.3691,-1.3361,-1.3026,-1.2708,-1.2467,-1.2307,-1.2274,-1.2254,-1.2205,-1.2351,-1.2431,-1.2463,-1.2642,-1.2869,-1.3137,-1.3111,-1.3021,-1.2821,-1.2811,-1.3384,-1.4581,-1.487,-1.5463,-1.6367,-1.6274,-1.592,0.4159,0.3578,0.3084,0.2431,0.2137,0.1989,0.1978,0.0,0.211,0.222,0.0,0.2349,0.2469,0.0,0.0,0.2076,0.1063,-0.0242,-0.1844,-0.4022,-0.6625,-0.9837,-1.0771,-1.1516,-1.2429,-1.2474,-1.2464,-1.2479,-1.3075,-1.3436,-1.3447,-1.411,-1.4521,-1.4603,-1.4594,-1.4594,-1.4614,-1.4485,-1.438,-1.4322,-1.4303,-1.4319,-1.4341,-1.4523,-1.4202,-1.356,-1.4503,-1.4372,-1.3588,-1.4391,-1.4689,-1.467,-1.4924,-1.5023,-1.5,-1.4944,-1.4858,-1.4785,-1.4727,-1.4667,-1.4595,-1.4539,-1.4572,-1.4636,-1.4765,-1.4841,-1.4912,-1.4978,-1.5049,-1.5097,-1.5108,-1.5158,-1.5197,-1.5205,-1.5255,-1.5305,-1.53,-1.5346,-1.5366,-1.5297,-1.5277,-1.5167,-1.4851,-1.4622,-1.4437,-1.4283,-1.3975,-1.3635,-1.3303,-1.2921,-1.2556,-1.2231,-1.2218,-1.2213,-1.2195,-1.2435,-1.2597,-1.2654,-1.285,-1.3059,-1.3269,-1.3157,-1.3041,-1.2893,-1.2829,-1.3133,-1.3825,-1.4611,-1.5571,-1.6644,-1.6644,-1.637,0.5074,0.4593,0.4164,0.3574,0.3108,0.277,0.2783,0.2829,0.2917,0.3047,0.0,0.0,0.0,0.0,0.0,0.0,0.261,0.1453,-0.0101,-0.2138,-0.4679,-0.7923,-0.9147,-1.0252,-1.1568,-1.21,-1.2348,-1.2324,-1.2564,-1.291,-1.3332,-1.3683,-1.4111,-1.4638,-1.4658,-1.4677,-1.4726,-1.4543,-1.4419,-1.4359,-1.4356,-1.4375,-1.4423,-1.462,-1.4307,-1.3666,-1.4493,-1.4307,-1.3495,-1.418,-1.4433,-1.4377,-1.4445,-1.4601,-1.4757,-1.4747,-1.4727,-1.4735,-1.4715,-1.4676,-1.4657,-1.4626,-1.4647,-1.4678,-1.4823,-1.4895,-1.4971,-1.5036,-1.5076,-1.5104,-1.5149,-1.5177,-1.5201,-1.5195,-1.5251,-1.5302,-1.5302,-1.535,-1.5393,-1.5361,-1.5327,-1.5254,-1.5109,-1.4888,-1.4701,-1.4593,-1.4368,-1.4072,-1.3704,-1.3333,-1.297,-1.2649,-1.2572,-1.2522,-1.2487,-1.2743,-1.293,-1.2998,-1.3227,-1.3371,-1.3413,-1.3286,-1.3123,-1.2906,-1.2794,-1.3018,-1.3571,-1.3994,-1.4815,-1.6032,-1.6556,-1.6573,0.5505,0.5115,0.4794,0.4338,0.3877,0.3509,0.353,0.3496,0.3483,0.3584,0.365,0.0,0.0,0.0,0.0,0.0,0.0,0.2887,0.1447,-0.0598,-0.3121,-0.633,-0.8042,-0.9456,-1.072,-1.1372,-1.1711,-1.1688,-1.1823,-1.2149,-1.2697,-1.3149,-1.3708,-1.4354,-1.4606,-1.4757,-1.4832,-1.4627,-1.4489,-1.4425,-1.4425,-1.4465,-1.4537,-1.4738,-1.4414,-1.3747,-1.4482,-1.4261,-1.3415,-1.4001,-1.4179,-1.4083,-1.4015,-1.4148,-1.4395,-1.4528,-1.4622,-1.4683,-1.4694,-1.4716,-1.4727,-1.4727,-1.4728,-1.4747,-1.4859,-1.4948,-1.5003,-1.5059,-1.509,-1.5111,-1.5165,-1.5168,-1.518,-1.5199,-1.5246,-1.5303,-1.5304,-1.5351,-1.54,-1.54,-1.5358,-1.5333,-1.5329,-1.5122,-1.4927,-1.4864,-1.47,-1.4447,-1.4078,-1.3758,-1.3434,-1.31,-1.2986,-1.2905,-1.284,-1.307,-1.3252,-1.3353,-1.358,-1.3669,-1.3584,-1.3445,-1.3227,-1.2961,-1.2759,-1.2836,-1.3147,-1.3378,-1.3941,-1.4826,-1.5996,-1.6451,0.5183,0.4997,0.4851,0.4637,0.4428,0.4283,0.434,0.4119,0.3886,0.3886,0.3886,0.3969,0.4248,0.0,0.0,0.0,0.0,0.0,0.0,0.0961,-0.1628,-0.5308,-0.7897,-0.9525,-0.9903,-0.9966,-0.9947,-0.9889,-1.0534,-1.0955,-1.0983,-1.2521,-1.3439,-1.354,-1.4354,-1.4832,-1.4906,-1.4698,-1.4566,-1.4501,-1.4501,-1.4528,-1.4594,-1.4803,-1.4456,-1.374,-1.448,-1.4232,-1.3343,-1.3889,-1.3992,-1.3818,-1.3735,-1.3767,-1.3889,-1.4335,-1.4556,-1.4615,-1.4679,-1.4737,-1.4804,-1.4804,-1.4794,-1.4813,-1.4877,-1.4948,-1.4997,-1.5,-1.5054,-1.5097,-1.5098,-1.5095,-1.5117,-1.5174,-1.5246,-1.5298,-1.5298,-1.5349,-1.5399,-1.5399,-1.54,-1.54,-1.5404,-1.5229,-1.5072,-1.5,-1.4874,-1.4682,-1.4419,-1.4153,-1.385,-1.3513,-1.3354,-1.3251,-1.3193,-1.3368,-1.3562,-1.3774,-1.3915,-1.3927,-1.3793,-1.3592,-1.3371,-1.3102,-1.2759,-1.2491,-1.2228,-1.2903,-1.316,-1.3122,-1.4836,-1.5899,0.5344,0.5236,0.5188,0.4969,0.4812,0.4678,0.4549,0.4442,0.4315,0.4137,0.3995,0.3965,0.419,0.0,0.0,0.0,0.0,0.0,0.0,0.0196,-0.3057,-0.5592,-0.766,-0.9052,-0.9519,-0.9647,-0.9713,-0.9728,-0.9921,-1.0274,-1.0812,-1.1921,-1.2836,-1.3485,-1.4391,-1.4877,-1.4905,-1.4794,-1.4699,-1.4629,-1.468,-1.4729,-1.4794,-1.496,-1.4857,-1.4567,-1.4733,-1.4512,-1.4023,-1.3984,-1.383,-1.3583,-1.3428,-1.3412,-1.3527,-1.4005,-1.4264,-1.4448,-1.468,-1.4785,-1.4804,-1.4851,-1.4804,-1.4747,-1.4813,-1.4822,-1.4821,-1.4911,-1.4951,-1.4987,-1.5019,-1.5068,-1.5117,-1.5183,-1.5219,-1.5255,-1.5291,-1.5316,-1.5346,-1.539,-1.5362,-1.5351,-1.5389,-1.5311,-1.5212,-1.5134,-1.5095,-1.5,-1.4822,-1.4634,-1.4418,-1.413,-1.402,-1.3921,-1.3817,-1.3934,-1.4042,-1.406,-1.4105,-1.4069,-1.3941,-1.3746,-1.351,-1.3243,-1.2899,-1.258,-1.2274,-1.2447,-1.267,-1.2947,-1.3667,-1.4565,0.5457,0.5373,0.5351,0.5139,0.4966,0.477,0.4573,0.4409,0.4227,0.3933,0.3814,0.3814,0.3965,0.0,0.0,0.0,0.0,0.0,0.0,-0.0103,-0.3123,-0.5288,-0.7273,-0.868,-0.9233,-0.9417,-0.9534,-0.962,-0.9609,-0.9837,-1.038,-1.1254,-1.2172,-1.3107,-1.4025,-1.4652,-1.4928,-1.4867,-1.4804,-1.4738,-1.4804,-1.4867,-1.4937,-1.5036,-1.5042,-1.4992,-1.4865,-1.4632,-1.4332,-1.4029,-1.3726,-1.3437,-1.3226,-1.3139,-1.3209,-1.3641,-1.3993,-1.4311,-1.459,-1.4718,-1.4746,-1.4785,-1.4718,-1.4629,-1.465,-1.4592,-1.4542,-1.4661,-1.4701,-1.4747,-1.486,-1.4938,-1.5025,-1.5116,-1.5124,-1.5143,-1.5177,-1.5205,-1.5243,-1.5277,-1.5261,-1.5253,-1.5324,-1.5291,-1.5264,-1.5241,-1.5236,-1.5203,-1.5091,-1.4999,-1.4867,-1.4671,-1.4567,-1.4463,-1.4323,-1.4394,-1.4404,-1.4344,-1.4298,-1.4197,-1.4041,-1.3865,-1.3622,-1.3303,-1.2972,-1.261,-1.2226,-1.2166,-1.2262,-1.2509,-1.2955,-1.3628]}]]